﻿<?xml version="1.0" encoding="UTF-8" standalone="no" ?>
<gpx xmlns="http://www.topografix.com/GPX/1/1" creator="CompeGPS" version="1.1" xmlns:xsi="http://www.w3.org/2001/XMLSchema-instance" xsi:schemaLocation="http://www.topografix.com/GPX/1/1 http://www.topografix.com/GPX/1/1/gpx.xsd http://www.garmin.com/xmlschemas/GpxExtensions/v3 http://www.garmin.com/xmlschemas/GpxExtensionsv3.xsd http://www.garmin.com/xmlschemas/TrackPointExtension/v1 http://www.garmin.com/xmlschemas/TrackPointExtensionv1.xsd" xmlns:gpxtpx="http://www.garmin.com/xmlschemas/TrackPointExtension/v1">
  <metadata>
    <link href="http://www.compegps.com">
      <text>CompeGPS TEAM, SL</text>
    </link>
    <time>2018-12-08T12:56:26Z</time>
    <bounds maxlat="43.069295" maxlon="-0.079621" minlat="43.041971" minlon="-0.139292"/>
  </metadata>
  <trk>
    <name>pibeste</name>
    <userMyTwoNav></userMyTwoNav>
    <serialNumber></serialNumber>
    <trkseg>
      <trkpt lat="43.069121" lon="-0.091311">
        <ele>726.5</ele>
        <time>2018-12-07T11:36:24Z</time>
      </trkpt>
      <trkpt lat="43.069029" lon="-0.091271">
        <ele>726.8</ele>
        <time>2018-12-07T11:36:35Z</time>
      </trkpt>
      <trkpt lat="43.068926" lon="-0.091206">
        <ele>727.2</ele>
        <time>2018-12-07T11:36:53Z</time>
      </trkpt>
      <trkpt lat="43.068846" lon="-0.091167">
        <ele>727.1</ele>
        <time>2018-12-07T11:37:01Z</time>
      </trkpt>
      <trkpt lat="43.068751" lon="-0.091197">
        <ele>727.7</ele>
        <time>2018-12-07T11:37:10Z</time>
      </trkpt>
      <trkpt lat="43.068644" lon="-0.091209">
        <ele>727.9</ele>
        <time>2018-12-07T11:37:18Z</time>
      </trkpt>
      <trkpt lat="43.068520" lon="-0.091222">
        <ele>728.1</ele>
        <time>2018-12-07T11:37:26Z</time>
      </trkpt>
      <trkpt lat="43.068402" lon="-0.091231">
        <ele>728.3</ele>
        <time>2018-12-07T11:37:35Z</time>
      </trkpt>
      <trkpt lat="43.068301" lon="-0.091258">
        <ele>728.4</ele>
        <time>2018-12-07T11:37:43Z</time>
      </trkpt>
      <trkpt lat="43.068195" lon="-0.091286">
        <ele>728.6</ele>
        <time>2018-12-07T11:37:51Z</time>
      </trkpt>
      <trkpt lat="43.068097" lon="-0.091339">
        <ele>728.7</ele>
        <time>2018-12-07T11:37:59Z</time>
      </trkpt>
      <trkpt lat="43.067996" lon="-0.091379">
        <ele>729.1</ele>
        <time>2018-12-07T11:38:07Z</time>
      </trkpt>
      <trkpt lat="43.067887" lon="-0.091413">
        <ele>729.9</ele>
        <time>2018-12-07T11:38:15Z</time>
      </trkpt>
      <trkpt lat="43.067783" lon="-0.091440">
        <ele>730.9</ele>
        <time>2018-12-07T11:38:23Z</time>
      </trkpt>
      <trkpt lat="43.067680" lon="-0.091457">
        <ele>731.7</ele>
        <time>2018-12-07T11:38:31Z</time>
      </trkpt>
      <trkpt lat="43.067568" lon="-0.091428">
        <ele>732.7</ele>
        <time>2018-12-07T11:38:39Z</time>
      </trkpt>
      <trkpt lat="43.067476" lon="-0.091368">
        <ele>733.7</ele>
        <time>2018-12-07T11:38:48Z</time>
      </trkpt>
      <trkpt lat="43.067414" lon="-0.091264">
        <ele>734.2</ele>
        <time>2018-12-07T11:38:56Z</time>
      </trkpt>
      <trkpt lat="43.067365" lon="-0.091147">
        <ele>734.5</ele>
        <time>2018-12-07T11:39:02Z</time>
      </trkpt>
      <trkpt lat="43.067313" lon="-0.091052">
        <ele>734.5</ele>
        <time>2018-12-07T11:39:08Z</time>
      </trkpt>
      <trkpt lat="43.067258" lon="-0.090950">
        <ele>734.7</ele>
        <time>2018-12-07T11:39:14Z</time>
      </trkpt>
      <trkpt lat="43.067211" lon="-0.090846">
        <ele>734.8</ele>
        <time>2018-12-07T11:39:20Z</time>
      </trkpt>
      <trkpt lat="43.067164" lon="-0.090731">
        <ele>735.0</ele>
        <time>2018-12-07T11:39:26Z</time>
      </trkpt>
      <trkpt lat="43.067091" lon="-0.090646">
        <ele>735.6</ele>
        <time>2018-12-07T11:39:33Z</time>
      </trkpt>
      <trkpt lat="43.067036" lon="-0.090527">
        <ele>736.1</ele>
        <time>2018-12-07T11:39:40Z</time>
      </trkpt>
      <trkpt lat="43.066980" lon="-0.090408">
        <ele>736.9</ele>
        <time>2018-12-07T11:39:47Z</time>
      </trkpt>
      <trkpt lat="43.066935" lon="-0.090292">
        <ele>737.7</ele>
        <time>2018-12-07T11:39:54Z</time>
      </trkpt>
      <trkpt lat="43.066874" lon="-0.090187">
        <ele>738.6</ele>
        <time>2018-12-07T11:40:02Z</time>
      </trkpt>
      <trkpt lat="43.066828" lon="-0.090047">
        <ele>739.9</ele>
        <time>2018-12-07T11:40:11Z</time>
      </trkpt>
      <trkpt lat="43.066773" lon="-0.089923">
        <ele>741.4</ele>
        <time>2018-12-07T11:40:19Z</time>
      </trkpt>
      <trkpt lat="43.066719" lon="-0.089800">
        <ele>742.6</ele>
        <time>2018-12-07T11:40:27Z</time>
      </trkpt>
      <trkpt lat="43.066668" lon="-0.089699">
        <ele>743.6</ele>
        <time>2018-12-07T11:40:34Z</time>
      </trkpt>
      <trkpt lat="43.066632" lon="-0.089561">
        <ele>744.9</ele>
        <time>2018-12-07T11:40:42Z</time>
      </trkpt>
      <trkpt lat="43.066575" lon="-0.089441">
        <ele>746.2</ele>
        <time>2018-12-07T11:40:50Z</time>
      </trkpt>
      <trkpt lat="43.066519" lon="-0.089326">
        <ele>747.5</ele>
        <time>2018-12-07T11:40:58Z</time>
      </trkpt>
      <trkpt lat="43.066457" lon="-0.089224">
        <ele>748.7</ele>
        <time>2018-12-07T11:41:05Z</time>
      </trkpt>
      <trkpt lat="43.066403" lon="-0.089117">
        <ele>750.3</ele>
        <time>2018-12-07T11:41:13Z</time>
      </trkpt>
      <trkpt lat="43.066343" lon="-0.089011">
        <ele>752.0</ele>
        <time>2018-12-07T11:41:21Z</time>
      </trkpt>
      <trkpt lat="43.066296" lon="-0.088898">
        <ele>753.3</ele>
        <time>2018-12-07T11:41:28Z</time>
      </trkpt>
      <trkpt lat="43.066255" lon="-0.088779">
        <ele>754.6</ele>
        <time>2018-12-07T11:41:35Z</time>
      </trkpt>
      <trkpt lat="43.066204" lon="-0.088673">
        <ele>755.4</ele>
        <time>2018-12-07T11:41:41Z</time>
      </trkpt>
      <trkpt lat="43.066163" lon="-0.088538">
        <ele>756.1</ele>
        <time>2018-12-07T11:41:48Z</time>
      </trkpt>
      <trkpt lat="43.066130" lon="-0.088427">
        <ele>756.6</ele>
        <time>2018-12-07T11:41:55Z</time>
      </trkpt>
      <trkpt lat="43.066095" lon="-0.088318">
        <ele>757.2</ele>
        <time>2018-12-07T11:42:01Z</time>
      </trkpt>
      <trkpt lat="43.066057" lon="-0.088210">
        <ele>757.6</ele>
        <time>2018-12-07T11:42:07Z</time>
      </trkpt>
      <trkpt lat="43.066022" lon="-0.088108">
        <ele>758.2</ele>
        <time>2018-12-07T11:42:13Z</time>
      </trkpt>
      <trkpt lat="43.065966" lon="-0.088009">
        <ele>758.9</ele>
        <time>2018-12-07T11:42:20Z</time>
      </trkpt>
      <trkpt lat="43.065910" lon="-0.087893">
        <ele>759.4</ele>
        <time>2018-12-07T11:42:26Z</time>
      </trkpt>
      <trkpt lat="43.065855" lon="-0.087796">
        <ele>760.2</ele>
        <time>2018-12-07T11:42:32Z</time>
      </trkpt>
      <trkpt lat="43.065783" lon="-0.087702">
        <ele>761.2</ele>
        <time>2018-12-07T11:42:39Z</time>
      </trkpt>
      <trkpt lat="43.065697" lon="-0.087614">
        <ele>762.1</ele>
        <time>2018-12-07T11:42:46Z</time>
      </trkpt>
      <trkpt lat="43.065635" lon="-0.087521">
        <ele>762.8</ele>
        <time>2018-12-07T11:42:53Z</time>
      </trkpt>
      <trkpt lat="43.065570" lon="-0.087407">
        <ele>763.9</ele>
        <time>2018-12-07T11:43:01Z</time>
      </trkpt>
      <trkpt lat="43.065509" lon="-0.087307">
        <ele>764.7</ele>
        <time>2018-12-07T11:43:07Z</time>
      </trkpt>
      <trkpt lat="43.065449" lon="-0.087204">
        <ele>765.6</ele>
        <time>2018-12-07T11:43:14Z</time>
      </trkpt>
      <trkpt lat="43.065417" lon="-0.087083">
        <ele>766.4</ele>
        <time>2018-12-07T11:43:21Z</time>
      </trkpt>
      <trkpt lat="43.065344" lon="-0.086974">
        <ele>767.8</ele>
        <time>2018-12-07T11:43:29Z</time>
      </trkpt>
      <trkpt lat="43.065278" lon="-0.086871">
        <ele>768.9</ele>
        <time>2018-12-07T11:43:37Z</time>
      </trkpt>
      <trkpt lat="43.065208" lon="-0.086750">
        <ele>770.3</ele>
        <time>2018-12-07T11:43:45Z</time>
      </trkpt>
      <trkpt lat="43.065137" lon="-0.086639">
        <ele>772.2</ele>
        <time>2018-12-07T11:43:55Z</time>
      </trkpt>
      <trkpt lat="43.065062" lon="-0.086526">
        <ele>773.7</ele>
        <time>2018-12-07T11:44:04Z</time>
      </trkpt>
      <trkpt lat="43.064989" lon="-0.086425">
        <ele>775.6</ele>
        <time>2018-12-07T11:44:13Z</time>
      </trkpt>
      <trkpt lat="43.064913" lon="-0.086350">
        <ele>776.7</ele>
        <time>2018-12-07T11:44:20Z</time>
      </trkpt>
      <trkpt lat="43.064849" lon="-0.086250">
        <ele>778.0</ele>
        <time>2018-12-07T11:44:29Z</time>
      </trkpt>
      <trkpt lat="43.064787" lon="-0.086152">
        <ele>779.3</ele>
        <time>2018-12-07T11:44:37Z</time>
      </trkpt>
      <trkpt lat="43.064725" lon="-0.086048">
        <ele>780.9</ele>
        <time>2018-12-07T11:44:45Z</time>
      </trkpt>
      <trkpt lat="43.064644" lon="-0.085946">
        <ele>782.4</ele>
        <time>2018-12-07T11:44:54Z</time>
      </trkpt>
      <trkpt lat="43.064583" lon="-0.085840">
        <ele>784.0</ele>
        <time>2018-12-07T11:45:02Z</time>
      </trkpt>
      <trkpt lat="43.064516" lon="-0.085748">
        <ele>785.3</ele>
        <time>2018-12-07T11:45:11Z</time>
      </trkpt>
      <trkpt lat="43.064457" lon="-0.085650">
        <ele>786.4</ele>
        <time>2018-12-07T11:45:19Z</time>
      </trkpt>
      <trkpt lat="43.064408" lon="-0.085566">
        <ele>787.8</ele>
        <time>2018-12-07T11:45:27Z</time>
      </trkpt>
      <trkpt lat="43.064335" lon="-0.085484">
        <ele>789.3</ele>
        <time>2018-12-07T11:45:36Z</time>
      </trkpt>
      <trkpt lat="43.064258" lon="-0.085413">
        <ele>790.4</ele>
        <time>2018-12-07T11:45:44Z</time>
      </trkpt>
      <trkpt lat="43.064172" lon="-0.085360">
        <ele>791.9</ele>
        <time>2018-12-07T11:45:53Z</time>
      </trkpt>
      <trkpt lat="43.064090" lon="-0.085300">
        <ele>793.3</ele>
        <time>2018-12-07T11:46:02Z</time>
      </trkpt>
      <trkpt lat="43.063990" lon="-0.085237">
        <ele>794.3</ele>
        <time>2018-12-07T11:46:09Z</time>
      </trkpt>
      <trkpt lat="43.063905" lon="-0.085295">
        <ele>795.4</ele>
        <time>2018-12-07T11:46:17Z</time>
      </trkpt>
      <trkpt lat="43.063824" lon="-0.085235">
        <ele>796.8</ele>
        <time>2018-12-07T11:46:27Z</time>
      </trkpt>
      <trkpt lat="43.063731" lon="-0.085209">
        <ele>797.8</ele>
        <time>2018-12-07T11:46:37Z</time>
      </trkpt>
      <trkpt lat="43.063647" lon="-0.085182">
        <ele>798.8</ele>
        <time>2018-12-07T11:46:46Z</time>
      </trkpt>
      <trkpt lat="43.063551" lon="-0.085182">
        <ele>800.1</ele>
        <time>2018-12-07T11:46:55Z</time>
      </trkpt>
      <trkpt lat="43.063462" lon="-0.085189">
        <ele>801.3</ele>
        <time>2018-12-07T11:47:05Z</time>
      </trkpt>
      <trkpt lat="43.063368" lon="-0.085212">
        <ele>802.2</ele>
        <time>2018-12-07T11:47:15Z</time>
      </trkpt>
      <trkpt lat="43.063272" lon="-0.085255">
        <ele>803.4</ele>
        <time>2018-12-07T11:47:24Z</time>
      </trkpt>
      <trkpt lat="43.063146" lon="-0.085386">
        <ele>805.5</ele>
        <time>2018-12-07T11:47:36Z</time>
      </trkpt>
      <trkpt lat="43.063032" lon="-0.085441">
        <ele>807.3</ele>
        <time>2018-12-07T11:47:48Z</time>
      </trkpt>
      <trkpt lat="43.062928" lon="-0.085466">
        <ele>808.8</ele>
        <time>2018-12-07T11:47:58Z</time>
      </trkpt>
      <trkpt lat="43.062795" lon="-0.085476">
        <ele>810.4</ele>
        <time>2018-12-07T11:48:10Z</time>
      </trkpt>
      <trkpt lat="43.062671" lon="-0.085477">
        <ele>812.0</ele>
        <time>2018-12-07T11:48:20Z</time>
      </trkpt>
      <trkpt lat="43.062564" lon="-0.085465">
        <ele>813.2</ele>
        <time>2018-12-07T11:48:29Z</time>
      </trkpt>
      <trkpt lat="43.062446" lon="-0.085421">
        <ele>814.5</ele>
        <time>2018-12-07T11:48:39Z</time>
      </trkpt>
      <trkpt lat="43.062343" lon="-0.085420">
        <ele>816.2</ele>
        <time>2018-12-07T11:48:49Z</time>
      </trkpt>
      <trkpt lat="43.062229" lon="-0.085422">
        <ele>817.4</ele>
        <time>2018-12-07T11:48:59Z</time>
      </trkpt>
      <trkpt lat="43.062114" lon="-0.085383">
        <ele>818.5</ele>
        <time>2018-12-07T11:49:10Z</time>
      </trkpt>
      <trkpt lat="43.062002" lon="-0.085320">
        <ele>819.3</ele>
        <time>2018-12-07T11:49:19Z</time>
      </trkpt>
      <trkpt lat="43.061901" lon="-0.085244">
        <ele>820.2</ele>
        <time>2018-12-07T11:49:28Z</time>
      </trkpt>
      <trkpt lat="43.061814" lon="-0.085107">
        <ele>821.3</ele>
        <time>2018-12-07T11:49:39Z</time>
      </trkpt>
      <trkpt lat="43.061704" lon="-0.084992">
        <ele>822.4</ele>
        <time>2018-12-07T11:49:48Z</time>
      </trkpt>
      <trkpt lat="43.061610" lon="-0.084885">
        <ele>823.5</ele>
        <time>2018-12-07T11:49:56Z</time>
      </trkpt>
      <trkpt lat="43.061499" lon="-0.084747">
        <ele>824.8</ele>
        <time>2018-12-07T11:50:06Z</time>
      </trkpt>
      <trkpt lat="43.061431" lon="-0.084693">
        <ele>826.4</ele>
        <time>2018-12-07T11:50:17Z</time>
      </trkpt>
      <trkpt lat="43.061307" lon="-0.084624">
        <ele>827.3</ele>
        <time>2018-12-07T11:50:28Z</time>
      </trkpt>
      <trkpt lat="43.061208" lon="-0.084561">
        <ele>828.0</ele>
        <time>2018-12-07T11:50:35Z</time>
      </trkpt>
      <trkpt lat="43.061131" lon="-0.084468">
        <ele>828.6</ele>
        <time>2018-12-07T11:50:42Z</time>
      </trkpt>
      <trkpt lat="43.061068" lon="-0.084346">
        <ele>828.7</ele>
        <time>2018-12-07T11:50:49Z</time>
      </trkpt>
      <trkpt lat="43.061038" lon="-0.084188">
        <ele>828.9</ele>
        <time>2018-12-07T11:50:56Z</time>
      </trkpt>
      <trkpt lat="43.061042" lon="-0.084031">
        <ele>828.9</ele>
        <time>2018-12-07T11:51:04Z</time>
      </trkpt>
      <trkpt lat="43.061046" lon="-0.083882">
        <ele>828.8</ele>
        <time>2018-12-07T11:51:12Z</time>
      </trkpt>
      <trkpt lat="43.061050" lon="-0.083732">
        <ele>828.4</ele>
        <time>2018-12-07T11:51:19Z</time>
      </trkpt>
      <trkpt lat="43.061011" lon="-0.083605">
        <ele>827.8</ele>
        <time>2018-12-07T11:51:28Z</time>
      </trkpt>
      <trkpt lat="43.060971" lon="-0.083498">
        <ele>827.6</ele>
        <time>2018-12-07T11:51:38Z</time>
      </trkpt>
      <trkpt lat="43.060969" lon="-0.083369">
        <ele>827.4</ele>
        <time>2018-12-07T11:51:44Z</time>
      </trkpt>
      <trkpt lat="43.060952" lon="-0.083254">
        <ele>826.7</ele>
        <time>2018-12-07T11:51:52Z</time>
      </trkpt>
      <trkpt lat="43.060859" lon="-0.083186">
        <ele>826.5</ele>
        <time>2018-12-07T11:52:04Z</time>
      </trkpt>
      <trkpt lat="43.060746" lon="-0.083182">
        <ele>830.2</ele>
        <time>2018-12-07T11:52:24Z</time>
      </trkpt>
      <trkpt lat="43.060640" lon="-0.083183">
        <ele>833.7</ele>
        <time>2018-12-07T11:52:40Z</time>
      </trkpt>
      <trkpt lat="43.060543" lon="-0.083223">
        <ele>837.9</ele>
        <time>2018-12-07T11:53:00Z</time>
      </trkpt>
      <trkpt lat="43.060443" lon="-0.083249">
        <ele>841.4</ele>
        <time>2018-12-07T11:53:18Z</time>
      </trkpt>
      <trkpt lat="43.060359" lon="-0.083263">
        <ele>845.1</ele>
        <time>2018-12-07T11:53:36Z</time>
      </trkpt>
      <trkpt lat="43.060267" lon="-0.083320">
        <ele>849.0</ele>
        <time>2018-12-07T11:53:56Z</time>
      </trkpt>
      <trkpt lat="43.060163" lon="-0.083390">
        <ele>853.2</ele>
        <time>2018-12-07T11:54:19Z</time>
      </trkpt>
      <trkpt lat="43.060093" lon="-0.083373">
        <ele>857.3</ele>
        <time>2018-12-07T11:54:42Z</time>
      </trkpt>
      <trkpt lat="43.059997" lon="-0.083423">
        <ele>860.6</ele>
        <time>2018-12-07T11:55:04Z</time>
      </trkpt>
      <trkpt lat="43.059903" lon="-0.083396">
        <ele>864.3</ele>
        <time>2018-12-07T11:55:26Z</time>
      </trkpt>
      <trkpt lat="43.059800" lon="-0.083369">
        <ele>868.3</ele>
        <time>2018-12-07T11:55:48Z</time>
      </trkpt>
      <trkpt lat="43.059687" lon="-0.083361">
        <ele>872.6</ele>
        <time>2018-12-07T11:56:09Z</time>
      </trkpt>
      <trkpt lat="43.059594" lon="-0.083368">
        <ele>876.4</ele>
        <time>2018-12-07T11:56:30Z</time>
      </trkpt>
      <trkpt lat="43.059510" lon="-0.083397">
        <ele>880.2</ele>
        <time>2018-12-07T11:56:53Z</time>
      </trkpt>
      <trkpt lat="43.059401" lon="-0.083451">
        <ele>884.7</ele>
        <time>2018-12-07T11:57:16Z</time>
      </trkpt>
      <trkpt lat="43.059300" lon="-0.083467">
        <ele>888.3</ele>
        <time>2018-12-07T11:57:37Z</time>
      </trkpt>
      <trkpt lat="43.059216" lon="-0.083371">
        <ele>892.3</ele>
        <time>2018-12-07T11:57:56Z</time>
      </trkpt>
      <trkpt lat="43.059102" lon="-0.083364">
        <ele>897.5</ele>
        <time>2018-12-07T11:58:19Z</time>
      </trkpt>
      <trkpt lat="43.059015" lon="-0.083358">
        <ele>902.3</ele>
        <time>2018-12-07T11:58:41Z</time>
      </trkpt>
      <trkpt lat="43.058930" lon="-0.083366">
        <ele>906.7</ele>
        <time>2018-12-07T11:59:01Z</time>
      </trkpt>
      <trkpt lat="43.058830" lon="-0.083323">
        <ele>909.3</ele>
        <time>2018-12-07T11:59:17Z</time>
      </trkpt>
      <trkpt lat="43.058722" lon="-0.083377">
        <ele>912.6</ele>
        <time>2018-12-07T11:59:34Z</time>
      </trkpt>
      <trkpt lat="43.058635" lon="-0.083425">
        <ele>917.6</ele>
        <time>2018-12-07T12:00:01Z</time>
      </trkpt>
      <trkpt lat="43.058562" lon="-0.083469">
        <ele>920.2</ele>
        <time>2018-12-07T12:00:16Z</time>
      </trkpt>
      <trkpt lat="43.058461" lon="-0.083502">
        <ele>924.1</ele>
        <time>2018-12-07T12:00:36Z</time>
      </trkpt>
      <trkpt lat="43.058383" lon="-0.083567">
        <ele>927.8</ele>
        <time>2018-12-07T12:00:57Z</time>
      </trkpt>
      <trkpt lat="43.058266" lon="-0.083557">
        <ele>933.1</ele>
        <time>2018-12-07T12:01:27Z</time>
      </trkpt>
      <trkpt lat="43.058195" lon="-0.083630">
        <ele>936.5</ele>
        <time>2018-12-07T12:01:47Z</time>
      </trkpt>
      <trkpt lat="43.058093" lon="-0.083589">
        <ele>940.2</ele>
        <time>2018-12-07T12:02:06Z</time>
      </trkpt>
      <trkpt lat="43.057987" lon="-0.083650">
        <ele>945.0</ele>
        <time>2018-12-07T12:02:26Z</time>
      </trkpt>
      <trkpt lat="43.057910" lon="-0.083685">
        <ele>949.6</ele>
        <time>2018-12-07T12:03:00Z</time>
      </trkpt>
      <trkpt lat="43.057830" lon="-0.083761">
        <ele>952.0</ele>
        <time>2018-12-07T12:03:30Z</time>
      </trkpt>
      <trkpt lat="43.057742" lon="-0.083815">
        <ele>956.3</ele>
        <time>2018-12-07T12:03:48Z</time>
      </trkpt>
      <trkpt lat="43.057654" lon="-0.083908">
        <ele>959.8</ele>
        <time>2018-12-07T12:04:05Z</time>
      </trkpt>
      <trkpt lat="43.057549" lon="-0.083981">
        <ele>963.1</ele>
        <time>2018-12-07T12:04:24Z</time>
      </trkpt>
      <trkpt lat="43.057436" lon="-0.084030">
        <ele>966.9</ele>
        <time>2018-12-07T12:04:43Z</time>
      </trkpt>
      <trkpt lat="43.057335" lon="-0.084085">
        <ele>970.4</ele>
        <time>2018-12-07T12:05:02Z</time>
      </trkpt>
      <trkpt lat="43.057251" lon="-0.084141">
        <ele>974.2</ele>
        <time>2018-12-07T12:05:23Z</time>
      </trkpt>
      <trkpt lat="43.057186" lon="-0.084210">
        <ele>978.5</ele>
        <time>2018-12-07T12:05:46Z</time>
      </trkpt>
      <trkpt lat="43.057096" lon="-0.084204">
        <ele>980.8</ele>
        <time>2018-12-07T12:06:01Z</time>
      </trkpt>
      <trkpt lat="43.057026" lon="-0.084180">
        <ele>985.0</ele>
        <time>2018-12-07T12:06:30Z</time>
      </trkpt>
      <trkpt lat="43.056951" lon="-0.084151">
        <ele>987.1</ele>
        <time>2018-12-07T12:07:06Z</time>
      </trkpt>
      <trkpt lat="43.056954" lon="-0.084022">
        <ele>989.8</ele>
        <time>2018-12-07T12:07:30Z</time>
      </trkpt>
      <trkpt lat="43.057005" lon="-0.083871">
        <ele>993.3</ele>
        <time>2018-12-07T12:07:50Z</time>
      </trkpt>
      <trkpt lat="43.057058" lon="-0.083743">
        <ele>996.1</ele>
        <time>2018-12-07T12:08:04Z</time>
      </trkpt>
      <trkpt lat="43.057048" lon="-0.083622">
        <ele>999.7</ele>
        <time>2018-12-07T12:08:22Z</time>
      </trkpt>
      <trkpt lat="43.057054" lon="-0.083474">
        <ele>1001.8</ele>
        <time>2018-12-07T12:08:36Z</time>
      </trkpt>
      <trkpt lat="43.057069" lon="-0.083344">
        <ele>1004.0</ele>
        <time>2018-12-07T12:08:49Z</time>
      </trkpt>
      <trkpt lat="43.057096" lon="-0.083233">
        <ele>1007.7</ele>
        <time>2018-12-07T12:09:08Z</time>
      </trkpt>
      <trkpt lat="43.057111" lon="-0.083149">
        <ele>1010.6</ele>
        <time>2018-12-07T12:09:25Z</time>
      </trkpt>
      <trkpt lat="43.057101" lon="-0.083025">
        <ele>1013.7</ele>
        <time>2018-12-07T12:09:42Z</time>
      </trkpt>
      <trkpt lat="43.057186" lon="-0.082943">
        <ele>1017.2</ele>
        <time>2018-12-07T12:10:00Z</time>
      </trkpt>
      <trkpt lat="43.057251" lon="-0.082834">
        <ele>1020.2</ele>
        <time>2018-12-07T12:10:19Z</time>
      </trkpt>
      <trkpt lat="43.057314" lon="-0.082758">
        <ele>1023.0</ele>
        <time>2018-12-07T12:10:35Z</time>
      </trkpt>
      <trkpt lat="43.057401" lon="-0.082684">
        <ele>1026.3</ele>
        <time>2018-12-07T12:10:54Z</time>
      </trkpt>
      <trkpt lat="43.057476" lon="-0.082601">
        <ele>1029.0</ele>
        <time>2018-12-07T12:11:09Z</time>
      </trkpt>
      <trkpt lat="43.057482" lon="-0.082495">
        <ele>1031.8</ele>
        <time>2018-12-07T12:11:25Z</time>
      </trkpt>
      <trkpt lat="43.057444" lon="-0.082389">
        <ele>1035.4</ele>
        <time>2018-12-07T12:11:43Z</time>
      </trkpt>
      <trkpt lat="43.057408" lon="-0.082296">
        <ele>1039.1</ele>
        <time>2018-12-07T12:11:59Z</time>
      </trkpt>
      <trkpt lat="43.057368" lon="-0.082216">
        <ele>1043.3</ele>
        <time>2018-12-07T12:12:17Z</time>
      </trkpt>
      <trkpt lat="43.057313" lon="-0.082241">
        <ele>1047.9</ele>
        <time>2018-12-07T12:12:43Z</time>
      </trkpt>
      <trkpt lat="43.057224" lon="-0.082236">
        <ele>1050.7</ele>
        <time>2018-12-07T12:13:07Z</time>
      </trkpt>
      <trkpt lat="43.057140" lon="-0.082210">
        <ele>1054.1</ele>
        <time>2018-12-07T12:13:27Z</time>
      </trkpt>
      <trkpt lat="43.057194" lon="-0.082132">
        <ele>1057.4</ele>
        <time>2018-12-07T12:13:47Z</time>
      </trkpt>
      <trkpt lat="43.057203" lon="-0.081995">
        <ele>1060.1</ele>
        <time>2018-12-07T12:14:02Z</time>
      </trkpt>
      <trkpt lat="43.057227" lon="-0.081878">
        <ele>1064.9</ele>
        <time>2018-12-07T12:14:25Z</time>
      </trkpt>
      <trkpt lat="43.057237" lon="-0.081746">
        <ele>1068.2</ele>
        <time>2018-12-07T12:14:42Z</time>
      </trkpt>
      <trkpt lat="43.057308" lon="-0.081646">
        <ele>1071.6</ele>
        <time>2018-12-07T12:14:58Z</time>
      </trkpt>
      <trkpt lat="43.057316" lon="-0.081515">
        <ele>1074.9</ele>
        <time>2018-12-07T12:15:15Z</time>
      </trkpt>
      <trkpt lat="43.057325" lon="-0.081377">
        <ele>1077.4</ele>
        <time>2018-12-07T12:15:32Z</time>
      </trkpt>
      <trkpt lat="43.057348" lon="-0.081250">
        <ele>1080.4</ele>
        <time>2018-12-07T12:15:48Z</time>
      </trkpt>
      <trkpt lat="43.057377" lon="-0.081175">
        <ele>1084.4</ele>
        <time>2018-12-07T12:16:09Z</time>
      </trkpt>
      <trkpt lat="43.057415" lon="-0.081059">
        <ele>1087.0</ele>
        <time>2018-12-07T12:16:29Z</time>
      </trkpt>
      <trkpt lat="43.057432" lon="-0.080915">
        <ele>1090.6</ele>
        <time>2018-12-07T12:16:46Z</time>
      </trkpt>
      <trkpt lat="43.057475" lon="-0.080761">
        <ele>1093.2</ele>
        <time>2018-12-07T12:17:00Z</time>
      </trkpt>
      <trkpt lat="43.057478" lon="-0.080618">
        <ele>1095.8</ele>
        <time>2018-12-07T12:17:14Z</time>
      </trkpt>
      <trkpt lat="43.057548" lon="-0.080517">
        <ele>1098.7</ele>
        <time>2018-12-07T12:17:26Z</time>
      </trkpt>
      <trkpt lat="43.057603" lon="-0.080427">
        <ele>1101.7</ele>
        <time>2018-12-07T12:17:40Z</time>
      </trkpt>
      <trkpt lat="43.057681" lon="-0.080371">
        <ele>1102.2</ele>
        <time>2018-12-07T12:17:51Z</time>
      </trkpt>
      <trkpt lat="43.057731" lon="-0.080250">
        <ele>1102.9</ele>
        <time>2018-12-07T12:18:01Z</time>
      </trkpt>
      <trkpt lat="43.057773" lon="-0.080121">
        <ele>1103.9</ele>
        <time>2018-12-07T12:18:12Z</time>
      </trkpt>
      <trkpt lat="43.057804" lon="-0.080006">
        <ele>1104.8</ele>
        <time>2018-12-07T12:18:21Z</time>
      </trkpt>
      <trkpt lat="43.057817" lon="-0.079874">
        <ele>1105.7</ele>
        <time>2018-12-07T12:18:29Z</time>
      </trkpt>
      <trkpt lat="43.057819" lon="-0.079745">
        <ele>1106.8</ele>
        <time>2018-12-07T12:18:38Z</time>
      </trkpt>
      <trkpt lat="43.057795" lon="-0.079621">
        <ele>1108.2</ele>
        <time>2018-12-07T12:18:50Z</time>
      </trkpt>
      <trkpt lat="43.057730" lon="-0.079680">
        <ele>1111.5</ele>
        <time>2018-12-07T12:20:54Z</time>
      </trkpt>
      <trkpt lat="43.057645" lon="-0.079744">
        <ele>1114.0</ele>
        <time>2018-12-07T12:21:12Z</time>
      </trkpt>
      <trkpt lat="43.057561" lon="-0.079809">
        <ele>1117.5</ele>
        <time>2018-12-07T12:21:29Z</time>
      </trkpt>
      <trkpt lat="43.057488" lon="-0.079909">
        <ele>1120.7</ele>
        <time>2018-12-07T12:21:43Z</time>
      </trkpt>
      <trkpt lat="43.057406" lon="-0.079981">
        <ele>1123.7</ele>
        <time>2018-12-07T12:21:56Z</time>
      </trkpt>
      <trkpt lat="43.057310" lon="-0.080025">
        <ele>1125.9</ele>
        <time>2018-12-07T12:22:08Z</time>
      </trkpt>
      <trkpt lat="43.057251" lon="-0.080074">
        <ele>1128.6</ele>
        <time>2018-12-07T12:22:43Z</time>
      </trkpt>
      <trkpt lat="43.057165" lon="-0.080151">
        <ele>1129.4</ele>
        <time>2018-12-07T12:22:52Z</time>
      </trkpt>
      <trkpt lat="43.057086" lon="-0.080212">
        <ele>1129.4</ele>
        <time>2018-12-07T12:23:01Z</time>
      </trkpt>
      <trkpt lat="43.057009" lon="-0.080303">
        <ele>1131.4</ele>
        <time>2018-12-07T12:23:13Z</time>
      </trkpt>
      <trkpt lat="43.056923" lon="-0.080381">
        <ele>1135.0</ele>
        <time>2018-12-07T12:23:27Z</time>
      </trkpt>
      <trkpt lat="43.056848" lon="-0.080453">
        <ele>1138.0</ele>
        <time>2018-12-07T12:23:39Z</time>
      </trkpt>
      <trkpt lat="43.056783" lon="-0.080554">
        <ele>1139.2</ele>
        <time>2018-12-07T12:23:49Z</time>
      </trkpt>
      <trkpt lat="43.056713" lon="-0.080632">
        <ele>1140.8</ele>
        <time>2018-12-07T12:24:02Z</time>
      </trkpt>
      <trkpt lat="43.056623" lon="-0.080686">
        <ele>1144.3</ele>
        <time>2018-12-07T12:24:17Z</time>
      </trkpt>
      <trkpt lat="43.056532" lon="-0.080726">
        <ele>1145.8</ele>
        <time>2018-12-07T12:24:26Z</time>
      </trkpt>
      <trkpt lat="43.056440" lon="-0.080771">
        <ele>1146.3</ele>
        <time>2018-12-07T12:24:35Z</time>
      </trkpt>
      <trkpt lat="43.056357" lon="-0.080800">
        <ele>1146.9</ele>
        <time>2018-12-07T12:25:07Z</time>
      </trkpt>
      <trkpt lat="43.056275" lon="-0.080877">
        <ele>1148.7</ele>
        <time>2018-12-07T12:26:20Z</time>
      </trkpt>
      <trkpt lat="43.056208" lon="-0.080967">
        <ele>1147.6</ele>
        <time>2018-12-07T12:26:30Z</time>
      </trkpt>
      <trkpt lat="43.056115" lon="-0.080964">
        <ele>1146.7</ele>
        <time>2018-12-07T12:26:37Z</time>
      </trkpt>
      <trkpt lat="43.056027" lon="-0.081005">
        <ele>1146.5</ele>
        <time>2018-12-07T12:26:45Z</time>
      </trkpt>
      <trkpt lat="43.055942" lon="-0.081077">
        <ele>1147.6</ele>
        <time>2018-12-07T12:26:53Z</time>
      </trkpt>
      <trkpt lat="43.055873" lon="-0.081145">
        <ele>1148.2</ele>
        <time>2018-12-07T12:27:00Z</time>
      </trkpt>
      <trkpt lat="43.055783" lon="-0.081177">
        <ele>1148.2</ele>
        <time>2018-12-07T12:27:08Z</time>
      </trkpt>
      <trkpt lat="43.055690" lon="-0.081180">
        <ele>1149.0</ele>
        <time>2018-12-07T12:27:19Z</time>
      </trkpt>
      <trkpt lat="43.055595" lon="-0.081245">
        <ele>1151.3</ele>
        <time>2018-12-07T12:27:43Z</time>
      </trkpt>
      <trkpt lat="43.055513" lon="-0.081307">
        <ele>1154.0</ele>
        <time>2018-12-07T12:27:55Z</time>
      </trkpt>
      <trkpt lat="43.055407" lon="-0.081354">
        <ele>1156.3</ele>
        <time>2018-12-07T12:28:07Z</time>
      </trkpt>
      <trkpt lat="43.055295" lon="-0.081421">
        <ele>1158.3</ele>
        <time>2018-12-07T12:28:23Z</time>
      </trkpt>
      <trkpt lat="43.055165" lon="-0.081508">
        <ele>1161.8</ele>
        <time>2018-12-07T12:28:44Z</time>
      </trkpt>
      <trkpt lat="43.055056" lon="-0.081628">
        <ele>1165.5</ele>
        <time>2018-12-07T12:29:03Z</time>
      </trkpt>
      <trkpt lat="43.054969" lon="-0.081683">
        <ele>1170.3</ele>
        <time>2018-12-07T12:29:26Z</time>
      </trkpt>
      <trkpt lat="43.054857" lon="-0.081712">
        <ele>1174.3</ele>
        <time>2018-12-07T12:29:47Z</time>
      </trkpt>
      <trkpt lat="43.054765" lon="-0.081684">
        <ele>1180.5</ele>
        <time>2018-12-07T12:30:15Z</time>
      </trkpt>
      <trkpt lat="43.054687" lon="-0.081661">
        <ele>1185.0</ele>
        <time>2018-12-07T12:30:39Z</time>
      </trkpt>
      <trkpt lat="43.054591" lon="-0.081690">
        <ele>1191.8</ele>
        <time>2018-12-07T12:31:06Z</time>
      </trkpt>
      <trkpt lat="43.054522" lon="-0.081726">
        <ele>1195.7</ele>
        <time>2018-12-07T12:31:29Z</time>
      </trkpt>
      <trkpt lat="43.054440" lon="-0.081658">
        <ele>1199.8</ele>
        <time>2018-12-07T12:31:51Z</time>
      </trkpt>
      <trkpt lat="43.054353" lon="-0.081678">
        <ele>1204.4</ele>
        <time>2018-12-07T12:32:13Z</time>
      </trkpt>
      <trkpt lat="43.054290" lon="-0.081742">
        <ele>1208.7</ele>
        <time>2018-12-07T12:32:35Z</time>
      </trkpt>
      <trkpt lat="43.054204" lon="-0.081784">
        <ele>1213.5</ele>
        <time>2018-12-07T12:32:58Z</time>
      </trkpt>
      <trkpt lat="43.054102" lon="-0.081838">
        <ele>1218.0</ele>
        <time>2018-12-07T12:33:21Z</time>
      </trkpt>
      <trkpt lat="43.054014" lon="-0.081862">
        <ele>1221.8</ele>
        <time>2018-12-07T12:33:44Z</time>
      </trkpt>
      <trkpt lat="43.053932" lon="-0.081895">
        <ele>1225.1</ele>
        <time>2018-12-07T12:34:02Z</time>
      </trkpt>
      <trkpt lat="43.053851" lon="-0.081932">
        <ele>1229.4</ele>
        <time>2018-12-07T12:34:25Z</time>
      </trkpt>
      <trkpt lat="43.053771" lon="-0.081990">
        <ele>1235.6</ele>
        <time>2018-12-07T12:35:00Z</time>
      </trkpt>
      <trkpt lat="43.053694" lon="-0.082041">
        <ele>1240.1</ele>
        <time>2018-12-07T12:35:24Z</time>
      </trkpt>
      <trkpt lat="43.053653" lon="-0.082087">
        <ele>1244.8</ele>
        <time>2018-12-07T12:36:07Z</time>
      </trkpt>
      <trkpt lat="43.053575" lon="-0.082109">
        <ele>1247.8</ele>
        <time>2018-12-07T12:36:33Z</time>
      </trkpt>
      <trkpt lat="43.053499" lon="-0.082150">
        <ele>1252.0</ele>
        <time>2018-12-07T12:36:59Z</time>
      </trkpt>
      <trkpt lat="43.053404" lon="-0.082150">
        <ele>1257.0</ele>
        <time>2018-12-07T12:37:26Z</time>
      </trkpt>
      <trkpt lat="43.053308" lon="-0.082187">
        <ele>1263.5</ele>
        <time>2018-12-07T12:37:55Z</time>
      </trkpt>
      <trkpt lat="43.053214" lon="-0.082243">
        <ele>1267.8</ele>
        <time>2018-12-07T12:38:17Z</time>
      </trkpt>
      <trkpt lat="43.053133" lon="-0.082183">
        <ele>1273.2</ele>
        <time>2018-12-07T12:38:40Z</time>
      </trkpt>
      <trkpt lat="43.053054" lon="-0.082198">
        <ele>1278.9</ele>
        <time>2018-12-07T12:39:09Z</time>
      </trkpt>
      <trkpt lat="43.052971" lon="-0.082244">
        <ele>1284.2</ele>
        <time>2018-12-07T12:39:33Z</time>
      </trkpt>
      <trkpt lat="43.052887" lon="-0.082228">
        <ele>1289.1</ele>
        <time>2018-12-07T12:39:55Z</time>
      </trkpt>
      <trkpt lat="43.052809" lon="-0.082225">
        <ele>1295.4</ele>
        <time>2018-12-07T12:40:31Z</time>
      </trkpt>
      <trkpt lat="43.052761" lon="-0.082189">
        <ele>1300.2</ele>
        <time>2018-12-07T12:40:54Z</time>
      </trkpt>
      <trkpt lat="43.052700" lon="-0.082154">
        <ele>1303.8</ele>
        <time>2018-12-07T12:41:14Z</time>
      </trkpt>
      <trkpt lat="43.052642" lon="-0.082152">
        <ele>1305.9</ele>
        <time>2018-12-07T12:41:27Z</time>
      </trkpt>
      <trkpt lat="43.052630" lon="-0.082266">
        <ele>1309.6</ele>
        <time>2018-12-07T12:41:46Z</time>
      </trkpt>
      <trkpt lat="43.052620" lon="-0.082360">
        <ele>1314.4</ele>
        <time>2018-12-07T12:42:05Z</time>
      </trkpt>
      <trkpt lat="43.052619" lon="-0.082474">
        <ele>1318.5</ele>
        <time>2018-12-07T12:42:23Z</time>
      </trkpt>
      <trkpt lat="43.052569" lon="-0.082461">
        <ele>1325.4</ele>
        <time>2018-12-07T12:42:51Z</time>
      </trkpt>
      <trkpt lat="43.052485" lon="-0.082370">
        <ele>1324.9</ele>
        <time>2018-12-07T12:43:01Z</time>
      </trkpt>
      <trkpt lat="43.052412" lon="-0.082266">
        <ele>1323.7</ele>
        <time>2018-12-07T12:43:12Z</time>
      </trkpt>
      <trkpt lat="43.052337" lon="-0.082155">
        <ele>1323.0</ele>
        <time>2018-12-07T12:43:30Z</time>
      </trkpt>
      <trkpt lat="43.052259" lon="-0.081955">
        <ele>1322.0</ele>
        <time>2018-12-07T12:43:45Z</time>
      </trkpt>
      <trkpt lat="43.052204" lon="-0.081787">
        <ele>1321.9</ele>
        <time>2018-12-07T12:43:56Z</time>
      </trkpt>
      <trkpt lat="43.052148" lon="-0.081656">
        <ele>1322.0</ele>
        <time>2018-12-07T12:44:09Z</time>
      </trkpt>
      <trkpt lat="43.052114" lon="-0.081473">
        <ele>1321.9</ele>
        <time>2018-12-07T12:44:21Z</time>
      </trkpt>
      <trkpt lat="43.052095" lon="-0.081340">
        <ele>1321.9</ele>
        <time>2018-12-07T12:44:32Z</time>
      </trkpt>
      <trkpt lat="43.052079" lon="-0.081199">
        <ele>1322.5</ele>
        <time>2018-12-07T12:44:44Z</time>
      </trkpt>
      <trkpt lat="43.052016" lon="-0.081080">
        <ele>1323.9</ele>
        <time>2018-12-07T12:44:58Z</time>
      </trkpt>
      <trkpt lat="43.051989" lon="-0.080951">
        <ele>1326.0</ele>
        <time>2018-12-07T12:45:21Z</time>
      </trkpt>
      <trkpt lat="43.051944" lon="-0.080823">
        <ele>1329.9</ele>
        <time>2018-12-07T12:45:38Z</time>
      </trkpt>
      <trkpt lat="43.051911" lon="-0.080738">
        <ele>1332.8</ele>
        <time>2018-12-07T12:46:07Z</time>
      </trkpt>
      <trkpt lat="43.051893" lon="-0.080652">
        <ele>1332.5</ele>
        <time>2018-12-07T12:47:02Z</time>
      </trkpt>
      <trkpt lat="43.051829" lon="-0.080575">
        <ele>1331.5</ele>
        <time>2018-12-07T12:47:12Z</time>
      </trkpt>
      <trkpt lat="43.051862" lon="-0.080648">
        <ele>1332.8</ele>
        <time>2018-12-07T12:50:31Z</time>
      </trkpt>
      <trkpt lat="43.051897" lon="-0.080737">
        <ele>1333.1</ele>
        <time>2018-12-07T12:50:47Z</time>
      </trkpt>
      <trkpt lat="43.051953" lon="-0.081020">
        <ele>1330.2</ele>
        <time>2018-12-07T12:52:13Z</time>
      </trkpt>
      <trkpt lat="43.051958" lon="-0.081188">
        <ele>1327.8</ele>
        <time>2018-12-07T12:52:30Z</time>
      </trkpt>
      <trkpt lat="43.052028" lon="-0.081323">
        <ele>1327.0</ele>
        <time>2018-12-07T12:52:39Z</time>
      </trkpt>
      <trkpt lat="43.052074" lon="-0.081485">
        <ele>1325.9</ele>
        <time>2018-12-07T12:52:51Z</time>
      </trkpt>
      <trkpt lat="43.052084" lon="-0.081660">
        <ele>1326.3</ele>
        <time>2018-12-07T12:53:03Z</time>
      </trkpt>
      <trkpt lat="43.052114" lon="-0.081844">
        <ele>1325.9</ele>
        <time>2018-12-07T12:53:14Z</time>
      </trkpt>
      <trkpt lat="43.052183" lon="-0.081979">
        <ele>1326.2</ele>
        <time>2018-12-07T12:53:27Z</time>
      </trkpt>
      <trkpt lat="43.052201" lon="-0.082114">
        <ele>1324.4</ele>
        <time>2018-12-07T12:53:50Z</time>
      </trkpt>
      <trkpt lat="43.052235" lon="-0.082281">
        <ele>1323.3</ele>
        <time>2018-12-07T12:54:03Z</time>
      </trkpt>
      <trkpt lat="43.052202" lon="-0.082463">
        <ele>1321.7</ele>
        <time>2018-12-07T12:54:14Z</time>
      </trkpt>
      <trkpt lat="43.052222" lon="-0.082646">
        <ele>1320.3</ele>
        <time>2018-12-07T12:54:25Z</time>
      </trkpt>
      <trkpt lat="43.052256" lon="-0.082817">
        <ele>1318.6</ele>
        <time>2018-12-07T12:54:37Z</time>
      </trkpt>
      <trkpt lat="43.052310" lon="-0.083019">
        <ele>1317.1</ele>
        <time>2018-12-07T12:54:49Z</time>
      </trkpt>
      <trkpt lat="43.052292" lon="-0.083218">
        <ele>1314.6</ele>
        <time>2018-12-07T12:55:03Z</time>
      </trkpt>
      <trkpt lat="43.052308" lon="-0.083331">
        <ele>1312.2</ele>
        <time>2018-12-07T12:55:20Z</time>
      </trkpt>
      <trkpt lat="43.052334" lon="-0.083511">
        <ele>1312.2</ele>
        <time>2018-12-07T12:55:32Z</time>
      </trkpt>
      <trkpt lat="43.052353" lon="-0.083651">
        <ele>1311.7</ele>
        <time>2018-12-07T12:55:42Z</time>
      </trkpt>
      <trkpt lat="43.052377" lon="-0.083809">
        <ele>1311.4</ele>
        <time>2018-12-07T12:55:51Z</time>
      </trkpt>
      <trkpt lat="43.052393" lon="-0.083955">
        <ele>1311.1</ele>
        <time>2018-12-07T12:56:00Z</time>
      </trkpt>
      <trkpt lat="43.052406" lon="-0.084116">
        <ele>1311.4</ele>
        <time>2018-12-07T12:56:10Z</time>
      </trkpt>
      <trkpt lat="43.052421" lon="-0.084238">
        <ele>1311.7</ele>
        <time>2018-12-07T12:56:28Z</time>
      </trkpt>
      <trkpt lat="43.052416" lon="-0.084383">
        <ele>1311.6</ele>
        <time>2018-12-07T12:56:37Z</time>
      </trkpt>
      <trkpt lat="43.052412" lon="-0.084520">
        <ele>1311.6</ele>
        <time>2018-12-07T12:56:45Z</time>
      </trkpt>
      <trkpt lat="43.052385" lon="-0.084654">
        <ele>1311.7</ele>
        <time>2018-12-07T12:56:53Z</time>
      </trkpt>
      <trkpt lat="43.052370" lon="-0.084790">
        <ele>1311.5</ele>
        <time>2018-12-07T12:57:01Z</time>
      </trkpt>
      <trkpt lat="43.052360" lon="-0.084930">
        <ele>1311.8</ele>
        <time>2018-12-07T12:57:10Z</time>
      </trkpt>
      <trkpt lat="43.052350" lon="-0.085073">
        <ele>1312.2</ele>
        <time>2018-12-07T12:57:18Z</time>
      </trkpt>
      <trkpt lat="43.052352" lon="-0.085211">
        <ele>1313.5</ele>
        <time>2018-12-07T12:57:26Z</time>
      </trkpt>
      <trkpt lat="43.052345" lon="-0.085344">
        <ele>1314.8</ele>
        <time>2018-12-07T12:57:34Z</time>
      </trkpt>
      <trkpt lat="43.052316" lon="-0.085486">
        <ele>1315.6</ele>
        <time>2018-12-07T12:57:43Z</time>
      </trkpt>
      <trkpt lat="43.052293" lon="-0.085621">
        <ele>1316.5</ele>
        <time>2018-12-07T12:57:51Z</time>
      </trkpt>
      <trkpt lat="43.052270" lon="-0.085765">
        <ele>1316.1</ele>
        <time>2018-12-07T12:57:59Z</time>
      </trkpt>
      <trkpt lat="43.052263" lon="-0.085911">
        <ele>1315.6</ele>
        <time>2018-12-07T12:58:07Z</time>
      </trkpt>
      <trkpt lat="43.052277" lon="-0.086033">
        <ele>1316.4</ele>
        <time>2018-12-07T12:58:16Z</time>
      </trkpt>
      <trkpt lat="43.052292" lon="-0.086163">
        <ele>1317.6</ele>
        <time>2018-12-07T12:58:24Z</time>
      </trkpt>
      <trkpt lat="43.052283" lon="-0.086288">
        <ele>1318.9</ele>
        <time>2018-12-07T12:58:33Z</time>
      </trkpt>
      <trkpt lat="43.052259" lon="-0.086409">
        <ele>1319.4</ele>
        <time>2018-12-07T12:58:41Z</time>
      </trkpt>
      <trkpt lat="43.052225" lon="-0.086530">
        <ele>1319.0</ele>
        <time>2018-12-07T12:58:48Z</time>
      </trkpt>
      <trkpt lat="43.052195" lon="-0.086660">
        <ele>1318.3</ele>
        <time>2018-12-07T12:58:56Z</time>
      </trkpt>
      <trkpt lat="43.052165" lon="-0.086789">
        <ele>1319.4</ele>
        <time>2018-12-07T12:59:04Z</time>
      </trkpt>
      <trkpt lat="43.052138" lon="-0.086917">
        <ele>1321.6</ele>
        <time>2018-12-07T12:59:13Z</time>
      </trkpt>
      <trkpt lat="43.052112" lon="-0.087049">
        <ele>1322.2</ele>
        <time>2018-12-07T12:59:23Z</time>
      </trkpt>
      <trkpt lat="43.052074" lon="-0.087174">
        <ele>1322.6</ele>
        <time>2018-12-07T12:59:32Z</time>
      </trkpt>
      <trkpt lat="43.052057" lon="-0.087299">
        <ele>1323.1</ele>
        <time>2018-12-07T12:59:40Z</time>
      </trkpt>
      <trkpt lat="43.052017" lon="-0.087424">
        <ele>1323.7</ele>
        <time>2018-12-07T12:59:48Z</time>
      </trkpt>
      <trkpt lat="43.051986" lon="-0.087558">
        <ele>1323.5</ele>
        <time>2018-12-07T12:59:56Z</time>
      </trkpt>
      <trkpt lat="43.051969" lon="-0.087712">
        <ele>1323.9</ele>
        <time>2018-12-07T13:00:06Z</time>
      </trkpt>
      <trkpt lat="43.051971" lon="-0.087883">
        <ele>1325.3</ele>
        <time>2018-12-07T13:00:19Z</time>
      </trkpt>
      <trkpt lat="43.051949" lon="-0.088085">
        <ele>1329.0</ele>
        <time>2018-12-07T13:00:34Z</time>
      </trkpt>
      <trkpt lat="43.051896" lon="-0.088320">
        <ele>1329.9</ele>
        <time>2018-12-07T13:00:50Z</time>
      </trkpt>
      <trkpt lat="43.051865" lon="-0.088512">
        <ele>1329.4</ele>
        <time>2018-12-07T13:01:02Z</time>
      </trkpt>
      <trkpt lat="43.051797" lon="-0.088702">
        <ele>1329.1</ele>
        <time>2018-12-07T13:01:13Z</time>
      </trkpt>
      <trkpt lat="43.051741" lon="-0.088877">
        <ele>1330.2</ele>
        <time>2018-12-07T13:01:24Z</time>
      </trkpt>
      <trkpt lat="43.051714" lon="-0.089060">
        <ele>1330.6</ele>
        <time>2018-12-07T13:01:36Z</time>
      </trkpt>
      <trkpt lat="43.051653" lon="-0.089232">
        <ele>1331.1</ele>
        <time>2018-12-07T13:01:48Z</time>
      </trkpt>
      <trkpt lat="43.051615" lon="-0.089366">
        <ele>1331.5</ele>
        <time>2018-12-07T13:01:59Z</time>
      </trkpt>
      <trkpt lat="43.051555" lon="-0.089477">
        <ele>1332.3</ele>
        <time>2018-12-07T13:02:26Z</time>
      </trkpt>
      <trkpt lat="43.051562" lon="-0.089506">
        <ele>1332.6</ele>
        <time>2018-12-07T13:02:56Z</time>
      </trkpt>
      <trkpt lat="43.051505" lon="-0.089717">
        <ele>1332.9</ele>
        <time>2018-12-07T13:03:15Z</time>
      </trkpt>
      <trkpt lat="43.051406" lon="-0.089934">
        <ele>1334.0</ele>
        <time>2018-12-07T13:03:29Z</time>
      </trkpt>
      <trkpt lat="43.051363" lon="-0.090150">
        <ele>1335.1</ele>
        <time>2018-12-07T13:03:41Z</time>
      </trkpt>
      <trkpt lat="43.051284" lon="-0.090344">
        <ele>1336.5</ele>
        <time>2018-12-07T13:03:55Z</time>
      </trkpt>
      <trkpt lat="43.051216" lon="-0.090517">
        <ele>1338.7</ele>
        <time>2018-12-07T13:04:08Z</time>
      </trkpt>
      <trkpt lat="43.051205" lon="-0.090652">
        <ele>1341.1</ele>
        <time>2018-12-07T13:04:23Z</time>
      </trkpt>
      <trkpt lat="43.051186" lon="-0.090857">
        <ele>1342.7</ele>
        <time>2018-12-07T13:04:34Z</time>
      </trkpt>
      <trkpt lat="43.051157" lon="-0.091029">
        <ele>1342.8</ele>
        <time>2018-12-07T13:04:42Z</time>
      </trkpt>
      <trkpt lat="43.051153" lon="-0.091176">
        <ele>1342.8</ele>
        <time>2018-12-07T13:04:51Z</time>
      </trkpt>
      <trkpt lat="43.051126" lon="-0.091346">
        <ele>1342.5</ele>
        <time>2018-12-07T13:04:59Z</time>
      </trkpt>
      <trkpt lat="43.051138" lon="-0.091477">
        <ele>1342.6</ele>
        <time>2018-12-07T13:05:09Z</time>
      </trkpt>
      <trkpt lat="43.051116" lon="-0.091546">
        <ele>1342.4</ele>
        <time>2018-12-07T13:05:28Z</time>
      </trkpt>
      <trkpt lat="43.051052" lon="-0.091640">
        <ele>1343.6</ele>
        <time>2018-12-07T13:05:39Z</time>
      </trkpt>
      <trkpt lat="43.050995" lon="-0.091785">
        <ele>1344.7</ele>
        <time>2018-12-07T13:05:47Z</time>
      </trkpt>
      <trkpt lat="43.050943" lon="-0.091927">
        <ele>1345.7</ele>
        <time>2018-12-07T13:05:57Z</time>
      </trkpt>
      <trkpt lat="43.050911" lon="-0.092054">
        <ele>1346.8</ele>
        <time>2018-12-07T13:06:08Z</time>
      </trkpt>
      <trkpt lat="43.050895" lon="-0.092243">
        <ele>1348.6</ele>
        <time>2018-12-07T13:06:23Z</time>
      </trkpt>
      <trkpt lat="43.050869" lon="-0.092433">
        <ele>1351.3</ele>
        <time>2018-12-07T13:06:39Z</time>
      </trkpt>
      <trkpt lat="43.050827" lon="-0.092667">
        <ele>1353.8</ele>
        <time>2018-12-07T13:06:55Z</time>
      </trkpt>
      <trkpt lat="43.050765" lon="-0.092870">
        <ele>1356.8</ele>
        <time>2018-12-07T13:07:15Z</time>
      </trkpt>
      <trkpt lat="43.050658" lon="-0.093056">
        <ele>1358.2</ele>
        <time>2018-12-07T13:07:32Z</time>
      </trkpt>
      <trkpt lat="43.050594" lon="-0.093216">
        <ele>1361.0</ele>
        <time>2018-12-07T13:07:48Z</time>
      </trkpt>
      <trkpt lat="43.050510" lon="-0.093392">
        <ele>1364.4</ele>
        <time>2018-12-07T13:08:08Z</time>
      </trkpt>
      <trkpt lat="43.050483" lon="-0.093522">
        <ele>1368.0</ele>
        <time>2018-12-07T13:08:25Z</time>
      </trkpt>
      <trkpt lat="43.050428" lon="-0.093687">
        <ele>1370.6</ele>
        <time>2018-12-07T13:08:43Z</time>
      </trkpt>
      <trkpt lat="43.050384" lon="-0.093830">
        <ele>1373.6</ele>
        <time>2018-12-07T13:09:03Z</time>
      </trkpt>
      <trkpt lat="43.050242" lon="-0.093918">
        <ele>1373.7</ele>
        <time>2018-12-07T13:09:18Z</time>
      </trkpt>
      <trkpt lat="43.050099" lon="-0.093959">
        <ele>1374.0</ele>
        <time>2018-12-07T13:09:31Z</time>
      </trkpt>
      <trkpt lat="43.049954" lon="-0.094045">
        <ele>1373.1</ele>
        <time>2018-12-07T13:09:45Z</time>
      </trkpt>
      <trkpt lat="43.049833" lon="-0.094162">
        <ele>1372.6</ele>
        <time>2018-12-07T13:09:58Z</time>
      </trkpt>
      <trkpt lat="43.049675" lon="-0.094205">
        <ele>1372.4</ele>
        <time>2018-12-07T13:10:08Z</time>
      </trkpt>
      <trkpt lat="43.049537" lon="-0.094222">
        <ele>1373.8</ele>
        <time>2018-12-07T13:10:21Z</time>
      </trkpt>
      <trkpt lat="43.049383" lon="-0.094176">
        <ele>1374.8</ele>
        <time>2018-12-07T13:10:34Z</time>
      </trkpt>
      <trkpt lat="43.049268" lon="-0.094235">
        <ele>1374.9</ele>
        <time>2018-12-07T13:10:47Z</time>
      </trkpt>
      <trkpt lat="43.049124" lon="-0.094327">
        <ele>1376.7</ele>
        <time>2018-12-07T13:11:02Z</time>
      </trkpt>
      <trkpt lat="43.048973" lon="-0.094374">
        <ele>1379.2</ele>
        <time>2018-12-07T13:11:16Z</time>
      </trkpt>
      <trkpt lat="43.048870" lon="-0.094497">
        <ele>1383.5</ele>
        <time>2018-12-07T13:11:35Z</time>
      </trkpt>
      <trkpt lat="43.048798" lon="-0.094620">
        <ele>1387.2</ele>
        <time>2018-12-07T13:11:53Z</time>
      </trkpt>
      <trkpt lat="43.048651" lon="-0.094831">
        <ele>1389.2</ele>
        <time>2018-12-07T13:12:10Z</time>
      </trkpt>
      <trkpt lat="43.048540" lon="-0.094929">
        <ele>1392.5</ele>
        <time>2018-12-07T13:12:27Z</time>
      </trkpt>
      <trkpt lat="43.048430" lon="-0.095046">
        <ele>1396.4</ele>
        <time>2018-12-07T13:12:48Z</time>
      </trkpt>
      <trkpt lat="43.048370" lon="-0.095151">
        <ele>1400.6</ele>
        <time>2018-12-07T13:13:07Z</time>
      </trkpt>
      <trkpt lat="43.048258" lon="-0.095221">
        <ele>1403.5</ele>
        <time>2018-12-07T13:13:25Z</time>
      </trkpt>
      <trkpt lat="43.048261" lon="-0.095378">
        <ele>1406.9</ele>
        <time>2018-12-07T13:13:41Z</time>
      </trkpt>
      <trkpt lat="43.048201" lon="-0.095441">
        <ele>1409.1</ele>
        <time>2018-12-07T13:14:06Z</time>
      </trkpt>
      <trkpt lat="43.048169" lon="-0.095512">
        <ele>1409.4</ele>
        <time>2018-12-07T13:14:45Z</time>
      </trkpt>
      <trkpt lat="43.048076" lon="-0.095595">
        <ele>1410.7</ele>
        <time>2018-12-07T13:15:01Z</time>
      </trkpt>
      <trkpt lat="43.048020" lon="-0.095630">
        <ele>1412.5</ele>
        <time>2018-12-07T13:18:32Z</time>
      </trkpt>
      <trkpt lat="43.048008" lon="-0.095787">
        <ele>1412.5</ele>
        <time>2018-12-07T13:19:12Z</time>
      </trkpt>
      <trkpt lat="43.047984" lon="-0.095938">
        <ele>1410.9</ele>
        <time>2018-12-07T13:19:21Z</time>
      </trkpt>
      <trkpt lat="43.047952" lon="-0.096081">
        <ele>1410.2</ele>
        <time>2018-12-07T13:19:31Z</time>
      </trkpt>
      <trkpt lat="43.047948" lon="-0.096226">
        <ele>1410.5</ele>
        <time>2018-12-07T13:19:38Z</time>
      </trkpt>
      <trkpt lat="43.047935" lon="-0.096259">
        <ele>1409.6</ele>
        <time>2018-12-07T13:20:15Z</time>
      </trkpt>
      <trkpt lat="43.047901" lon="-0.096420">
        <ele>1408.3</ele>
        <time>2018-12-07T13:20:33Z</time>
      </trkpt>
      <trkpt lat="43.047884" lon="-0.096544">
        <ele>1407.6</ele>
        <time>2018-12-07T13:20:43Z</time>
      </trkpt>
      <trkpt lat="43.047855" lon="-0.096690">
        <ele>1407.0</ele>
        <time>2018-12-07T13:20:59Z</time>
      </trkpt>
      <trkpt lat="43.047808" lon="-0.096792">
        <ele>1406.1</ele>
        <time>2018-12-07T13:21:07Z</time>
      </trkpt>
      <trkpt lat="43.047785" lon="-0.096917">
        <ele>1405.0</ele>
        <time>2018-12-07T13:21:16Z</time>
      </trkpt>
      <trkpt lat="43.047746" lon="-0.097022">
        <ele>1402.9</ele>
        <time>2018-12-07T13:21:31Z</time>
      </trkpt>
      <trkpt lat="43.047699" lon="-0.097142">
        <ele>1402.3</ele>
        <time>2018-12-07T13:21:45Z</time>
      </trkpt>
      <trkpt lat="43.047670" lon="-0.097255">
        <ele>1397.7</ele>
        <time>2018-12-07T13:22:08Z</time>
      </trkpt>
      <trkpt lat="43.047617" lon="-0.097393">
        <ele>1394.2</ele>
        <time>2018-12-07T13:22:21Z</time>
      </trkpt>
      <trkpt lat="43.047576" lon="-0.097514">
        <ele>1392.1</ele>
        <time>2018-12-07T13:23:00Z</time>
      </trkpt>
      <trkpt lat="43.047514" lon="-0.097589">
        <ele>1388.4</ele>
        <time>2018-12-07T13:23:16Z</time>
      </trkpt>
      <trkpt lat="43.047452" lon="-0.097682">
        <ele>1383.2</ele>
        <time>2018-12-07T13:23:43Z</time>
      </trkpt>
      <trkpt lat="43.047426" lon="-0.097803">
        <ele>1380.7</ele>
        <time>2018-12-07T13:24:02Z</time>
      </trkpt>
      <trkpt lat="43.047444" lon="-0.097922">
        <ele>1377.2</ele>
        <time>2018-12-07T13:24:19Z</time>
      </trkpt>
      <trkpt lat="43.047400" lon="-0.098069">
        <ele>1374.6</ele>
        <time>2018-12-07T13:24:35Z</time>
      </trkpt>
      <trkpt lat="43.047376" lon="-0.098189">
        <ele>1372.8</ele>
        <time>2018-12-07T13:24:52Z</time>
      </trkpt>
      <trkpt lat="43.047344" lon="-0.098304">
        <ele>1367.7</ele>
        <time>2018-12-07T13:25:14Z</time>
      </trkpt>
      <trkpt lat="43.047311" lon="-0.098447">
        <ele>1364.5</ele>
        <time>2018-12-07T13:25:29Z</time>
      </trkpt>
      <trkpt lat="43.047271" lon="-0.098581">
        <ele>1361.2</ele>
        <time>2018-12-07T13:25:43Z</time>
      </trkpt>
      <trkpt lat="43.047274" lon="-0.098718">
        <ele>1357.8</ele>
        <time>2018-12-07T13:25:56Z</time>
      </trkpt>
      <trkpt lat="43.047233" lon="-0.098812">
        <ele>1355.3</ele>
        <time>2018-12-07T13:26:07Z</time>
      </trkpt>
      <trkpt lat="43.047222" lon="-0.098927">
        <ele>1351.6</ele>
        <time>2018-12-07T13:26:24Z</time>
      </trkpt>
      <trkpt lat="43.047183" lon="-0.099040">
        <ele>1348.1</ele>
        <time>2018-12-07T13:26:38Z</time>
      </trkpt>
      <trkpt lat="43.047138" lon="-0.099158">
        <ele>1346.0</ele>
        <time>2018-12-07T13:26:50Z</time>
      </trkpt>
      <trkpt lat="43.047086" lon="-0.099262">
        <ele>1342.9</ele>
        <time>2018-12-07T13:27:04Z</time>
      </trkpt>
      <trkpt lat="43.047027" lon="-0.099367">
        <ele>1338.9</ele>
        <time>2018-12-07T13:27:21Z</time>
      </trkpt>
      <trkpt lat="43.047020" lon="-0.099506">
        <ele>1335.0</ele>
        <time>2018-12-07T13:27:38Z</time>
      </trkpt>
      <trkpt lat="43.046989" lon="-0.099640">
        <ele>1330.2</ele>
        <time>2018-12-07T13:27:53Z</time>
      </trkpt>
      <trkpt lat="43.046942" lon="-0.099808">
        <ele>1326.9</ele>
        <time>2018-12-07T13:28:07Z</time>
      </trkpt>
      <trkpt lat="43.046876" lon="-0.099963">
        <ele>1325.4</ele>
        <time>2018-12-07T13:28:17Z</time>
      </trkpt>
      <trkpt lat="43.046793" lon="-0.100070">
        <ele>1324.9</ele>
        <time>2018-12-07T13:28:30Z</time>
      </trkpt>
      <trkpt lat="43.046739" lon="-0.100162">
        <ele>1324.4</ele>
        <time>2018-12-07T13:28:40Z</time>
      </trkpt>
      <trkpt lat="43.046732" lon="-0.100306">
        <ele>1323.7</ele>
        <time>2018-12-07T13:28:51Z</time>
      </trkpt>
      <trkpt lat="43.046702" lon="-0.100460">
        <ele>1321.0</ele>
        <time>2018-12-07T13:29:05Z</time>
      </trkpt>
      <trkpt lat="43.046699" lon="-0.100607">
        <ele>1319.3</ele>
        <time>2018-12-07T13:29:16Z</time>
      </trkpt>
      <trkpt lat="43.046675" lon="-0.100725">
        <ele>1317.1</ele>
        <time>2018-12-07T13:29:27Z</time>
      </trkpt>
      <trkpt lat="43.046705" lon="-0.100861">
        <ele>1316.1</ele>
        <time>2018-12-07T13:29:40Z</time>
      </trkpt>
      <trkpt lat="43.046740" lon="-0.101025">
        <ele>1316.0</ele>
        <time>2018-12-07T13:29:52Z</time>
      </trkpt>
      <trkpt lat="43.046791" lon="-0.101129">
        <ele>1316.0</ele>
        <time>2018-12-07T13:30:02Z</time>
      </trkpt>
      <trkpt lat="43.046788" lon="-0.101287">
        <ele>1316.8</ele>
        <time>2018-12-07T13:30:33Z</time>
      </trkpt>
      <trkpt lat="43.046770" lon="-0.101408">
        <ele>1317.2</ele>
        <time>2018-12-07T13:30:49Z</time>
      </trkpt>
      <trkpt lat="43.046761" lon="-0.101551">
        <ele>1316.4</ele>
        <time>2018-12-07T13:31:07Z</time>
      </trkpt>
      <trkpt lat="43.046730" lon="-0.101687">
        <ele>1313.8</ele>
        <time>2018-12-07T13:31:26Z</time>
      </trkpt>
      <trkpt lat="43.046690" lon="-0.101829">
        <ele>1312.4</ele>
        <time>2018-12-07T13:31:35Z</time>
      </trkpt>
      <trkpt lat="43.046670" lon="-0.101978">
        <ele>1311.1</ele>
        <time>2018-12-07T13:31:53Z</time>
      </trkpt>
      <trkpt lat="43.046641" lon="-0.102123">
        <ele>1310.9</ele>
        <time>2018-12-07T13:32:04Z</time>
      </trkpt>
      <trkpt lat="43.046614" lon="-0.102281">
        <ele>1310.5</ele>
        <time>2018-12-07T13:32:18Z</time>
      </trkpt>
      <trkpt lat="43.046579" lon="-0.102421">
        <ele>1310.4</ele>
        <time>2018-12-07T13:32:32Z</time>
      </trkpt>
      <trkpt lat="43.046573" lon="-0.102563">
        <ele>1310.8</ele>
        <time>2018-12-07T13:32:46Z</time>
      </trkpt>
      <trkpt lat="43.046590" lon="-0.102682">
        <ele>1313.3</ele>
        <time>2018-12-07T13:33:02Z</time>
      </trkpt>
      <trkpt lat="43.046589" lon="-0.102798">
        <ele>1316.0</ele>
        <time>2018-12-07T13:33:23Z</time>
      </trkpt>
      <trkpt lat="43.046581" lon="-0.102895">
        <ele>1322.2</ele>
        <time>2018-12-07T13:34:36Z</time>
      </trkpt>
      <trkpt lat="43.046596" lon="-0.103025">
        <ele>1324.5</ele>
        <time>2018-12-07T13:34:54Z</time>
      </trkpt>
      <trkpt lat="43.046583" lon="-0.103146">
        <ele>1324.4</ele>
        <time>2018-12-07T13:35:07Z</time>
      </trkpt>
      <trkpt lat="43.046577" lon="-0.103278">
        <ele>1322.4</ele>
        <time>2018-12-07T13:35:19Z</time>
      </trkpt>
      <trkpt lat="43.046580" lon="-0.103396">
        <ele>1320.6</ele>
        <time>2018-12-07T13:35:27Z</time>
      </trkpt>
      <trkpt lat="43.046551" lon="-0.103522">
        <ele>1319.9</ele>
        <time>2018-12-07T13:35:41Z</time>
      </trkpt>
      <trkpt lat="43.046573" lon="-0.103656">
        <ele>1322.6</ele>
        <time>2018-12-07T13:35:55Z</time>
      </trkpt>
      <trkpt lat="43.046591" lon="-0.103807">
        <ele>1324.2</ele>
        <time>2018-12-07T13:36:07Z</time>
      </trkpt>
      <trkpt lat="43.046588" lon="-0.103925">
        <ele>1325.5</ele>
        <time>2018-12-07T13:37:02Z</time>
      </trkpt>
      <trkpt lat="43.046586" lon="-0.104053">
        <ele>1326.9</ele>
        <time>2018-12-07T13:37:19Z</time>
      </trkpt>
      <trkpt lat="43.046594" lon="-0.104167">
        <ele>1328.5</ele>
        <time>2018-12-07T13:37:34Z</time>
      </trkpt>
      <trkpt lat="43.046562" lon="-0.104276">
        <ele>1330.9</ele>
        <time>2018-12-07T13:37:49Z</time>
      </trkpt>
      <trkpt lat="43.046532" lon="-0.104391">
        <ele>1332.2</ele>
        <time>2018-12-07T13:37:58Z</time>
      </trkpt>
      <trkpt lat="43.046536" lon="-0.104518">
        <ele>1333.5</ele>
        <time>2018-12-07T13:38:16Z</time>
      </trkpt>
      <trkpt lat="43.046545" lon="-0.104642">
        <ele>1336.2</ele>
        <time>2018-12-07T13:38:31Z</time>
      </trkpt>
      <trkpt lat="43.046526" lon="-0.104749">
        <ele>1338.3</ele>
        <time>2018-12-07T13:38:45Z</time>
      </trkpt>
      <trkpt lat="43.046524" lon="-0.104868">
        <ele>1339.7</ele>
        <time>2018-12-07T13:38:58Z</time>
      </trkpt>
      <trkpt lat="43.046508" lon="-0.104992">
        <ele>1339.7</ele>
        <time>2018-12-07T13:39:09Z</time>
      </trkpt>
      <trkpt lat="43.046525" lon="-0.105129">
        <ele>1338.4</ele>
        <time>2018-12-07T13:39:21Z</time>
      </trkpt>
      <trkpt lat="43.046491" lon="-0.105254">
        <ele>1338.5</ele>
        <time>2018-12-07T13:39:33Z</time>
      </trkpt>
      <trkpt lat="43.046442" lon="-0.105393">
        <ele>1336.4</ele>
        <time>2018-12-07T13:39:45Z</time>
      </trkpt>
      <trkpt lat="43.046421" lon="-0.105519">
        <ele>1335.1</ele>
        <time>2018-12-07T13:39:57Z</time>
      </trkpt>
      <trkpt lat="43.046388" lon="-0.105646">
        <ele>1334.1</ele>
        <time>2018-12-07T13:40:07Z</time>
      </trkpt>
      <trkpt lat="43.046364" lon="-0.105746">
        <ele>1334.6</ele>
        <time>2018-12-07T13:40:16Z</time>
      </trkpt>
      <trkpt lat="43.046365" lon="-0.105884">
        <ele>1335.5</ele>
        <time>2018-12-07T13:40:31Z</time>
      </trkpt>
      <trkpt lat="43.046338" lon="-0.106020">
        <ele>1335.6</ele>
        <time>2018-12-07T13:40:48Z</time>
      </trkpt>
      <trkpt lat="43.046317" lon="-0.106133">
        <ele>1338.5</ele>
        <time>2018-12-07T13:41:32Z</time>
      </trkpt>
      <trkpt lat="43.046287" lon="-0.106271">
        <ele>1339.3</ele>
        <time>2018-12-07T13:41:46Z</time>
      </trkpt>
      <trkpt lat="43.046282" lon="-0.106419">
        <ele>1340.1</ele>
        <time>2018-12-07T13:42:00Z</time>
      </trkpt>
      <trkpt lat="43.046286" lon="-0.106568">
        <ele>1341.9</ele>
        <time>2018-12-07T13:42:14Z</time>
      </trkpt>
      <trkpt lat="43.046279" lon="-0.106708">
        <ele>1343.9</ele>
        <time>2018-12-07T13:42:31Z</time>
      </trkpt>
      <trkpt lat="43.046250" lon="-0.106841">
        <ele>1347.8</ele>
        <time>2018-12-07T13:42:51Z</time>
      </trkpt>
      <trkpt lat="43.046198" lon="-0.106937">
        <ele>1348.2</ele>
        <time>2018-12-07T13:43:19Z</time>
      </trkpt>
      <trkpt lat="43.046164" lon="-0.107053">
        <ele>1347.1</ele>
        <time>2018-12-07T13:43:34Z</time>
      </trkpt>
      <trkpt lat="43.046133" lon="-0.107198">
        <ele>1347.7</ele>
        <time>2018-12-07T13:43:50Z</time>
      </trkpt>
      <trkpt lat="43.046109" lon="-0.107387">
        <ele>1347.8</ele>
        <time>2018-12-07T13:44:05Z</time>
      </trkpt>
      <trkpt lat="43.046063" lon="-0.107539">
        <ele>1348.5</ele>
        <time>2018-12-07T13:44:18Z</time>
      </trkpt>
      <trkpt lat="43.046024" lon="-0.107695">
        <ele>1350.6</ele>
        <time>2018-12-07T13:44:35Z</time>
      </trkpt>
      <trkpt lat="43.045996" lon="-0.107844">
        <ele>1353.6</ele>
        <time>2018-12-07T13:44:51Z</time>
      </trkpt>
      <trkpt lat="43.045986" lon="-0.107983">
        <ele>1355.1</ele>
        <time>2018-12-07T13:45:06Z</time>
      </trkpt>
      <trkpt lat="43.045979" lon="-0.108130">
        <ele>1357.1</ele>
        <time>2018-12-07T13:45:21Z</time>
      </trkpt>
      <trkpt lat="43.045927" lon="-0.108242">
        <ele>1358.9</ele>
        <time>2018-12-07T13:45:33Z</time>
      </trkpt>
      <trkpt lat="43.045899" lon="-0.108378">
        <ele>1359.4</ele>
        <time>2018-12-07T13:45:45Z</time>
      </trkpt>
      <trkpt lat="43.045878" lon="-0.108503">
        <ele>1361.6</ele>
        <time>2018-12-07T13:45:58Z</time>
      </trkpt>
      <trkpt lat="43.045872" lon="-0.108659">
        <ele>1364.8</ele>
        <time>2018-12-07T13:46:13Z</time>
      </trkpt>
      <trkpt lat="43.045873" lon="-0.108788">
        <ele>1368.6</ele>
        <time>2018-12-07T13:46:32Z</time>
      </trkpt>
      <trkpt lat="43.045872" lon="-0.108932">
        <ele>1372.3</ele>
        <time>2018-12-07T13:46:54Z</time>
      </trkpt>
      <trkpt lat="43.045855" lon="-0.109060">
        <ele>1375.0</ele>
        <time>2018-12-07T13:47:16Z</time>
      </trkpt>
      <trkpt lat="43.045832" lon="-0.109172">
        <ele>1379.4</ele>
        <time>2018-12-07T13:47:42Z</time>
      </trkpt>
      <trkpt lat="43.045836" lon="-0.109309">
        <ele>1384.1</ele>
        <time>2018-12-07T13:48:01Z</time>
      </trkpt>
      <trkpt lat="43.045834" lon="-0.109438">
        <ele>1386.9</ele>
        <time>2018-12-07T13:48:14Z</time>
      </trkpt>
      <trkpt lat="43.045814" lon="-0.109576">
        <ele>1388.8</ele>
        <time>2018-12-07T13:48:30Z</time>
      </trkpt>
      <trkpt lat="43.045789" lon="-0.109634">
        <ele>1388.5</ele>
        <time>2018-12-07T13:49:09Z</time>
      </trkpt>
      <trkpt lat="43.045741" lon="-0.109746">
        <ele>1387.8</ele>
        <time>2018-12-07T13:49:24Z</time>
      </trkpt>
      <trkpt lat="43.045687" lon="-0.109869">
        <ele>1387.4</ele>
        <time>2018-12-07T13:49:43Z</time>
      </trkpt>
      <trkpt lat="43.045661" lon="-0.109990">
        <ele>1387.1</ele>
        <time>2018-12-07T13:50:04Z</time>
      </trkpt>
      <trkpt lat="43.045623" lon="-0.110106">
        <ele>1384.9</ele>
        <time>2018-12-07T13:50:18Z</time>
      </trkpt>
      <trkpt lat="43.045585" lon="-0.110232">
        <ele>1383.4</ele>
        <time>2018-12-07T13:50:38Z</time>
      </trkpt>
      <trkpt lat="43.045549" lon="-0.110346">
        <ele>1385.7</ele>
        <time>2018-12-07T13:50:55Z</time>
      </trkpt>
      <trkpt lat="43.045489" lon="-0.110470">
        <ele>1385.3</ele>
        <time>2018-12-07T13:51:07Z</time>
      </trkpt>
      <trkpt lat="43.045477" lon="-0.110596">
        <ele>1383.4</ele>
        <time>2018-12-07T13:51:17Z</time>
      </trkpt>
      <trkpt lat="43.045484" lon="-0.110729">
        <ele>1384.5</ele>
        <time>2018-12-07T13:51:39Z</time>
      </trkpt>
      <trkpt lat="43.045468" lon="-0.110868">
        <ele>1385.6</ele>
        <time>2018-12-07T13:51:51Z</time>
      </trkpt>
      <trkpt lat="43.045467" lon="-0.110974">
        <ele>1387.0</ele>
        <time>2018-12-07T13:53:38Z</time>
      </trkpt>
      <trkpt lat="43.045416" lon="-0.111072">
        <ele>1384.0</ele>
        <time>2018-12-07T13:53:55Z</time>
      </trkpt>
      <trkpt lat="43.045382" lon="-0.111175">
        <ele>1382.9</ele>
        <time>2018-12-07T13:54:12Z</time>
      </trkpt>
      <trkpt lat="43.045355" lon="-0.111294">
        <ele>1381.5</ele>
        <time>2018-12-07T13:54:27Z</time>
      </trkpt>
      <trkpt lat="43.045312" lon="-0.111410">
        <ele>1381.6</ele>
        <time>2018-12-07T13:54:38Z</time>
      </trkpt>
      <trkpt lat="43.045279" lon="-0.111525">
        <ele>1383.9</ele>
        <time>2018-12-07T13:54:54Z</time>
      </trkpt>
      <trkpt lat="43.045233" lon="-0.111632">
        <ele>1386.3</ele>
        <time>2018-12-07T13:55:10Z</time>
      </trkpt>
      <trkpt lat="43.045202" lon="-0.111752">
        <ele>1389.4</ele>
        <time>2018-12-07T13:55:25Z</time>
      </trkpt>
      <trkpt lat="43.045181" lon="-0.111859">
        <ele>1393.2</ele>
        <time>2018-12-07T13:55:50Z</time>
      </trkpt>
      <trkpt lat="43.045188" lon="-0.111965">
        <ele>1400.2</ele>
        <time>2018-12-07T13:56:07Z</time>
      </trkpt>
      <trkpt lat="43.045194" lon="-0.112093">
        <ele>1401.6</ele>
        <time>2018-12-07T13:56:26Z</time>
      </trkpt>
      <trkpt lat="43.045173" lon="-0.112223">
        <ele>1405.5</ele>
        <time>2018-12-07T13:56:48Z</time>
      </trkpt>
      <trkpt lat="43.045172" lon="-0.112342">
        <ele>1407.4</ele>
        <time>2018-12-07T13:57:02Z</time>
      </trkpt>
      <trkpt lat="43.045191" lon="-0.112470">
        <ele>1407.8</ele>
        <time>2018-12-07T13:57:15Z</time>
      </trkpt>
      <trkpt lat="43.045212" lon="-0.112586">
        <ele>1408.3</ele>
        <time>2018-12-07T13:57:27Z</time>
      </trkpt>
      <trkpt lat="43.045220" lon="-0.112690">
        <ele>1410.7</ele>
        <time>2018-12-07T13:57:41Z</time>
      </trkpt>
      <trkpt lat="43.045234" lon="-0.112814">
        <ele>1412.1</ele>
        <time>2018-12-07T13:57:55Z</time>
      </trkpt>
      <trkpt lat="43.045249" lon="-0.112938">
        <ele>1412.7</ele>
        <time>2018-12-07T13:58:10Z</time>
      </trkpt>
      <trkpt lat="43.045260" lon="-0.113076">
        <ele>1412.2</ele>
        <time>2018-12-07T13:58:21Z</time>
      </trkpt>
      <trkpt lat="43.045276" lon="-0.113208">
        <ele>1413.9</ele>
        <time>2018-12-07T13:58:35Z</time>
      </trkpt>
      <trkpt lat="43.045265" lon="-0.113316">
        <ele>1416.1</ele>
        <time>2018-12-07T13:58:46Z</time>
      </trkpt>
      <trkpt lat="43.045248" lon="-0.113427">
        <ele>1417.8</ele>
        <time>2018-12-07T13:59:27Z</time>
      </trkpt>
      <trkpt lat="43.045255" lon="-0.113557">
        <ele>1415.4</ele>
        <time>2018-12-07T13:59:52Z</time>
      </trkpt>
      <trkpt lat="43.045225" lon="-0.113691">
        <ele>1414.0</ele>
        <time>2018-12-07T14:00:12Z</time>
      </trkpt>
      <trkpt lat="43.045245" lon="-0.113827">
        <ele>1411.2</ele>
        <time>2018-12-07T14:00:35Z</time>
      </trkpt>
      <trkpt lat="43.045252" lon="-0.113955">
        <ele>1409.3</ele>
        <time>2018-12-07T14:00:45Z</time>
      </trkpt>
      <trkpt lat="43.045297" lon="-0.114048">
        <ele>1410.1</ele>
        <time>2018-12-07T14:01:02Z</time>
      </trkpt>
      <trkpt lat="43.045266" lon="-0.114185">
        <ele>1412.9</ele>
        <time>2018-12-07T14:01:14Z</time>
      </trkpt>
      <trkpt lat="43.045253" lon="-0.114311">
        <ele>1412.6</ele>
        <time>2018-12-07T14:01:25Z</time>
      </trkpt>
      <trkpt lat="43.045254" lon="-0.114426">
        <ele>1411.6</ele>
        <time>2018-12-07T14:01:49Z</time>
      </trkpt>
      <trkpt lat="43.045261" lon="-0.114535">
        <ele>1412.1</ele>
        <time>2018-12-07T14:01:57Z</time>
      </trkpt>
      <trkpt lat="43.045251" lon="-0.114653">
        <ele>1411.7</ele>
        <time>2018-12-07T14:02:09Z</time>
      </trkpt>
      <trkpt lat="43.045240" lon="-0.114783">
        <ele>1409.6</ele>
        <time>2018-12-07T14:02:24Z</time>
      </trkpt>
      <trkpt lat="43.045257" lon="-0.114908">
        <ele>1407.9</ele>
        <time>2018-12-07T14:02:39Z</time>
      </trkpt>
      <trkpt lat="43.045254" lon="-0.114970">
        <ele>1406.7</ele>
        <time>2018-12-07T14:03:13Z</time>
      </trkpt>
      <trkpt lat="43.045252" lon="-0.115081">
        <ele>1405.8</ele>
        <time>2018-12-07T14:03:42Z</time>
      </trkpt>
      <trkpt lat="43.045229" lon="-0.115180">
        <ele>1405.7</ele>
        <time>2018-12-07T14:04:01Z</time>
      </trkpt>
      <trkpt lat="43.045233" lon="-0.115305">
        <ele>1405.5</ele>
        <time>2018-12-07T14:04:14Z</time>
      </trkpt>
      <trkpt lat="43.045184" lon="-0.115392">
        <ele>1401.5</ele>
        <time>2018-12-07T14:04:34Z</time>
      </trkpt>
      <trkpt lat="43.045147" lon="-0.115513">
        <ele>1397.4</ele>
        <time>2018-12-07T14:05:03Z</time>
      </trkpt>
      <trkpt lat="43.045110" lon="-0.115626">
        <ele>1395.2</ele>
        <time>2018-12-07T14:05:56Z</time>
      </trkpt>
      <trkpt lat="43.045100" lon="-0.115758">
        <ele>1394.4</ele>
        <time>2018-12-07T14:06:14Z</time>
      </trkpt>
      <trkpt lat="43.045102" lon="-0.115855">
        <ele>1393.6</ele>
        <time>2018-12-07T14:06:36Z</time>
      </trkpt>
      <trkpt lat="43.045091" lon="-0.115970">
        <ele>1394.0</ele>
        <time>2018-12-07T14:06:51Z</time>
      </trkpt>
      <trkpt lat="43.045080" lon="-0.116089">
        <ele>1392.7</ele>
        <time>2018-12-07T14:07:05Z</time>
      </trkpt>
      <trkpt lat="43.045049" lon="-0.116197">
        <ele>1390.0</ele>
        <time>2018-12-07T14:07:22Z</time>
      </trkpt>
      <trkpt lat="43.045001" lon="-0.116294">
        <ele>1388.2</ele>
        <time>2018-12-07T14:07:42Z</time>
      </trkpt>
      <trkpt lat="43.044967" lon="-0.116426">
        <ele>1385.3</ele>
        <time>2018-12-07T14:07:57Z</time>
      </trkpt>
      <trkpt lat="43.044970" lon="-0.116565">
        <ele>1391.2</ele>
        <time>2018-12-07T14:08:15Z</time>
      </trkpt>
      <trkpt lat="43.044962" lon="-0.116654">
        <ele>1386.3</ele>
        <time>2018-12-07T14:08:33Z</time>
      </trkpt>
      <trkpt lat="43.044947" lon="-0.116774">
        <ele>1383.7</ele>
        <time>2018-12-07T14:08:46Z</time>
      </trkpt>
      <trkpt lat="43.044945" lon="-0.116904">
        <ele>1385.8</ele>
        <time>2018-12-07T14:09:08Z</time>
      </trkpt>
      <trkpt lat="43.044941" lon="-0.117032">
        <ele>1388.6</ele>
        <time>2018-12-07T14:09:21Z</time>
      </trkpt>
      <trkpt lat="43.044920" lon="-0.117144">
        <ele>1388.8</ele>
        <time>2018-12-07T14:09:42Z</time>
      </trkpt>
      <trkpt lat="43.044871" lon="-0.117247">
        <ele>1386.2</ele>
        <time>2018-12-07T14:09:56Z</time>
      </trkpt>
      <trkpt lat="43.044883" lon="-0.117382">
        <ele>1385.6</ele>
        <time>2018-12-07T14:10:14Z</time>
      </trkpt>
      <trkpt lat="43.044873" lon="-0.117517">
        <ele>1386.9</ele>
        <time>2018-12-07T14:10:26Z</time>
      </trkpt>
      <trkpt lat="43.044857" lon="-0.117644">
        <ele>1386.6</ele>
        <time>2018-12-07T14:10:38Z</time>
      </trkpt>
      <trkpt lat="43.044823" lon="-0.117769">
        <ele>1386.4</ele>
        <time>2018-12-07T14:11:54Z</time>
      </trkpt>
      <trkpt lat="43.044800" lon="-0.117905">
        <ele>1385.7</ele>
        <time>2018-12-07T14:12:07Z</time>
      </trkpt>
      <trkpt lat="43.044794" lon="-0.118029">
        <ele>1385.8</ele>
        <time>2018-12-07T14:12:19Z</time>
      </trkpt>
      <trkpt lat="43.044782" lon="-0.118153">
        <ele>1386.0</ele>
        <time>2018-12-07T14:12:31Z</time>
      </trkpt>
      <trkpt lat="43.044774" lon="-0.118290">
        <ele>1385.8</ele>
        <time>2018-12-07T14:12:45Z</time>
      </trkpt>
      <trkpt lat="43.044761" lon="-0.118416">
        <ele>1386.6</ele>
        <time>2018-12-07T14:13:00Z</time>
      </trkpt>
      <trkpt lat="43.044751" lon="-0.118540">
        <ele>1385.1</ele>
        <time>2018-12-07T14:13:17Z</time>
      </trkpt>
      <trkpt lat="43.044726" lon="-0.118657">
        <ele>1383.6</ele>
        <time>2018-12-07T14:13:44Z</time>
      </trkpt>
      <trkpt lat="43.044671" lon="-0.118760">
        <ele>1381.5</ele>
        <time>2018-12-07T14:14:00Z</time>
      </trkpt>
      <trkpt lat="43.044640" lon="-0.118885">
        <ele>1379.4</ele>
        <time>2018-12-07T14:14:14Z</time>
      </trkpt>
      <trkpt lat="43.044611" lon="-0.119011">
        <ele>1376.9</ele>
        <time>2018-12-07T14:14:33Z</time>
      </trkpt>
      <trkpt lat="43.044586" lon="-0.119126">
        <ele>1374.2</ele>
        <time>2018-12-07T14:14:48Z</time>
      </trkpt>
      <trkpt lat="43.044551" lon="-0.119256">
        <ele>1371.3</ele>
        <time>2018-12-07T14:15:01Z</time>
      </trkpt>
      <trkpt lat="43.044528" lon="-0.119377">
        <ele>1368.0</ele>
        <time>2018-12-07T14:15:23Z</time>
      </trkpt>
      <trkpt lat="43.044491" lon="-0.119494">
        <ele>1364.8</ele>
        <time>2018-12-07T14:15:46Z</time>
      </trkpt>
      <trkpt lat="43.044461" lon="-0.119610">
        <ele>1362.7</ele>
        <time>2018-12-07T14:15:57Z</time>
      </trkpt>
      <trkpt lat="43.044411" lon="-0.119748">
        <ele>1362.3</ele>
        <time>2018-12-07T14:16:11Z</time>
      </trkpt>
      <trkpt lat="43.044353" lon="-0.119877">
        <ele>1362.8</ele>
        <time>2018-12-07T14:16:26Z</time>
      </trkpt>
      <trkpt lat="43.044340" lon="-0.119999">
        <ele>1361.8</ele>
        <time>2018-12-07T14:16:38Z</time>
      </trkpt>
      <trkpt lat="43.044331" lon="-0.120142">
        <ele>1361.8</ele>
        <time>2018-12-07T14:16:49Z</time>
      </trkpt>
      <trkpt lat="43.044267" lon="-0.120258">
        <ele>1358.7</ele>
        <time>2018-12-07T14:17:01Z</time>
      </trkpt>
      <trkpt lat="43.044256" lon="-0.120394">
        <ele>1355.1</ele>
        <time>2018-12-07T14:17:22Z</time>
      </trkpt>
      <trkpt lat="43.044216" lon="-0.120502">
        <ele>1350.2</ele>
        <time>2018-12-07T14:17:36Z</time>
      </trkpt>
      <trkpt lat="43.044159" lon="-0.120579">
        <ele>1344.9</ele>
        <time>2018-12-07T14:17:51Z</time>
      </trkpt>
      <trkpt lat="43.044158" lon="-0.120689">
        <ele>1339.8</ele>
        <time>2018-12-07T14:18:06Z</time>
      </trkpt>
      <trkpt lat="43.044149" lon="-0.120832">
        <ele>1333.6</ele>
        <time>2018-12-07T14:18:26Z</time>
      </trkpt>
      <trkpt lat="43.044101" lon="-0.121064">
        <ele>1331.9</ele>
        <time>2018-12-07T14:20:02Z</time>
      </trkpt>
      <trkpt lat="43.044096" lon="-0.121100">
        <ele>1333.5</ele>
        <time>2018-12-07T14:20:51Z</time>
      </trkpt>
      <trkpt lat="43.044126" lon="-0.121234">
        <ele>1337.3</ele>
        <time>2018-12-07T14:21:14Z</time>
      </trkpt>
      <trkpt lat="43.044115" lon="-0.121364">
        <ele>1342.7</ele>
        <time>2018-12-07T14:21:46Z</time>
      </trkpt>
      <trkpt lat="43.044125" lon="-0.121482">
        <ele>1345.6</ele>
        <time>2018-12-07T14:22:10Z</time>
      </trkpt>
      <trkpt lat="43.044122" lon="-0.121573">
        <ele>1351.0</ele>
        <time>2018-12-07T14:22:41Z</time>
      </trkpt>
      <trkpt lat="43.044174" lon="-0.121531">
        <ele>1351.9</ele>
        <time>2018-12-07T14:23:02Z</time>
      </trkpt>
      <trkpt lat="43.044235" lon="-0.121526">
        <ele>1356.0</ele>
        <time>2018-12-07T14:23:30Z</time>
      </trkpt>
      <trkpt lat="43.044286" lon="-0.121580">
        <ele>1363.0</ele>
        <time>2018-12-07T14:24:13Z</time>
      </trkpt>
      <trkpt lat="43.044311" lon="-0.121665">
        <ele>1369.4</ele>
        <time>2018-12-07T14:24:57Z</time>
      </trkpt>
      <trkpt lat="43.044352" lon="-0.121749">
        <ele>1374.3</ele>
        <time>2018-12-07T14:25:25Z</time>
      </trkpt>
      <trkpt lat="43.044370" lon="-0.121789">
        <ele>1378.3</ele>
        <time>2018-12-07T14:25:45Z</time>
      </trkpt>
      <trkpt lat="43.044334" lon="-0.121841">
        <ele>1381.9</ele>
        <time>2018-12-07T14:26:52Z</time>
      </trkpt>
      <trkpt lat="43.044298" lon="-0.121966">
        <ele>1384.3</ele>
        <time>2018-12-07T14:27:10Z</time>
      </trkpt>
      <trkpt lat="43.044268" lon="-0.122112">
        <ele>1386.2</ele>
        <time>2018-12-07T14:27:28Z</time>
      </trkpt>
      <trkpt lat="43.044229" lon="-0.122252">
        <ele>1387.6</ele>
        <time>2018-12-07T14:27:42Z</time>
      </trkpt>
      <trkpt lat="43.044201" lon="-0.122377">
        <ele>1388.8</ele>
        <time>2018-12-07T14:27:57Z</time>
      </trkpt>
      <trkpt lat="43.044165" lon="-0.122516">
        <ele>1391.3</ele>
        <time>2018-12-07T14:28:14Z</time>
      </trkpt>
      <trkpt lat="43.044115" lon="-0.122652">
        <ele>1394.3</ele>
        <time>2018-12-07T14:28:30Z</time>
      </trkpt>
      <trkpt lat="43.044068" lon="-0.122787">
        <ele>1395.9</ele>
        <time>2018-12-07T14:28:45Z</time>
      </trkpt>
      <trkpt lat="43.044049" lon="-0.122932">
        <ele>1397.2</ele>
        <time>2018-12-07T14:29:00Z</time>
      </trkpt>
      <trkpt lat="43.044032" lon="-0.123094">
        <ele>1400.1</ele>
        <time>2018-12-07T14:29:13Z</time>
      </trkpt>
      <trkpt lat="43.044008" lon="-0.123222">
        <ele>1401.9</ele>
        <time>2018-12-07T14:29:24Z</time>
      </trkpt>
      <trkpt lat="43.043975" lon="-0.123353">
        <ele>1403.8</ele>
        <time>2018-12-07T14:29:36Z</time>
      </trkpt>
      <trkpt lat="43.043951" lon="-0.123479">
        <ele>1404.0</ele>
        <time>2018-12-07T14:29:47Z</time>
      </trkpt>
      <trkpt lat="43.043927" lon="-0.123635">
        <ele>1405.0</ele>
        <time>2018-12-07T14:30:00Z</time>
      </trkpt>
      <trkpt lat="43.043901" lon="-0.123779">
        <ele>1406.0</ele>
        <time>2018-12-07T14:30:16Z</time>
      </trkpt>
      <trkpt lat="43.043882" lon="-0.123947">
        <ele>1407.7</ele>
        <time>2018-12-07T14:30:31Z</time>
      </trkpt>
      <trkpt lat="43.043847" lon="-0.124135">
        <ele>1410.8</ele>
        <time>2018-12-07T14:30:52Z</time>
      </trkpt>
      <trkpt lat="43.043769" lon="-0.124232">
        <ele>1415.5</ele>
        <time>2018-12-07T14:31:12Z</time>
      </trkpt>
      <trkpt lat="43.043727" lon="-0.124406">
        <ele>1424.1</ele>
        <time>2018-12-07T14:32:16Z</time>
      </trkpt>
      <trkpt lat="43.043701" lon="-0.124541">
        <ele>1428.2</ele>
        <time>2018-12-07T14:32:39Z</time>
      </trkpt>
      <trkpt lat="43.043686" lon="-0.124670">
        <ele>1431.3</ele>
        <time>2018-12-07T14:32:58Z</time>
      </trkpt>
      <trkpt lat="43.043662" lon="-0.124796">
        <ele>1434.3</ele>
        <time>2018-12-07T14:33:14Z</time>
      </trkpt>
      <trkpt lat="43.043685" lon="-0.124880">
        <ele>1438.1</ele>
        <time>2018-12-07T14:33:32Z</time>
      </trkpt>
      <trkpt lat="43.043684" lon="-0.124979">
        <ele>1442.1</ele>
        <time>2018-12-07T14:33:51Z</time>
      </trkpt>
      <trkpt lat="43.043653" lon="-0.125108">
        <ele>1444.5</ele>
        <time>2018-12-07T14:34:09Z</time>
      </trkpt>
      <trkpt lat="43.043650" lon="-0.125232">
        <ele>1446.5</ele>
        <time>2018-12-07T14:34:24Z</time>
      </trkpt>
      <trkpt lat="43.043636" lon="-0.125359">
        <ele>1450.0</ele>
        <time>2018-12-07T14:34:42Z</time>
      </trkpt>
      <trkpt lat="43.043616" lon="-0.125479">
        <ele>1452.6</ele>
        <time>2018-12-07T14:34:57Z</time>
      </trkpt>
      <trkpt lat="43.043593" lon="-0.125596">
        <ele>1455.3</ele>
        <time>2018-12-07T14:35:14Z</time>
      </trkpt>
      <trkpt lat="43.043615" lon="-0.125674">
        <ele>1457.8</ele>
        <time>2018-12-07T14:37:32Z</time>
      </trkpt>
      <trkpt lat="43.043594" lon="-0.125815">
        <ele>1457.9</ele>
        <time>2018-12-07T14:37:44Z</time>
      </trkpt>
      <trkpt lat="43.043586" lon="-0.125951">
        <ele>1458.3</ele>
        <time>2018-12-07T14:38:01Z</time>
      </trkpt>
      <trkpt lat="43.043571" lon="-0.126082">
        <ele>1459.3</ele>
        <time>2018-12-07T14:38:14Z</time>
      </trkpt>
      <trkpt lat="43.043566" lon="-0.126212">
        <ele>1459.5</ele>
        <time>2018-12-07T14:38:29Z</time>
      </trkpt>
      <trkpt lat="43.043562" lon="-0.126348">
        <ele>1461.5</ele>
        <time>2018-12-07T14:38:44Z</time>
      </trkpt>
      <trkpt lat="43.043558" lon="-0.126491">
        <ele>1462.3</ele>
        <time>2018-12-07T14:39:02Z</time>
      </trkpt>
      <trkpt lat="43.043541" lon="-0.126632">
        <ele>1461.4</ele>
        <time>2018-12-07T14:39:15Z</time>
      </trkpt>
      <trkpt lat="43.043543" lon="-0.126780">
        <ele>1461.2</ele>
        <time>2018-12-07T14:39:31Z</time>
      </trkpt>
      <trkpt lat="43.043563" lon="-0.126928">
        <ele>1462.1</ele>
        <time>2018-12-07T14:39:48Z</time>
      </trkpt>
      <trkpt lat="43.043551" lon="-0.127081">
        <ele>1461.9</ele>
        <time>2018-12-07T14:40:04Z</time>
      </trkpt>
      <trkpt lat="43.043543" lon="-0.127220">
        <ele>1461.9</ele>
        <time>2018-12-07T14:40:14Z</time>
      </trkpt>
      <trkpt lat="43.043541" lon="-0.127353">
        <ele>1462.2</ele>
        <time>2018-12-07T14:40:23Z</time>
      </trkpt>
      <trkpt lat="43.043535" lon="-0.127449">
        <ele>1463.4</ele>
        <time>2018-12-07T14:40:36Z</time>
      </trkpt>
      <trkpt lat="43.043535" lon="-0.127568">
        <ele>1463.0</ele>
        <time>2018-12-07T14:40:53Z</time>
      </trkpt>
      <trkpt lat="43.043538" lon="-0.127694">
        <ele>1462.9</ele>
        <time>2018-12-07T14:41:01Z</time>
      </trkpt>
      <trkpt lat="43.043542" lon="-0.127821">
        <ele>1462.9</ele>
        <time>2018-12-07T14:41:10Z</time>
      </trkpt>
      <trkpt lat="43.043536" lon="-0.127951">
        <ele>1463.6</ele>
        <time>2018-12-07T14:41:19Z</time>
      </trkpt>
      <trkpt lat="43.043535" lon="-0.128083">
        <ele>1466.3</ele>
        <time>2018-12-07T14:41:27Z</time>
      </trkpt>
      <trkpt lat="43.043522" lon="-0.128236">
        <ele>1466.7</ele>
        <time>2018-12-07T14:41:39Z</time>
      </trkpt>
      <trkpt lat="43.043496" lon="-0.128362">
        <ele>1467.7</ele>
        <time>2018-12-07T14:41:49Z</time>
      </trkpt>
      <trkpt lat="43.043512" lon="-0.128486">
        <ele>1468.1</ele>
        <time>2018-12-07T14:41:59Z</time>
      </trkpt>
      <trkpt lat="43.043501" lon="-0.128604">
        <ele>1469.6</ele>
        <time>2018-12-07T14:42:10Z</time>
      </trkpt>
      <trkpt lat="43.043503" lon="-0.128732">
        <ele>1470.5</ele>
        <time>2018-12-07T14:42:21Z</time>
      </trkpt>
      <trkpt lat="43.043503" lon="-0.128858">
        <ele>1472.0</ele>
        <time>2018-12-07T14:42:32Z</time>
      </trkpt>
      <trkpt lat="43.043485" lon="-0.129015">
        <ele>1474.2</ele>
        <time>2018-12-07T14:42:45Z</time>
      </trkpt>
      <trkpt lat="43.043473" lon="-0.129151">
        <ele>1476.2</ele>
        <time>2018-12-07T14:42:55Z</time>
      </trkpt>
      <trkpt lat="43.043461" lon="-0.129289">
        <ele>1479.2</ele>
        <time>2018-12-07T14:43:07Z</time>
      </trkpt>
      <trkpt lat="43.043430" lon="-0.129429">
        <ele>1481.5</ele>
        <time>2018-12-07T14:43:20Z</time>
      </trkpt>
      <trkpt lat="43.043400" lon="-0.129545">
        <ele>1481.9</ele>
        <time>2018-12-07T14:43:31Z</time>
      </trkpt>
      <trkpt lat="43.043423" lon="-0.129672">
        <ele>1483.2</ele>
        <time>2018-12-07T14:43:46Z</time>
      </trkpt>
      <trkpt lat="43.043445" lon="-0.129806">
        <ele>1486.6</ele>
        <time>2018-12-07T14:43:57Z</time>
      </trkpt>
      <trkpt lat="43.043450" lon="-0.129928">
        <ele>1489.4</ele>
        <time>2018-12-07T14:44:12Z</time>
      </trkpt>
      <trkpt lat="43.043433" lon="-0.130066">
        <ele>1490.9</ele>
        <time>2018-12-07T14:44:37Z</time>
      </trkpt>
      <trkpt lat="43.043432" lon="-0.130198">
        <ele>1492.1</ele>
        <time>2018-12-07T14:44:50Z</time>
      </trkpt>
      <trkpt lat="43.043418" lon="-0.130347">
        <ele>1493.8</ele>
        <time>2018-12-07T14:45:03Z</time>
      </trkpt>
      <trkpt lat="43.043426" lon="-0.130476">
        <ele>1495.2</ele>
        <time>2018-12-07T14:45:16Z</time>
      </trkpt>
      <trkpt lat="43.043422" lon="-0.130609">
        <ele>1497.1</ele>
        <time>2018-12-07T14:45:33Z</time>
      </trkpt>
      <trkpt lat="43.043410" lon="-0.130769">
        <ele>1498.3</ele>
        <time>2018-12-07T14:45:46Z</time>
      </trkpt>
      <trkpt lat="43.043392" lon="-0.130920">
        <ele>1498.4</ele>
        <time>2018-12-07T14:45:57Z</time>
      </trkpt>
      <trkpt lat="43.043380" lon="-0.131058">
        <ele>1499.7</ele>
        <time>2018-12-07T14:46:07Z</time>
      </trkpt>
      <trkpt lat="43.043364" lon="-0.131194">
        <ele>1500.6</ele>
        <time>2018-12-07T14:46:19Z</time>
      </trkpt>
      <trkpt lat="43.043352" lon="-0.131329">
        <ele>1502.5</ele>
        <time>2018-12-07T14:46:33Z</time>
      </trkpt>
      <trkpt lat="43.043325" lon="-0.131456">
        <ele>1505.0</ele>
        <time>2018-12-07T14:46:44Z</time>
      </trkpt>
      <trkpt lat="43.043328" lon="-0.131606">
        <ele>1507.2</ele>
        <time>2018-12-07T14:46:55Z</time>
      </trkpt>
      <trkpt lat="43.043302" lon="-0.131738">
        <ele>1507.0</ele>
        <time>2018-12-07T14:47:05Z</time>
      </trkpt>
      <trkpt lat="43.043283" lon="-0.131870">
        <ele>1507.2</ele>
        <time>2018-12-07T14:47:14Z</time>
      </trkpt>
      <trkpt lat="43.043278" lon="-0.132011">
        <ele>1507.0</ele>
        <time>2018-12-07T14:47:23Z</time>
      </trkpt>
      <trkpt lat="43.043266" lon="-0.132126">
        <ele>1506.9</ele>
        <time>2018-12-07T14:47:35Z</time>
      </trkpt>
      <trkpt lat="43.043241" lon="-0.132271">
        <ele>1507.8</ele>
        <time>2018-12-07T14:47:46Z</time>
      </trkpt>
      <trkpt lat="43.043209" lon="-0.132415">
        <ele>1508.4</ele>
        <time>2018-12-07T14:47:55Z</time>
      </trkpt>
      <trkpt lat="43.043149" lon="-0.132537">
        <ele>1510.2</ele>
        <time>2018-12-07T14:48:08Z</time>
      </trkpt>
      <trkpt lat="43.043117" lon="-0.132684">
        <ele>1512.2</ele>
        <time>2018-12-07T14:48:20Z</time>
      </trkpt>
      <trkpt lat="43.043119" lon="-0.132817">
        <ele>1513.6</ele>
        <time>2018-12-07T14:48:39Z</time>
      </trkpt>
      <trkpt lat="43.043117" lon="-0.132925">
        <ele>1512.5</ele>
        <time>2018-12-07T14:48:48Z</time>
      </trkpt>
      <trkpt lat="43.043078" lon="-0.133059">
        <ele>1512.4</ele>
        <time>2018-12-07T14:48:59Z</time>
      </trkpt>
      <trkpt lat="43.043015" lon="-0.133166">
        <ele>1513.5</ele>
        <time>2018-12-07T14:49:09Z</time>
      </trkpt>
      <trkpt lat="43.042964" lon="-0.133299">
        <ele>1516.4</ele>
        <time>2018-12-07T14:49:19Z</time>
      </trkpt>
      <trkpt lat="43.042933" lon="-0.133457">
        <ele>1516.6</ele>
        <time>2018-12-07T14:49:28Z</time>
      </trkpt>
      <trkpt lat="43.042904" lon="-0.133585">
        <ele>1516.6</ele>
        <time>2018-12-07T14:49:37Z</time>
      </trkpt>
      <trkpt lat="43.042857" lon="-0.133705">
        <ele>1516.4</ele>
        <time>2018-12-07T14:49:46Z</time>
      </trkpt>
      <trkpt lat="43.042829" lon="-0.133834">
        <ele>1517.0</ele>
        <time>2018-12-07T14:49:55Z</time>
      </trkpt>
      <trkpt lat="43.042797" lon="-0.133981">
        <ele>1518.2</ele>
        <time>2018-12-07T14:50:06Z</time>
      </trkpt>
      <trkpt lat="43.042782" lon="-0.134110">
        <ele>1518.9</ele>
        <time>2018-12-07T14:50:16Z</time>
      </trkpt>
      <trkpt lat="43.042735" lon="-0.134243">
        <ele>1521.2</ele>
        <time>2018-12-07T14:50:28Z</time>
      </trkpt>
      <trkpt lat="43.042694" lon="-0.134355">
        <ele>1521.8</ele>
        <time>2018-12-07T14:50:39Z</time>
      </trkpt>
      <trkpt lat="43.042654" lon="-0.134475">
        <ele>1523.6</ele>
        <time>2018-12-07T14:50:48Z</time>
      </trkpt>
      <trkpt lat="43.042591" lon="-0.134603">
        <ele>1524.7</ele>
        <time>2018-12-07T14:51:00Z</time>
      </trkpt>
      <trkpt lat="43.042563" lon="-0.134734">
        <ele>1527.5</ele>
        <time>2018-12-07T14:51:13Z</time>
      </trkpt>
      <trkpt lat="43.042524" lon="-0.134859">
        <ele>1527.0</ele>
        <time>2018-12-07T14:51:24Z</time>
      </trkpt>
      <trkpt lat="43.042482" lon="-0.134989">
        <ele>1528.7</ele>
        <time>2018-12-07T14:51:35Z</time>
      </trkpt>
      <trkpt lat="43.042466" lon="-0.135106">
        <ele>1528.6</ele>
        <time>2018-12-07T14:51:45Z</time>
      </trkpt>
      <trkpt lat="43.042437" lon="-0.135221">
        <ele>1524.0</ele>
        <time>2018-12-07T14:51:55Z</time>
      </trkpt>
      <trkpt lat="43.042445" lon="-0.135353">
        <ele>1523.0</ele>
        <time>2018-12-07T14:52:03Z</time>
      </trkpt>
      <trkpt lat="43.042408" lon="-0.135472">
        <ele>1521.3</ele>
        <time>2018-12-07T14:52:12Z</time>
      </trkpt>
      <trkpt lat="43.042390" lon="-0.135485">
        <ele>1521.5</ele>
        <time>2018-12-07T14:57:06Z</time>
      </trkpt>
      <trkpt lat="43.042374" lon="-0.135563">
        <ele>1520.1</ele>
        <time>2018-12-07T14:59:02Z</time>
      </trkpt>
      <trkpt lat="43.042349" lon="-0.135690">
        <ele>1520.6</ele>
        <time>2018-12-07T14:59:10Z</time>
      </trkpt>
      <trkpt lat="43.042320" lon="-0.135815">
        <ele>1518.9</ele>
        <time>2018-12-07T14:59:19Z</time>
      </trkpt>
      <trkpt lat="43.042259" lon="-0.135930">
        <ele>1518.0</ele>
        <time>2018-12-07T14:59:26Z</time>
      </trkpt>
      <trkpt lat="43.042260" lon="-0.136053">
        <ele>1516.5</ele>
        <time>2018-12-07T14:59:34Z</time>
      </trkpt>
      <trkpt lat="43.042261" lon="-0.136199">
        <ele>1516.8</ele>
        <time>2018-12-07T14:59:43Z</time>
      </trkpt>
      <trkpt lat="43.042271" lon="-0.136324">
        <ele>1515.5</ele>
        <time>2018-12-07T14:59:50Z</time>
      </trkpt>
      <trkpt lat="43.042262" lon="-0.136459">
        <ele>1513.9</ele>
        <time>2018-12-07T14:59:57Z</time>
      </trkpt>
      <trkpt lat="43.042252" lon="-0.136596">
        <ele>1513.2</ele>
        <time>2018-12-07T15:00:06Z</time>
      </trkpt>
      <trkpt lat="43.042256" lon="-0.136725">
        <ele>1510.3</ele>
        <time>2018-12-07T15:00:16Z</time>
      </trkpt>
      <trkpt lat="43.042250" lon="-0.136843">
        <ele>1508.5</ele>
        <time>2018-12-07T15:00:25Z</time>
      </trkpt>
      <trkpt lat="43.042232" lon="-0.136973">
        <ele>1507.7</ele>
        <time>2018-12-07T15:00:34Z</time>
      </trkpt>
      <trkpt lat="43.042214" lon="-0.137093">
        <ele>1506.5</ele>
        <time>2018-12-07T15:00:40Z</time>
      </trkpt>
      <trkpt lat="43.042222" lon="-0.137227">
        <ele>1504.3</ele>
        <time>2018-12-07T15:00:47Z</time>
      </trkpt>
      <trkpt lat="43.042200" lon="-0.137344">
        <ele>1501.8</ele>
        <time>2018-12-07T15:00:54Z</time>
      </trkpt>
      <trkpt lat="43.042200" lon="-0.137465">
        <ele>1500.3</ele>
        <time>2018-12-07T15:01:01Z</time>
      </trkpt>
      <trkpt lat="43.042154" lon="-0.137590">
        <ele>1498.0</ele>
        <time>2018-12-07T15:01:10Z</time>
      </trkpt>
      <trkpt lat="43.042142" lon="-0.137723">
        <ele>1495.8</ele>
        <time>2018-12-07T15:01:18Z</time>
      </trkpt>
      <trkpt lat="43.042119" lon="-0.137848">
        <ele>1493.6</ele>
        <time>2018-12-07T15:01:26Z</time>
      </trkpt>
      <trkpt lat="43.042073" lon="-0.137948">
        <ele>1490.6</ele>
        <time>2018-12-07T15:01:33Z</time>
      </trkpt>
      <trkpt lat="43.042066" lon="-0.138059">
        <ele>1485.8</ele>
        <time>2018-12-07T15:01:41Z</time>
      </trkpt>
      <trkpt lat="43.042051" lon="-0.138179">
        <ele>1482.5</ele>
        <time>2018-12-07T15:01:49Z</time>
      </trkpt>
      <trkpt lat="43.041997" lon="-0.138287">
        <ele>1479.6</ele>
        <time>2018-12-07T15:01:57Z</time>
      </trkpt>
      <trkpt lat="43.041992" lon="-0.138398">
        <ele>1475.6</ele>
        <time>2018-12-07T15:02:21Z</time>
      </trkpt>
      <trkpt lat="43.041971" lon="-0.138536">
        <ele>1473.9</ele>
        <time>2018-12-07T15:02:29Z</time>
      </trkpt>
      <trkpt lat="43.042023" lon="-0.138640">
        <ele>1470.2</ele>
        <time>2018-12-07T15:02:37Z</time>
      </trkpt>
      <trkpt lat="43.042085" lon="-0.138726">
        <ele>1464.8</ele>
        <time>2018-12-07T15:02:45Z</time>
      </trkpt>
      <trkpt lat="43.042169" lon="-0.138826">
        <ele>1462.3</ele>
        <time>2018-12-07T15:02:53Z</time>
      </trkpt>
      <trkpt lat="43.042252" lon="-0.138911">
        <ele>1457.5</ele>
        <time>2018-12-07T15:03:01Z</time>
      </trkpt>
      <trkpt lat="43.042317" lon="-0.138998">
        <ele>1456.2</ele>
        <time>2018-12-07T15:03:08Z</time>
      </trkpt>
      <trkpt lat="43.042400" lon="-0.139021">
        <ele>1453.8</ele>
        <time>2018-12-07T15:03:25Z</time>
      </trkpt>
      <trkpt lat="43.042498" lon="-0.139049">
        <ele>1448.5</ele>
        <time>2018-12-07T15:03:36Z</time>
      </trkpt>
      <trkpt lat="43.042644" lon="-0.139151">
        <ele>1441.3</ele>
        <time>2018-12-07T15:03:57Z</time>
      </trkpt>
      <trkpt lat="43.042740" lon="-0.139171">
        <ele>1435.5</ele>
        <time>2018-12-07T15:04:07Z</time>
      </trkpt>
      <trkpt lat="43.042838" lon="-0.139186">
        <ele>1430.7</ele>
        <time>2018-12-07T15:04:17Z</time>
      </trkpt>
      <trkpt lat="43.042944" lon="-0.139215">
        <ele>1425.6</ele>
        <time>2018-12-07T15:04:26Z</time>
      </trkpt>
      <trkpt lat="43.043023" lon="-0.139231">
        <ele>1420.6</ele>
        <time>2018-12-07T15:04:36Z</time>
      </trkpt>
      <trkpt lat="43.043107" lon="-0.139246">
        <ele>1414.6</ele>
        <time>2018-12-07T15:04:47Z</time>
      </trkpt>
      <trkpt lat="43.043202" lon="-0.139260">
        <ele>1409.1</ele>
        <time>2018-12-07T15:04:58Z</time>
      </trkpt>
      <trkpt lat="43.043287" lon="-0.139292">
        <ele>1403.7</ele>
        <time>2018-12-07T15:05:08Z</time>
      </trkpt>
      <trkpt lat="43.043365" lon="-0.139277">
        <ele>1396.4</ele>
        <time>2018-12-07T15:05:22Z</time>
      </trkpt>
      <trkpt lat="43.043450" lon="-0.139221">
        <ele>1393.9</ele>
        <time>2018-12-07T15:05:50Z</time>
      </trkpt>
      <trkpt lat="43.043526" lon="-0.139179">
        <ele>1390.1</ele>
        <time>2018-12-07T15:05:59Z</time>
      </trkpt>
      <trkpt lat="43.043610" lon="-0.139135">
        <ele>1384.7</ele>
        <time>2018-12-07T15:06:10Z</time>
      </trkpt>
      <trkpt lat="43.043696" lon="-0.139086">
        <ele>1377.9</ele>
        <time>2018-12-07T15:06:23Z</time>
      </trkpt>
      <trkpt lat="43.043790" lon="-0.139022">
        <ele>1372.3</ele>
        <time>2018-12-07T15:06:35Z</time>
      </trkpt>
      <trkpt lat="43.043866" lon="-0.138938">
        <ele>1365.7</ele>
        <time>2018-12-07T15:06:48Z</time>
      </trkpt>
      <trkpt lat="43.043960" lon="-0.138877">
        <ele>1359.8</ele>
        <time>2018-12-07T15:07:02Z</time>
      </trkpt>
      <trkpt lat="43.044055" lon="-0.138810">
        <ele>1354.3</ele>
        <time>2018-12-07T15:07:14Z</time>
      </trkpt>
      <trkpt lat="43.044145" lon="-0.138748">
        <ele>1348.8</ele>
        <time>2018-12-07T15:07:27Z</time>
      </trkpt>
      <trkpt lat="43.044240" lon="-0.138683">
        <ele>1343.8</ele>
        <time>2018-12-07T15:07:40Z</time>
      </trkpt>
      <trkpt lat="43.044327" lon="-0.138604">
        <ele>1338.9</ele>
        <time>2018-12-07T15:09:15Z</time>
      </trkpt>
      <trkpt lat="43.044404" lon="-0.138570">
        <ele>1337.4</ele>
        <time>2018-12-07T15:09:24Z</time>
      </trkpt>
      <trkpt lat="43.044486" lon="-0.138502">
        <ele>1333.1</ele>
        <time>2018-12-07T15:09:37Z</time>
      </trkpt>
      <trkpt lat="43.044570" lon="-0.138441">
        <ele>1329.3</ele>
        <time>2018-12-07T15:09:47Z</time>
      </trkpt>
      <trkpt lat="43.044644" lon="-0.138356">
        <ele>1325.2</ele>
        <time>2018-12-07T15:09:58Z</time>
      </trkpt>
      <trkpt lat="43.044726" lon="-0.138293">
        <ele>1320.5</ele>
        <time>2018-12-07T15:10:10Z</time>
      </trkpt>
      <trkpt lat="43.044824" lon="-0.138207">
        <ele>1315.8</ele>
        <time>2018-12-07T15:10:23Z</time>
      </trkpt>
      <trkpt lat="43.044905" lon="-0.138142">
        <ele>1311.3</ele>
        <time>2018-12-07T15:10:35Z</time>
      </trkpt>
      <trkpt lat="43.045005" lon="-0.138091">
        <ele>1306.8</ele>
        <time>2018-12-07T15:10:47Z</time>
      </trkpt>
      <trkpt lat="43.045089" lon="-0.138014">
        <ele>1303.0</ele>
        <time>2018-12-07T15:10:58Z</time>
      </trkpt>
      <trkpt lat="43.045179" lon="-0.137946">
        <ele>1299.3</ele>
        <time>2018-12-07T15:11:10Z</time>
      </trkpt>
      <trkpt lat="43.045265" lon="-0.137885">
        <ele>1295.0</ele>
        <time>2018-12-07T15:11:23Z</time>
      </trkpt>
      <trkpt lat="43.045348" lon="-0.137815">
        <ele>1291.8</ele>
        <time>2018-12-07T15:11:34Z</time>
      </trkpt>
      <trkpt lat="43.045431" lon="-0.137732">
        <ele>1288.1</ele>
        <time>2018-12-07T15:11:46Z</time>
      </trkpt>
      <trkpt lat="43.045519" lon="-0.137669">
        <ele>1285.1</ele>
        <time>2018-12-07T15:11:59Z</time>
      </trkpt>
      <trkpt lat="43.045595" lon="-0.137590">
        <ele>1282.0</ele>
        <time>2018-12-07T15:12:12Z</time>
      </trkpt>
      <trkpt lat="43.045683" lon="-0.137512">
        <ele>1278.1</ele>
        <time>2018-12-07T15:12:27Z</time>
      </trkpt>
      <trkpt lat="43.045756" lon="-0.137422">
        <ele>1275.2</ele>
        <time>2018-12-07T15:12:38Z</time>
      </trkpt>
      <trkpt lat="43.045836" lon="-0.137338">
        <ele>1273.3</ele>
        <time>2018-12-07T15:12:48Z</time>
      </trkpt>
      <trkpt lat="43.045914" lon="-0.137266">
        <ele>1270.7</ele>
        <time>2018-12-07T15:12:59Z</time>
      </trkpt>
      <trkpt lat="43.046005" lon="-0.137214">
        <ele>1267.6</ele>
        <time>2018-12-07T15:13:09Z</time>
      </trkpt>
      <trkpt lat="43.046087" lon="-0.137153">
        <ele>1264.6</ele>
        <time>2018-12-07T15:13:19Z</time>
      </trkpt>
      <trkpt lat="43.046167" lon="-0.137074">
        <ele>1260.1</ele>
        <time>2018-12-07T15:13:31Z</time>
      </trkpt>
      <trkpt lat="43.046252" lon="-0.136996">
        <ele>1255.0</ele>
        <time>2018-12-07T15:13:45Z</time>
      </trkpt>
      <trkpt lat="43.046332" lon="-0.136903">
        <ele>1251.9</ele>
        <time>2018-12-07T15:13:55Z</time>
      </trkpt>
      <trkpt lat="43.046413" lon="-0.136818">
        <ele>1249.4</ele>
        <time>2018-12-07T15:14:05Z</time>
      </trkpt>
      <trkpt lat="43.046483" lon="-0.136747">
        <ele>1244.2</ele>
        <time>2018-12-07T15:14:38Z</time>
      </trkpt>
      <trkpt lat="43.046526" lon="-0.136625">
        <ele>1244.0</ele>
        <time>2018-12-07T15:14:47Z</time>
      </trkpt>
      <trkpt lat="43.046565" lon="-0.136504">
        <ele>1243.7</ele>
        <time>2018-12-07T15:14:56Z</time>
      </trkpt>
      <trkpt lat="43.046607" lon="-0.136384">
        <ele>1243.1</ele>
        <time>2018-12-07T15:15:05Z</time>
      </trkpt>
      <trkpt lat="43.046654" lon="-0.136254">
        <ele>1241.8</ele>
        <time>2018-12-07T15:15:14Z</time>
      </trkpt>
      <trkpt lat="43.046711" lon="-0.136141">
        <ele>1240.6</ele>
        <time>2018-12-07T15:15:23Z</time>
      </trkpt>
      <trkpt lat="43.046801" lon="-0.136053">
        <ele>1237.9</ele>
        <time>2018-12-07T15:15:34Z</time>
      </trkpt>
      <trkpt lat="43.046870" lon="-0.135975">
        <ele>1235.2</ele>
        <time>2018-12-07T15:15:42Z</time>
      </trkpt>
      <trkpt lat="43.046943" lon="-0.135865">
        <ele>1231.3</ele>
        <time>2018-12-07T15:15:53Z</time>
      </trkpt>
      <trkpt lat="43.046982" lon="-0.135746">
        <ele>1229.6</ele>
        <time>2018-12-07T15:16:01Z</time>
      </trkpt>
      <trkpt lat="43.047034" lon="-0.135609">
        <ele>1228.6</ele>
        <time>2018-12-07T15:16:11Z</time>
      </trkpt>
      <trkpt lat="43.047113" lon="-0.135538">
        <ele>1226.9</ele>
        <time>2018-12-07T15:16:20Z</time>
      </trkpt>
      <trkpt lat="43.047192" lon="-0.135460">
        <ele>1223.0</ele>
        <time>2018-12-07T15:16:29Z</time>
      </trkpt>
      <trkpt lat="43.047270" lon="-0.135375">
        <ele>1219.9</ele>
        <time>2018-12-07T15:16:38Z</time>
      </trkpt>
      <trkpt lat="43.047334" lon="-0.135243">
        <ele>1216.9</ele>
        <time>2018-12-07T15:16:48Z</time>
      </trkpt>
      <trkpt lat="43.047405" lon="-0.135134">
        <ele>1214.8</ele>
        <time>2018-12-07T15:16:57Z</time>
      </trkpt>
      <trkpt lat="43.047477" lon="-0.135050">
        <ele>1212.9</ele>
        <time>2018-12-07T15:17:05Z</time>
      </trkpt>
      <trkpt lat="43.047505" lon="-0.134913">
        <ele>1210.7</ele>
        <time>2018-12-07T15:17:16Z</time>
      </trkpt>
      <trkpt lat="43.047533" lon="-0.134792">
        <ele>1209.6</ele>
        <time>2018-12-07T15:17:25Z</time>
      </trkpt>
      <trkpt lat="43.047578" lon="-0.134693">
        <ele>1207.6</ele>
        <time>2018-12-07T15:17:34Z</time>
      </trkpt>
      <trkpt lat="43.047644" lon="-0.134594">
        <ele>1206.2</ele>
        <time>2018-12-07T15:17:45Z</time>
      </trkpt>
      <trkpt lat="43.047661" lon="-0.134514">
        <ele>1205.2</ele>
        <time>2018-12-07T15:18:34Z</time>
      </trkpt>
      <trkpt lat="43.047793" lon="-0.134501">
        <ele>1225.7</ele>
        <time>2018-12-07T15:20:24Z</time>
      </trkpt>
      <trkpt lat="43.047794" lon="-0.134279">
        <ele>1225.4</ele>
        <time>2018-12-07T15:20:34Z</time>
      </trkpt>
      <trkpt lat="43.047893" lon="-0.134177">
        <ele>1223.6</ele>
        <time>2018-12-07T15:20:46Z</time>
      </trkpt>
      <trkpt lat="43.047951" lon="-0.134093">
        <ele>1222.0</ele>
        <time>2018-12-07T15:20:54Z</time>
      </trkpt>
      <trkpt lat="43.048035" lon="-0.134010">
        <ele>1219.8</ele>
        <time>2018-12-07T15:21:02Z</time>
      </trkpt>
      <trkpt lat="43.048098" lon="-0.133910">
        <ele>1216.7</ele>
        <time>2018-12-07T15:21:12Z</time>
      </trkpt>
      <trkpt lat="43.048160" lon="-0.133831">
        <ele>1214.8</ele>
        <time>2018-12-07T15:21:18Z</time>
      </trkpt>
      <trkpt lat="43.048252" lon="-0.133777">
        <ele>1211.7</ele>
        <time>2018-12-07T15:21:28Z</time>
      </trkpt>
      <trkpt lat="43.048336" lon="-0.133714">
        <ele>1209.9</ele>
        <time>2018-12-07T15:21:36Z</time>
      </trkpt>
      <trkpt lat="43.048425" lon="-0.133678">
        <ele>1208.4</ele>
        <time>2018-12-07T15:21:42Z</time>
      </trkpt>
      <trkpt lat="43.048506" lon="-0.133631">
        <ele>1206.9</ele>
        <time>2018-12-07T15:21:47Z</time>
      </trkpt>
      <trkpt lat="43.048584" lon="-0.133557">
        <ele>1204.2</ele>
        <time>2018-12-07T15:22:00Z</time>
      </trkpt>
      <trkpt lat="43.048674" lon="-0.133451">
        <ele>1202.8</ele>
        <time>2018-12-07T15:22:10Z</time>
      </trkpt>
      <trkpt lat="43.048767" lon="-0.133389">
        <ele>1202.3</ele>
        <time>2018-12-07T15:22:17Z</time>
      </trkpt>
      <trkpt lat="43.048858" lon="-0.133301">
        <ele>1201.1</ele>
        <time>2018-12-07T15:22:28Z</time>
      </trkpt>
      <trkpt lat="43.048912" lon="-0.133199">
        <ele>1200.6</ele>
        <time>2018-12-07T15:22:34Z</time>
      </trkpt>
      <trkpt lat="43.048935" lon="-0.133090">
        <ele>1198.6</ele>
        <time>2018-12-07T15:22:44Z</time>
      </trkpt>
      <trkpt lat="43.049056" lon="-0.132947">
        <ele>1196.9</ele>
        <time>2018-12-07T15:22:54Z</time>
      </trkpt>
      <trkpt lat="43.049096" lon="-0.132812">
        <ele>1194.4</ele>
        <time>2018-12-07T15:23:01Z</time>
      </trkpt>
      <trkpt lat="43.049161" lon="-0.132715">
        <ele>1191.2</ele>
        <time>2018-12-07T15:23:08Z</time>
      </trkpt>
      <trkpt lat="43.049244" lon="-0.132641">
        <ele>1189.0</ele>
        <time>2018-12-07T15:23:15Z</time>
      </trkpt>
      <trkpt lat="43.049297" lon="-0.132548">
        <ele>1187.3</ele>
        <time>2018-12-07T15:23:23Z</time>
      </trkpt>
      <trkpt lat="43.049382" lon="-0.132465">
        <ele>1185.9</ele>
        <time>2018-12-07T15:23:31Z</time>
      </trkpt>
      <trkpt lat="43.049440" lon="-0.132362">
        <ele>1185.0</ele>
        <time>2018-12-07T15:23:40Z</time>
      </trkpt>
      <trkpt lat="43.049522" lon="-0.132297">
        <ele>1183.4</ele>
        <time>2018-12-07T15:23:48Z</time>
      </trkpt>
      <trkpt lat="43.049591" lon="-0.132225">
        <ele>1181.3</ele>
        <time>2018-12-07T15:23:57Z</time>
      </trkpt>
      <trkpt lat="43.049640" lon="-0.132124">
        <ele>1180.2</ele>
        <time>2018-12-07T15:24:04Z</time>
      </trkpt>
      <trkpt lat="43.049716" lon="-0.132022">
        <ele>1177.6</ele>
        <time>2018-12-07T15:24:27Z</time>
      </trkpt>
      <trkpt lat="43.049794" lon="-0.131951">
        <ele>1177.1</ele>
        <time>2018-12-07T15:24:35Z</time>
      </trkpt>
      <trkpt lat="43.049859" lon="-0.131884">
        <ele>1176.6</ele>
        <time>2018-12-07T15:24:42Z</time>
      </trkpt>
      <trkpt lat="43.049925" lon="-0.131779">
        <ele>1175.6</ele>
        <time>2018-12-07T15:24:50Z</time>
      </trkpt>
      <trkpt lat="43.050010" lon="-0.131692">
        <ele>1174.4</ele>
        <time>2018-12-07T15:24:58Z</time>
      </trkpt>
      <trkpt lat="43.050079" lon="-0.131611">
        <ele>1173.5</ele>
        <time>2018-12-07T15:25:06Z</time>
      </trkpt>
      <trkpt lat="43.050153" lon="-0.131537">
        <ele>1172.9</ele>
        <time>2018-12-07T15:25:13Z</time>
      </trkpt>
      <trkpt lat="43.050228" lon="-0.131456">
        <ele>1172.5</ele>
        <time>2018-12-07T15:25:21Z</time>
      </trkpt>
      <trkpt lat="43.050301" lon="-0.131365">
        <ele>1172.1</ele>
        <time>2018-12-07T15:25:28Z</time>
      </trkpt>
      <trkpt lat="43.050357" lon="-0.131267">
        <ele>1171.1</ele>
        <time>2018-12-07T15:25:34Z</time>
      </trkpt>
      <trkpt lat="43.050404" lon="-0.131169">
        <ele>1169.8</ele>
        <time>2018-12-07T15:25:40Z</time>
      </trkpt>
      <trkpt lat="43.050450" lon="-0.131063">
        <ele>1168.0</ele>
        <time>2018-12-07T15:25:46Z</time>
      </trkpt>
      <trkpt lat="43.050500" lon="-0.130968">
        <ele>1166.5</ele>
        <time>2018-12-07T15:25:51Z</time>
      </trkpt>
      <trkpt lat="43.050558" lon="-0.130889">
        <ele>1164.9</ele>
        <time>2018-12-07T15:25:57Z</time>
      </trkpt>
      <trkpt lat="43.050619" lon="-0.130837">
        <ele>1164.1</ele>
        <time>2018-12-07T15:26:04Z</time>
      </trkpt>
      <trkpt lat="43.050677" lon="-0.130743">
        <ele>1163.3</ele>
        <time>2018-12-07T15:26:13Z</time>
      </trkpt>
      <trkpt lat="43.050745" lon="-0.130651">
        <ele>1162.2</ele>
        <time>2018-12-07T15:26:21Z</time>
      </trkpt>
      <trkpt lat="43.050796" lon="-0.130538">
        <ele>1161.0</ele>
        <time>2018-12-07T15:26:28Z</time>
      </trkpt>
      <trkpt lat="43.050861" lon="-0.130409">
        <ele>1159.4</ele>
        <time>2018-12-07T15:26:36Z</time>
      </trkpt>
      <trkpt lat="43.050912" lon="-0.130293">
        <ele>1157.8</ele>
        <time>2018-12-07T15:26:44Z</time>
      </trkpt>
      <trkpt lat="43.050928" lon="-0.130165">
        <ele>1155.4</ele>
        <time>2018-12-07T15:26:51Z</time>
      </trkpt>
      <trkpt lat="43.050978" lon="-0.130053">
        <ele>1152.9</ele>
        <time>2018-12-07T15:26:58Z</time>
      </trkpt>
      <trkpt lat="43.051030" lon="-0.129945">
        <ele>1151.1</ele>
        <time>2018-12-07T15:27:06Z</time>
      </trkpt>
      <trkpt lat="43.051088" lon="-0.129834">
        <ele>1148.7</ele>
        <time>2018-12-07T15:27:15Z</time>
      </trkpt>
      <trkpt lat="43.051176" lon="-0.129736">
        <ele>1148.2</ele>
        <time>2018-12-07T15:27:24Z</time>
      </trkpt>
      <trkpt lat="43.051218" lon="-0.129589">
        <ele>1149.1</ele>
        <time>2018-12-07T15:27:32Z</time>
      </trkpt>
      <trkpt lat="43.051279" lon="-0.129481">
        <ele>1149.1</ele>
        <time>2018-12-07T15:27:39Z</time>
      </trkpt>
      <trkpt lat="43.051340" lon="-0.129368">
        <ele>1149.6</ele>
        <time>2018-12-07T15:27:47Z</time>
      </trkpt>
      <trkpt lat="43.051385" lon="-0.129255">
        <ele>1150.1</ele>
        <time>2018-12-07T15:27:54Z</time>
      </trkpt>
      <trkpt lat="43.051408" lon="-0.129150">
        <ele>1149.6</ele>
        <time>2018-12-07T15:28:01Z</time>
      </trkpt>
      <trkpt lat="43.051456" lon="-0.129033">
        <ele>1148.2</ele>
        <time>2018-12-07T15:28:08Z</time>
      </trkpt>
      <trkpt lat="43.051514" lon="-0.128947">
        <ele>1147.7</ele>
        <time>2018-12-07T15:28:15Z</time>
      </trkpt>
      <trkpt lat="43.051555" lon="-0.128838">
        <ele>1147.9</ele>
        <time>2018-12-07T15:28:22Z</time>
      </trkpt>
      <trkpt lat="43.051598" lon="-0.128731">
        <ele>1147.7</ele>
        <time>2018-12-07T15:28:29Z</time>
      </trkpt>
      <trkpt lat="43.051639" lon="-0.128646">
        <ele>1147.3</ele>
        <time>2018-12-07T15:28:36Z</time>
      </trkpt>
      <trkpt lat="43.051680" lon="-0.128554">
        <ele>1147.1</ele>
        <time>2018-12-07T15:28:43Z</time>
      </trkpt>
      <trkpt lat="43.051689" lon="-0.128436">
        <ele>1147.1</ele>
        <time>2018-12-07T15:28:50Z</time>
      </trkpt>
      <trkpt lat="43.051718" lon="-0.128315">
        <ele>1145.8</ele>
        <time>2018-12-07T15:28:58Z</time>
      </trkpt>
      <trkpt lat="43.051764" lon="-0.128209">
        <ele>1145.1</ele>
        <time>2018-12-07T15:29:06Z</time>
      </trkpt>
      <trkpt lat="43.051799" lon="-0.128121">
        <ele>1145.7</ele>
        <time>2018-12-07T15:29:23Z</time>
      </trkpt>
      <trkpt lat="43.051837" lon="-0.128003">
        <ele>1146.0</ele>
        <time>2018-12-07T15:29:32Z</time>
      </trkpt>
      <trkpt lat="43.051875" lon="-0.127881">
        <ele>1146.2</ele>
        <time>2018-12-07T15:29:39Z</time>
      </trkpt>
      <trkpt lat="43.051886" lon="-0.127760">
        <ele>1144.3</ele>
        <time>2018-12-07T15:29:47Z</time>
      </trkpt>
      <trkpt lat="43.051926" lon="-0.127648">
        <ele>1142.8</ele>
        <time>2018-12-07T15:29:54Z</time>
      </trkpt>
      <trkpt lat="43.051994" lon="-0.127544">
        <ele>1141.6</ele>
        <time>2018-12-07T15:30:02Z</time>
      </trkpt>
      <trkpt lat="43.052053" lon="-0.127458">
        <ele>1141.1</ele>
        <time>2018-12-07T15:30:09Z</time>
      </trkpt>
      <trkpt lat="43.052122" lon="-0.127386">
        <ele>1139.9</ele>
        <time>2018-12-07T15:30:18Z</time>
      </trkpt>
      <trkpt lat="43.052207" lon="-0.127344">
        <ele>1139.0</ele>
        <time>2018-12-07T15:30:26Z</time>
      </trkpt>
      <trkpt lat="43.052274" lon="-0.127291">
        <ele>1137.1</ele>
        <time>2018-12-07T15:30:35Z</time>
      </trkpt>
      <trkpt lat="43.052316" lon="-0.127169">
        <ele>1134.8</ele>
        <time>2018-12-07T15:30:44Z</time>
      </trkpt>
      <trkpt lat="43.052354" lon="-0.127029">
        <ele>1134.7</ele>
        <time>2018-12-07T15:30:52Z</time>
      </trkpt>
      <trkpt lat="43.052393" lon="-0.126915">
        <ele>1134.4</ele>
        <time>2018-12-07T15:30:59Z</time>
      </trkpt>
      <trkpt lat="43.052450" lon="-0.126805">
        <ele>1134.1</ele>
        <time>2018-12-07T15:31:06Z</time>
      </trkpt>
      <trkpt lat="43.052481" lon="-0.126688">
        <ele>1133.6</ele>
        <time>2018-12-07T15:31:13Z</time>
      </trkpt>
      <trkpt lat="43.052484" lon="-0.126560">
        <ele>1132.0</ele>
        <time>2018-12-07T15:31:22Z</time>
      </trkpt>
      <trkpt lat="43.052504" lon="-0.126436">
        <ele>1130.2</ele>
        <time>2018-12-07T15:31:30Z</time>
      </trkpt>
      <trkpt lat="43.052556" lon="-0.126308">
        <ele>1128.0</ele>
        <time>2018-12-07T15:31:39Z</time>
      </trkpt>
      <trkpt lat="43.052600" lon="-0.126204">
        <ele>1126.4</ele>
        <time>2018-12-07T15:31:46Z</time>
      </trkpt>
      <trkpt lat="43.052626" lon="-0.126093">
        <ele>1124.9</ele>
        <time>2018-12-07T15:31:53Z</time>
      </trkpt>
      <trkpt lat="43.052676" lon="-0.125978">
        <ele>1123.8</ele>
        <time>2018-12-07T15:32:02Z</time>
      </trkpt>
      <trkpt lat="43.052694" lon="-0.125854">
        <ele>1122.2</ele>
        <time>2018-12-07T15:32:10Z</time>
      </trkpt>
      <trkpt lat="43.052725" lon="-0.125749">
        <ele>1120.0</ele>
        <time>2018-12-07T15:32:19Z</time>
      </trkpt>
      <trkpt lat="43.052761" lon="-0.125623">
        <ele>1117.9</ele>
        <time>2018-12-07T15:32:32Z</time>
      </trkpt>
      <trkpt lat="43.052766" lon="-0.125487">
        <ele>1115.2</ele>
        <time>2018-12-07T15:32:43Z</time>
      </trkpt>
      <trkpt lat="43.052781" lon="-0.125381">
        <ele>1111.5</ele>
        <time>2018-12-07T15:32:57Z</time>
      </trkpt>
      <trkpt lat="43.052831" lon="-0.125276">
        <ele>1110.2</ele>
        <time>2018-12-07T15:33:04Z</time>
      </trkpt>
      <trkpt lat="43.052890" lon="-0.125175">
        <ele>1108.3</ele>
        <time>2018-12-07T15:33:13Z</time>
      </trkpt>
      <trkpt lat="43.052935" lon="-0.125064">
        <ele>1106.1</ele>
        <time>2018-12-07T15:33:21Z</time>
      </trkpt>
      <trkpt lat="43.052979" lon="-0.124939">
        <ele>1103.2</ele>
        <time>2018-12-07T15:33:30Z</time>
      </trkpt>
      <trkpt lat="43.053046" lon="-0.124854">
        <ele>1101.0</ele>
        <time>2018-12-07T15:33:38Z</time>
      </trkpt>
      <trkpt lat="43.053122" lon="-0.124801">
        <ele>1099.2</ele>
        <time>2018-12-07T15:33:46Z</time>
      </trkpt>
      <trkpt lat="43.053218" lon="-0.124753">
        <ele>1098.2</ele>
        <time>2018-12-07T15:33:58Z</time>
      </trkpt>
      <trkpt lat="43.053296" lon="-0.124662">
        <ele>1096.9</ele>
        <time>2018-12-07T15:34:08Z</time>
      </trkpt>
      <trkpt lat="43.053366" lon="-0.124580">
        <ele>1094.2</ele>
        <time>2018-12-07T15:34:16Z</time>
      </trkpt>
      <trkpt lat="43.053437" lon="-0.124490">
        <ele>1091.3</ele>
        <time>2018-12-07T15:34:25Z</time>
      </trkpt>
      <trkpt lat="43.053524" lon="-0.124427">
        <ele>1088.6</ele>
        <time>2018-12-07T15:34:34Z</time>
      </trkpt>
      <trkpt lat="43.053537" lon="-0.124289">
        <ele>1085.7</ele>
        <time>2018-12-07T15:34:45Z</time>
      </trkpt>
      <trkpt lat="43.053566" lon="-0.124155">
        <ele>1082.4</ele>
        <time>2018-12-07T15:34:54Z</time>
      </trkpt>
      <trkpt lat="43.053581" lon="-0.124002">
        <ele>1078.1</ele>
        <time>2018-12-07T15:35:07Z</time>
      </trkpt>
      <trkpt lat="43.053589" lon="-0.123825">
        <ele>1074.4</ele>
        <time>2018-12-07T15:35:18Z</time>
      </trkpt>
      <trkpt lat="43.053532" lon="-0.123726">
        <ele>1070.1</ele>
        <time>2018-12-07T15:35:31Z</time>
      </trkpt>
      <trkpt lat="43.053413" lon="-0.123781">
        <ele>1065.7</ele>
        <time>2018-12-07T15:35:43Z</time>
      </trkpt>
      <trkpt lat="43.053285" lon="-0.123876">
        <ele>1063.4</ele>
        <time>2018-12-07T15:35:54Z</time>
      </trkpt>
      <trkpt lat="43.053281" lon="-0.123813">
        <ele>1060.3</ele>
        <time>2018-12-07T15:36:06Z</time>
      </trkpt>
      <trkpt lat="43.053310" lon="-0.123684">
        <ele>1056.4</ele>
        <time>2018-12-07T15:36:22Z</time>
      </trkpt>
      <trkpt lat="43.053327" lon="-0.123560">
        <ele>1051.9</ele>
        <time>2018-12-07T15:36:34Z</time>
      </trkpt>
      <trkpt lat="43.053375" lon="-0.123417">
        <ele>1049.5</ele>
        <time>2018-12-07T15:36:45Z</time>
      </trkpt>
      <trkpt lat="43.053380" lon="-0.123278">
        <ele>1044.9</ele>
        <time>2018-12-07T15:37:02Z</time>
      </trkpt>
      <trkpt lat="43.053268" lon="-0.123323">
        <ele>1040.8</ele>
        <time>2018-12-07T15:37:17Z</time>
      </trkpt>
      <trkpt lat="43.053179" lon="-0.123403">
        <ele>1038.7</ele>
        <time>2018-12-07T15:37:28Z</time>
      </trkpt>
      <trkpt lat="43.053093" lon="-0.123501">
        <ele>1037.1</ele>
        <time>2018-12-07T15:37:37Z</time>
      </trkpt>
      <trkpt lat="43.053105" lon="-0.123406">
        <ele>1034.8</ele>
        <time>2018-12-07T15:38:24Z</time>
      </trkpt>
      <trkpt lat="43.053126" lon="-0.123284">
        <ele>1031.8</ele>
        <time>2018-12-07T15:38:32Z</time>
      </trkpt>
      <trkpt lat="43.053116" lon="-0.123148">
        <ele>1029.1</ele>
        <time>2018-12-07T15:38:44Z</time>
      </trkpt>
      <trkpt lat="43.053179" lon="-0.123032">
        <ele>1025.6</ele>
        <time>2018-12-07T15:38:53Z</time>
      </trkpt>
      <trkpt lat="43.053247" lon="-0.122940">
        <ele>1021.5</ele>
        <time>2018-12-07T15:39:05Z</time>
      </trkpt>
      <trkpt lat="43.053273" lon="-0.122791">
        <ele>1017.7</ele>
        <time>2018-12-07T15:39:16Z</time>
      </trkpt>
      <trkpt lat="43.053351" lon="-0.122691">
        <ele>1013.8</ele>
        <time>2018-12-07T15:39:25Z</time>
      </trkpt>
      <trkpt lat="43.053427" lon="-0.122615">
        <ele>1011.0</ele>
        <time>2018-12-07T15:39:36Z</time>
      </trkpt>
      <trkpt lat="43.053500" lon="-0.122528">
        <ele>1007.8</ele>
        <time>2018-12-07T15:39:48Z</time>
      </trkpt>
      <trkpt lat="43.053593" lon="-0.122453">
        <ele>1005.6</ele>
        <time>2018-12-07T15:39:57Z</time>
      </trkpt>
      <trkpt lat="43.053644" lon="-0.122348">
        <ele>1003.9</ele>
        <time>2018-12-07T15:40:05Z</time>
      </trkpt>
      <trkpt lat="43.053707" lon="-0.122252">
        <ele>1001.3</ele>
        <time>2018-12-07T15:40:14Z</time>
      </trkpt>
      <trkpt lat="43.053768" lon="-0.122141">
        <ele>998.3</ele>
        <time>2018-12-07T15:40:23Z</time>
      </trkpt>
      <trkpt lat="43.053822" lon="-0.122047">
        <ele>995.7</ele>
        <time>2018-12-07T15:40:31Z</time>
      </trkpt>
      <trkpt lat="43.053885" lon="-0.121956">
        <ele>993.3</ele>
        <time>2018-12-07T15:40:39Z</time>
      </trkpt>
      <trkpt lat="43.053933" lon="-0.121837">
        <ele>990.1</ele>
        <time>2018-12-07T15:40:49Z</time>
      </trkpt>
      <trkpt lat="43.054004" lon="-0.121724">
        <ele>985.7</ele>
        <time>2018-12-07T15:41:01Z</time>
      </trkpt>
      <trkpt lat="43.054073" lon="-0.121615">
        <ele>984.1</ele>
        <time>2018-12-07T15:41:11Z</time>
      </trkpt>
      <trkpt lat="43.054145" lon="-0.121516">
        <ele>981.5</ele>
        <time>2018-12-07T15:41:20Z</time>
      </trkpt>
      <trkpt lat="43.054217" lon="-0.121436">
        <ele>979.0</ele>
        <time>2018-12-07T15:41:28Z</time>
      </trkpt>
      <trkpt lat="43.054272" lon="-0.121328">
        <ele>976.2</ele>
        <time>2018-12-07T15:41:39Z</time>
      </trkpt>
      <trkpt lat="43.054361" lon="-0.121262">
        <ele>973.6</ele>
        <time>2018-12-07T15:42:03Z</time>
      </trkpt>
      <trkpt lat="43.054420" lon="-0.121165">
        <ele>971.8</ele>
        <time>2018-12-07T15:42:13Z</time>
      </trkpt>
      <trkpt lat="43.054482" lon="-0.121075">
        <ele>969.5</ele>
        <time>2018-12-07T15:42:22Z</time>
      </trkpt>
      <trkpt lat="43.054572" lon="-0.121009">
        <ele>966.7</ele>
        <time>2018-12-07T15:42:33Z</time>
      </trkpt>
      <trkpt lat="43.054673" lon="-0.120995">
        <ele>964.6</ele>
        <time>2018-12-07T15:42:42Z</time>
      </trkpt>
      <trkpt lat="43.054758" lon="-0.120942">
        <ele>962.4</ele>
        <time>2018-12-07T15:42:50Z</time>
      </trkpt>
      <trkpt lat="43.054835" lon="-0.120873">
        <ele>960.2</ele>
        <time>2018-12-07T15:42:58Z</time>
      </trkpt>
      <trkpt lat="43.054911" lon="-0.120800">
        <ele>958.2</ele>
        <time>2018-12-07T15:43:06Z</time>
      </trkpt>
      <trkpt lat="43.054997" lon="-0.120704">
        <ele>957.2</ele>
        <time>2018-12-07T15:43:14Z</time>
      </trkpt>
      <trkpt lat="43.055062" lon="-0.120672">
        <ele>955.8</ele>
        <time>2018-12-07T15:43:21Z</time>
      </trkpt>
      <trkpt lat="43.055123" lon="-0.120581">
        <ele>954.7</ele>
        <time>2018-12-07T15:43:30Z</time>
      </trkpt>
      <trkpt lat="43.055189" lon="-0.120494">
        <ele>953.2</ele>
        <time>2018-12-07T15:43:37Z</time>
      </trkpt>
      <trkpt lat="43.055258" lon="-0.120411">
        <ele>950.8</ele>
        <time>2018-12-07T15:43:45Z</time>
      </trkpt>
      <trkpt lat="43.055335" lon="-0.120352">
        <ele>948.6</ele>
        <time>2018-12-07T15:43:54Z</time>
      </trkpt>
      <trkpt lat="43.055429" lon="-0.120270">
        <ele>946.8</ele>
        <time>2018-12-07T15:44:05Z</time>
      </trkpt>
      <trkpt lat="43.055511" lon="-0.120196">
        <ele>944.5</ele>
        <time>2018-12-07T15:44:12Z</time>
      </trkpt>
      <trkpt lat="43.055580" lon="-0.120104">
        <ele>942.9</ele>
        <time>2018-12-07T15:44:19Z</time>
      </trkpt>
      <trkpt lat="43.055667" lon="-0.120042">
        <ele>941.0</ele>
        <time>2018-12-07T15:44:27Z</time>
      </trkpt>
      <trkpt lat="43.055744" lon="-0.119956">
        <ele>939.8</ele>
        <time>2018-12-07T15:44:34Z</time>
      </trkpt>
      <trkpt lat="43.055870" lon="-0.119914">
        <ele>937.7</ele>
        <time>2018-12-07T15:44:44Z</time>
      </trkpt>
      <trkpt lat="43.055962" lon="-0.119914">
        <ele>936.7</ele>
        <time>2018-12-07T15:44:58Z</time>
      </trkpt>
      <trkpt lat="43.056049" lon="-0.119883">
        <ele>934.5</ele>
        <time>2018-12-07T15:45:07Z</time>
      </trkpt>
      <trkpt lat="43.056128" lon="-0.119802">
        <ele>932.8</ele>
        <time>2018-12-07T15:45:15Z</time>
      </trkpt>
      <trkpt lat="43.056211" lon="-0.119748">
        <ele>931.0</ele>
        <time>2018-12-07T15:45:24Z</time>
      </trkpt>
      <trkpt lat="43.056309" lon="-0.119683">
        <ele>929.5</ele>
        <time>2018-12-07T15:45:32Z</time>
      </trkpt>
      <trkpt lat="43.056379" lon="-0.119603">
        <ele>928.2</ele>
        <time>2018-12-07T15:45:41Z</time>
      </trkpt>
      <trkpt lat="43.056467" lon="-0.119541">
        <ele>926.5</ele>
        <time>2018-12-07T15:45:49Z</time>
      </trkpt>
      <trkpt lat="43.056532" lon="-0.119461">
        <ele>925.7</ele>
        <time>2018-12-07T15:45:57Z</time>
      </trkpt>
      <trkpt lat="43.056606" lon="-0.119377">
        <ele>924.6</ele>
        <time>2018-12-07T15:46:06Z</time>
      </trkpt>
      <trkpt lat="43.056680" lon="-0.119315">
        <ele>923.0</ele>
        <time>2018-12-07T15:46:15Z</time>
      </trkpt>
      <trkpt lat="43.056752" lon="-0.119214">
        <ele>921.9</ele>
        <time>2018-12-07T15:46:24Z</time>
      </trkpt>
      <trkpt lat="43.056834" lon="-0.119163">
        <ele>921.1</ele>
        <time>2018-12-07T15:46:32Z</time>
      </trkpt>
      <trkpt lat="43.056896" lon="-0.119060">
        <ele>919.8</ele>
        <time>2018-12-07T15:46:42Z</time>
      </trkpt>
      <trkpt lat="43.056944" lon="-0.118965">
        <ele>917.8</ele>
        <time>2018-12-07T15:46:50Z</time>
      </trkpt>
      <trkpt lat="43.056999" lon="-0.118871">
        <ele>916.0</ele>
        <time>2018-12-07T15:46:59Z</time>
      </trkpt>
      <trkpt lat="43.057083" lon="-0.118816">
        <ele>914.1</ele>
        <time>2018-12-07T15:47:07Z</time>
      </trkpt>
      <trkpt lat="43.057147" lon="-0.118713">
        <ele>912.6</ele>
        <time>2018-12-07T15:47:18Z</time>
      </trkpt>
      <trkpt lat="43.057211" lon="-0.118619">
        <ele>911.0</ele>
        <time>2018-12-07T15:47:27Z</time>
      </trkpt>
      <trkpt lat="43.057282" lon="-0.118520">
        <ele>908.2</ele>
        <time>2018-12-07T15:47:36Z</time>
      </trkpt>
      <trkpt lat="43.057337" lon="-0.118422">
        <ele>906.5</ele>
        <time>2018-12-07T15:47:44Z</time>
      </trkpt>
      <trkpt lat="43.057417" lon="-0.118363">
        <ele>905.0</ele>
        <time>2018-12-07T15:47:52Z</time>
      </trkpt>
      <trkpt lat="43.057494" lon="-0.118279">
        <ele>903.3</ele>
        <time>2018-12-07T15:48:01Z</time>
      </trkpt>
      <trkpt lat="43.057586" lon="-0.118243">
        <ele>901.4</ele>
        <time>2018-12-07T15:48:08Z</time>
      </trkpt>
      <trkpt lat="43.057669" lon="-0.118209">
        <ele>899.9</ele>
        <time>2018-12-07T15:48:15Z</time>
      </trkpt>
      <trkpt lat="43.057712" lon="-0.118095">
        <ele>899.5</ele>
        <time>2018-12-07T15:48:24Z</time>
      </trkpt>
      <trkpt lat="43.057776" lon="-0.118012">
        <ele>898.3</ele>
        <time>2018-12-07T15:48:32Z</time>
      </trkpt>
      <trkpt lat="43.057861" lon="-0.117958">
        <ele>897.7</ele>
        <time>2018-12-07T15:48:40Z</time>
      </trkpt>
      <trkpt lat="43.057946" lon="-0.117893">
        <ele>897.2</ele>
        <time>2018-12-07T15:48:48Z</time>
      </trkpt>
      <trkpt lat="43.058011" lon="-0.117808">
        <ele>896.3</ele>
        <time>2018-12-07T15:48:55Z</time>
      </trkpt>
      <trkpt lat="43.058086" lon="-0.117714">
        <ele>895.0</ele>
        <time>2018-12-07T15:49:06Z</time>
      </trkpt>
      <trkpt lat="43.058153" lon="-0.117620">
        <ele>892.2</ele>
        <time>2018-12-07T15:49:16Z</time>
      </trkpt>
      <trkpt lat="43.058154" lon="-0.117537">
        <ele>888.1</ele>
        <time>2018-12-07T15:50:04Z</time>
      </trkpt>
      <trkpt lat="43.058226" lon="-0.117460">
        <ele>887.6</ele>
        <time>2018-12-07T15:50:12Z</time>
      </trkpt>
      <trkpt lat="43.058286" lon="-0.117369">
        <ele>886.1</ele>
        <time>2018-12-07T15:50:19Z</time>
      </trkpt>
      <trkpt lat="43.058335" lon="-0.117281">
        <ele>884.3</ele>
        <time>2018-12-07T15:50:25Z</time>
      </trkpt>
      <trkpt lat="43.058384" lon="-0.117172">
        <ele>882.5</ele>
        <time>2018-12-07T15:50:32Z</time>
      </trkpt>
      <trkpt lat="43.058470" lon="-0.117090">
        <ele>879.8</ele>
        <time>2018-12-07T15:50:40Z</time>
      </trkpt>
      <trkpt lat="43.058524" lon="-0.116971">
        <ele>878.3</ele>
        <time>2018-12-07T15:50:49Z</time>
      </trkpt>
      <trkpt lat="43.058567" lon="-0.116858">
        <ele>876.2</ele>
        <time>2018-12-07T15:50:58Z</time>
      </trkpt>
      <trkpt lat="43.058582" lon="-0.116723">
        <ele>873.3</ele>
        <time>2018-12-07T15:51:09Z</time>
      </trkpt>
      <trkpt lat="43.058658" lon="-0.116618">
        <ele>871.2</ele>
        <time>2018-12-07T15:51:17Z</time>
      </trkpt>
      <trkpt lat="43.058721" lon="-0.116493">
        <ele>869.5</ele>
        <time>2018-12-07T15:51:26Z</time>
      </trkpt>
      <trkpt lat="43.058766" lon="-0.116397">
        <ele>866.5</ele>
        <time>2018-12-07T15:51:40Z</time>
      </trkpt>
      <trkpt lat="43.058827" lon="-0.116288">
        <ele>864.7</ele>
        <time>2018-12-07T15:51:51Z</time>
      </trkpt>
      <trkpt lat="43.058859" lon="-0.116151">
        <ele>862.3</ele>
        <time>2018-12-07T15:52:05Z</time>
      </trkpt>
      <trkpt lat="43.058942" lon="-0.116056">
        <ele>861.0</ele>
        <time>2018-12-07T15:52:15Z</time>
      </trkpt>
      <trkpt lat="43.059021" lon="-0.115978">
        <ele>860.3</ele>
        <time>2018-12-07T15:52:24Z</time>
      </trkpt>
      <trkpt lat="43.059102" lon="-0.115918">
        <ele>860.4</ele>
        <time>2018-12-07T15:52:34Z</time>
      </trkpt>
      <trkpt lat="43.059118" lon="-0.115797">
        <ele>858.0</ele>
        <time>2018-12-07T15:52:48Z</time>
      </trkpt>
      <trkpt lat="43.059185" lon="-0.115704">
        <ele>855.8</ele>
        <time>2018-12-07T15:52:57Z</time>
      </trkpt>
      <trkpt lat="43.059222" lon="-0.115587">
        <ele>853.7</ele>
        <time>2018-12-07T15:53:09Z</time>
      </trkpt>
      <trkpt lat="43.059244" lon="-0.115460">
        <ele>851.2</ele>
        <time>2018-12-07T15:53:21Z</time>
      </trkpt>
      <trkpt lat="43.059299" lon="-0.115350">
        <ele>847.8</ele>
        <time>2018-12-07T15:53:33Z</time>
      </trkpt>
      <trkpt lat="43.059372" lon="-0.115247">
        <ele>845.5</ele>
        <time>2018-12-07T15:53:44Z</time>
      </trkpt>
      <trkpt lat="43.059426" lon="-0.115139">
        <ele>843.7</ele>
        <time>2018-12-07T15:53:54Z</time>
      </trkpt>
      <trkpt lat="43.059486" lon="-0.115040">
        <ele>842.3</ele>
        <time>2018-12-07T15:54:04Z</time>
      </trkpt>
      <trkpt lat="43.059550" lon="-0.114957">
        <ele>840.3</ele>
        <time>2018-12-07T15:54:13Z</time>
      </trkpt>
      <trkpt lat="43.059599" lon="-0.114862">
        <ele>838.3</ele>
        <time>2018-12-07T15:54:22Z</time>
      </trkpt>
      <trkpt lat="43.059657" lon="-0.114773">
        <ele>836.0</ele>
        <time>2018-12-07T15:54:30Z</time>
      </trkpt>
      <trkpt lat="43.059721" lon="-0.114693">
        <ele>834.2</ele>
        <time>2018-12-07T15:54:38Z</time>
      </trkpt>
      <trkpt lat="43.059767" lon="-0.114589">
        <ele>831.3</ele>
        <time>2018-12-07T15:54:50Z</time>
      </trkpt>
      <trkpt lat="43.059837" lon="-0.114500">
        <ele>829.6</ele>
        <time>2018-12-07T15:54:59Z</time>
      </trkpt>
      <trkpt lat="43.059914" lon="-0.114407">
        <ele>828.4</ele>
        <time>2018-12-07T15:55:08Z</time>
      </trkpt>
      <trkpt lat="43.059968" lon="-0.114288">
        <ele>827.0</ele>
        <time>2018-12-07T15:55:17Z</time>
      </trkpt>
      <trkpt lat="43.060006" lon="-0.114183">
        <ele>824.4</ele>
        <time>2018-12-07T15:55:26Z</time>
      </trkpt>
      <trkpt lat="43.060078" lon="-0.114100">
        <ele>822.5</ele>
        <time>2018-12-07T15:55:35Z</time>
      </trkpt>
      <trkpt lat="43.060159" lon="-0.114056">
        <ele>820.9</ele>
        <time>2018-12-07T15:55:43Z</time>
      </trkpt>
      <trkpt lat="43.060232" lon="-0.113979">
        <ele>819.7</ele>
        <time>2018-12-07T15:55:52Z</time>
      </trkpt>
      <trkpt lat="43.060310" lon="-0.113922">
        <ele>818.4</ele>
        <time>2018-12-07T15:56:00Z</time>
      </trkpt>
      <trkpt lat="43.060382" lon="-0.113848">
        <ele>818.1</ele>
        <time>2018-12-07T15:56:08Z</time>
      </trkpt>
      <trkpt lat="43.060438" lon="-0.113755">
        <ele>817.3</ele>
        <time>2018-12-07T15:56:16Z</time>
      </trkpt>
      <trkpt lat="43.060493" lon="-0.113650">
        <ele>815.6</ele>
        <time>2018-12-07T15:56:24Z</time>
      </trkpt>
      <trkpt lat="43.060546" lon="-0.113560">
        <ele>814.0</ele>
        <time>2018-12-07T15:56:32Z</time>
      </trkpt>
      <trkpt lat="43.060600" lon="-0.113446">
        <ele>812.7</ele>
        <time>2018-12-07T15:56:40Z</time>
      </trkpt>
      <trkpt lat="43.060659" lon="-0.113339">
        <ele>811.2</ele>
        <time>2018-12-07T15:56:48Z</time>
      </trkpt>
      <trkpt lat="43.060716" lon="-0.113228">
        <ele>810.0</ele>
        <time>2018-12-07T15:56:57Z</time>
      </trkpt>
      <trkpt lat="43.060769" lon="-0.113094">
        <ele>809.2</ele>
        <time>2018-12-07T15:57:06Z</time>
      </trkpt>
      <trkpt lat="43.060805" lon="-0.112978">
        <ele>808.1</ele>
        <time>2018-12-07T15:57:21Z</time>
      </trkpt>
      <trkpt lat="43.060851" lon="-0.112851">
        <ele>807.5</ele>
        <time>2018-12-07T15:57:30Z</time>
      </trkpt>
      <trkpt lat="43.060908" lon="-0.112737">
        <ele>806.5</ele>
        <time>2018-12-07T15:57:40Z</time>
      </trkpt>
      <trkpt lat="43.060969" lon="-0.112630">
        <ele>806.1</ele>
        <time>2018-12-07T15:57:49Z</time>
      </trkpt>
      <trkpt lat="43.061028" lon="-0.112537">
        <ele>805.8</ele>
        <time>2018-12-07T15:57:59Z</time>
      </trkpt>
      <trkpt lat="43.061072" lon="-0.112419">
        <ele>805.1</ele>
        <time>2018-12-07T15:58:08Z</time>
      </trkpt>
      <trkpt lat="43.061121" lon="-0.112297">
        <ele>803.7</ele>
        <time>2018-12-07T15:58:17Z</time>
      </trkpt>
      <trkpt lat="43.061202" lon="-0.112202">
        <ele>802.5</ele>
        <time>2018-12-07T15:58:25Z</time>
      </trkpt>
      <trkpt lat="43.061276" lon="-0.112100">
        <ele>801.1</ele>
        <time>2018-12-07T15:58:34Z</time>
      </trkpt>
      <trkpt lat="43.061350" lon="-0.112016">
        <ele>800.5</ele>
        <time>2018-12-07T15:58:41Z</time>
      </trkpt>
      <trkpt lat="43.061424" lon="-0.111932">
        <ele>799.5</ele>
        <time>2018-12-07T15:58:49Z</time>
      </trkpt>
      <trkpt lat="43.061478" lon="-0.111827">
        <ele>798.7</ele>
        <time>2018-12-07T15:58:58Z</time>
      </trkpt>
      <trkpt lat="43.061470" lon="-0.111705">
        <ele>796.7</ele>
        <time>2018-12-07T15:59:08Z</time>
      </trkpt>
      <trkpt lat="43.061497" lon="-0.111590">
        <ele>794.1</ele>
        <time>2018-12-07T15:59:17Z</time>
      </trkpt>
      <trkpt lat="43.061477" lon="-0.111488">
        <ele>790.3</ele>
        <time>2018-12-07T15:59:30Z</time>
      </trkpt>
      <trkpt lat="43.061547" lon="-0.111373">
        <ele>787.9</ele>
        <time>2018-12-07T15:59:40Z</time>
      </trkpt>
      <trkpt lat="43.061603" lon="-0.111279">
        <ele>786.6</ele>
        <time>2018-12-07T15:59:50Z</time>
      </trkpt>
      <trkpt lat="43.061512" lon="-0.111227">
        <ele>783.7</ele>
        <time>2018-12-07T16:00:07Z</time>
      </trkpt>
      <trkpt lat="43.061417" lon="-0.111262">
        <ele>781.7</ele>
        <time>2018-12-07T16:00:30Z</time>
      </trkpt>
      <trkpt lat="43.061304" lon="-0.111305">
        <ele>780.2</ele>
        <time>2018-12-07T16:00:43Z</time>
      </trkpt>
      <trkpt lat="43.061176" lon="-0.111367">
        <ele>777.2</ele>
        <time>2018-12-07T16:00:59Z</time>
      </trkpt>
      <trkpt lat="43.061033" lon="-0.111399">
        <ele>775.2</ele>
        <time>2018-12-07T16:01:10Z</time>
      </trkpt>
      <trkpt lat="43.060914" lon="-0.111385">
        <ele>773.9</ele>
        <time>2018-12-07T16:01:20Z</time>
      </trkpt>
      <trkpt lat="43.060798" lon="-0.111335">
        <ele>773.2</ele>
        <time>2018-12-07T16:01:32Z</time>
      </trkpt>
      <trkpt lat="43.060708" lon="-0.111251">
        <ele>772.3</ele>
        <time>2018-12-07T16:01:45Z</time>
      </trkpt>
      <trkpt lat="43.060593" lon="-0.111095">
        <ele>771.2</ele>
        <time>2018-12-07T16:01:57Z</time>
      </trkpt>
      <trkpt lat="43.060511" lon="-0.111020">
        <ele>770.8</ele>
        <time>2018-12-07T16:02:07Z</time>
      </trkpt>
      <trkpt lat="43.060421" lon="-0.110922">
        <ele>770.9</ele>
        <time>2018-12-07T16:02:19Z</time>
      </trkpt>
      <trkpt lat="43.060373" lon="-0.110784">
        <ele>770.4</ele>
        <time>2018-12-07T16:02:30Z</time>
      </trkpt>
      <trkpt lat="43.060436" lon="-0.110733">
        <ele>769.5</ele>
        <time>2018-12-07T16:03:16Z</time>
      </trkpt>
      <trkpt lat="43.060478" lon="-0.110607">
        <ele>769.0</ele>
        <time>2018-12-07T16:03:26Z</time>
      </trkpt>
      <trkpt lat="43.060530" lon="-0.110496">
        <ele>768.5</ele>
        <time>2018-12-07T16:03:34Z</time>
      </trkpt>
      <trkpt lat="43.060595" lon="-0.110391">
        <ele>768.0</ele>
        <time>2018-12-07T16:03:42Z</time>
      </trkpt>
      <trkpt lat="43.060654" lon="-0.110279">
        <ele>767.5</ele>
        <time>2018-12-07T16:03:50Z</time>
      </trkpt>
      <trkpt lat="43.060717" lon="-0.110178">
        <ele>767.2</ele>
        <time>2018-12-07T16:03:57Z</time>
      </trkpt>
      <trkpt lat="43.060759" lon="-0.110062">
        <ele>766.6</ele>
        <time>2018-12-07T16:04:04Z</time>
      </trkpt>
      <trkpt lat="43.060810" lon="-0.109956">
        <ele>766.1</ele>
        <time>2018-12-07T16:04:11Z</time>
      </trkpt>
      <trkpt lat="43.060860" lon="-0.109836">
        <ele>765.6</ele>
        <time>2018-12-07T16:04:18Z</time>
      </trkpt>
      <trkpt lat="43.060889" lon="-0.109701">
        <ele>765.1</ele>
        <time>2018-12-07T16:04:26Z</time>
      </trkpt>
      <trkpt lat="43.060952" lon="-0.109569">
        <ele>764.1</ele>
        <time>2018-12-07T16:04:34Z</time>
      </trkpt>
      <trkpt lat="43.061005" lon="-0.109438">
        <ele>763.5</ele>
        <time>2018-12-07T16:04:41Z</time>
      </trkpt>
      <trkpt lat="43.061026" lon="-0.109301">
        <ele>762.9</ele>
        <time>2018-12-07T16:04:48Z</time>
      </trkpt>
      <trkpt lat="43.061061" lon="-0.109193">
        <ele>762.1</ele>
        <time>2018-12-07T16:04:55Z</time>
      </trkpt>
      <trkpt lat="43.061120" lon="-0.109081">
        <ele>761.5</ele>
        <time>2018-12-07T16:05:03Z</time>
      </trkpt>
      <trkpt lat="43.061183" lon="-0.108960">
        <ele>761.0</ele>
        <time>2018-12-07T16:05:10Z</time>
      </trkpt>
      <trkpt lat="43.061232" lon="-0.108825">
        <ele>760.5</ele>
        <time>2018-12-07T16:05:18Z</time>
      </trkpt>
      <trkpt lat="43.061290" lon="-0.108716">
        <ele>760.1</ele>
        <time>2018-12-07T16:05:26Z</time>
      </trkpt>
      <trkpt lat="43.061355" lon="-0.108586">
        <ele>759.5</ele>
        <time>2018-12-07T16:05:34Z</time>
      </trkpt>
      <trkpt lat="43.061424" lon="-0.108461">
        <ele>759.0</ele>
        <time>2018-12-07T16:05:41Z</time>
      </trkpt>
      <trkpt lat="43.061480" lon="-0.108346">
        <ele>758.6</ele>
        <time>2018-12-07T16:05:49Z</time>
      </trkpt>
      <trkpt lat="43.061553" lon="-0.108226">
        <ele>757.9</ele>
        <time>2018-12-07T16:05:57Z</time>
      </trkpt>
      <trkpt lat="43.061611" lon="-0.108119">
        <ele>757.4</ele>
        <time>2018-12-07T16:06:04Z</time>
      </trkpt>
      <trkpt lat="43.061675" lon="-0.108001">
        <ele>756.8</ele>
        <time>2018-12-07T16:06:11Z</time>
      </trkpt>
      <trkpt lat="43.061726" lon="-0.107865">
        <ele>756.3</ele>
        <time>2018-12-07T16:06:19Z</time>
      </trkpt>
      <trkpt lat="43.061787" lon="-0.107745">
        <ele>755.9</ele>
        <time>2018-12-07T16:06:26Z</time>
      </trkpt>
      <trkpt lat="43.061823" lon="-0.107622">
        <ele>755.3</ele>
        <time>2018-12-07T16:06:33Z</time>
      </trkpt>
      <trkpt lat="43.061866" lon="-0.107476">
        <ele>754.7</ele>
        <time>2018-12-07T16:06:41Z</time>
      </trkpt>
      <trkpt lat="43.061912" lon="-0.107347">
        <ele>754.1</ele>
        <time>2018-12-07T16:06:48Z</time>
      </trkpt>
      <trkpt lat="43.061963" lon="-0.107228">
        <ele>753.3</ele>
        <time>2018-12-07T16:06:55Z</time>
      </trkpt>
      <trkpt lat="43.062031" lon="-0.107127">
        <ele>753.0</ele>
        <time>2018-12-07T16:07:01Z</time>
      </trkpt>
      <trkpt lat="43.062084" lon="-0.107022">
        <ele>752.4</ele>
        <time>2018-12-07T16:07:07Z</time>
      </trkpt>
      <trkpt lat="43.062110" lon="-0.106902">
        <ele>751.7</ele>
        <time>2018-12-07T16:07:15Z</time>
      </trkpt>
      <trkpt lat="43.062163" lon="-0.106768">
        <ele>750.9</ele>
        <time>2018-12-07T16:07:22Z</time>
      </trkpt>
      <trkpt lat="43.062192" lon="-0.106635">
        <ele>750.6</ele>
        <time>2018-12-07T16:07:29Z</time>
      </trkpt>
      <trkpt lat="43.062225" lon="-0.106516">
        <ele>750.1</ele>
        <time>2018-12-07T16:07:36Z</time>
      </trkpt>
      <trkpt lat="43.062286" lon="-0.106398">
        <ele>749.5</ele>
        <time>2018-12-07T16:07:43Z</time>
      </trkpt>
      <trkpt lat="43.062315" lon="-0.106271">
        <ele>749.3</ele>
        <time>2018-12-07T16:07:52Z</time>
      </trkpt>
      <trkpt lat="43.062360" lon="-0.106135">
        <ele>748.7</ele>
        <time>2018-12-07T16:08:00Z</time>
      </trkpt>
      <trkpt lat="43.062408" lon="-0.105995">
        <ele>748.5</ele>
        <time>2018-12-07T16:08:08Z</time>
      </trkpt>
      <trkpt lat="43.062459" lon="-0.105866">
        <ele>748.1</ele>
        <time>2018-12-07T16:08:15Z</time>
      </trkpt>
      <trkpt lat="43.062504" lon="-0.105745">
        <ele>747.7</ele>
        <time>2018-12-07T16:08:22Z</time>
      </trkpt>
      <trkpt lat="43.062552" lon="-0.105630">
        <ele>747.4</ele>
        <time>2018-12-07T16:08:29Z</time>
      </trkpt>
      <trkpt lat="43.062590" lon="-0.105512">
        <ele>746.7</ele>
        <time>2018-12-07T16:08:37Z</time>
      </trkpt>
      <trkpt lat="43.062637" lon="-0.105387">
        <ele>746.2</ele>
        <time>2018-12-07T16:08:44Z</time>
      </trkpt>
      <trkpt lat="43.062681" lon="-0.105262">
        <ele>745.8</ele>
        <time>2018-12-07T16:08:51Z</time>
      </trkpt>
      <trkpt lat="43.062714" lon="-0.105136">
        <ele>745.4</ele>
        <time>2018-12-07T16:08:58Z</time>
      </trkpt>
      <trkpt lat="43.062755" lon="-0.105019">
        <ele>744.9</ele>
        <time>2018-12-07T16:09:04Z</time>
      </trkpt>
      <trkpt lat="43.062797" lon="-0.104901">
        <ele>744.4</ele>
        <time>2018-12-07T16:09:11Z</time>
      </trkpt>
      <trkpt lat="43.062847" lon="-0.104782">
        <ele>744.0</ele>
        <time>2018-12-07T16:09:17Z</time>
      </trkpt>
      <trkpt lat="43.062880" lon="-0.104655">
        <ele>743.4</ele>
        <time>2018-12-07T16:09:25Z</time>
      </trkpt>
      <trkpt lat="43.062908" lon="-0.104531">
        <ele>743.0</ele>
        <time>2018-12-07T16:09:32Z</time>
      </trkpt>
      <trkpt lat="43.062943" lon="-0.104383">
        <ele>742.7</ele>
        <time>2018-12-07T16:09:40Z</time>
      </trkpt>
      <trkpt lat="43.062979" lon="-0.104253">
        <ele>742.3</ele>
        <time>2018-12-07T16:09:47Z</time>
      </trkpt>
      <trkpt lat="43.062985" lon="-0.104112">
        <ele>741.9</ele>
        <time>2018-12-07T16:09:54Z</time>
      </trkpt>
      <trkpt lat="43.062998" lon="-0.103983">
        <ele>741.5</ele>
        <time>2018-12-07T16:10:00Z</time>
      </trkpt>
      <trkpt lat="43.063031" lon="-0.103858">
        <ele>741.1</ele>
        <time>2018-12-07T16:10:07Z</time>
      </trkpt>
      <trkpt lat="43.063078" lon="-0.103745">
        <ele>740.8</ele>
        <time>2018-12-07T16:10:13Z</time>
      </trkpt>
      <trkpt lat="43.063135" lon="-0.103660">
        <ele>740.2</ele>
        <time>2018-12-07T16:10:20Z</time>
      </trkpt>
      <trkpt lat="43.063198" lon="-0.103539">
        <ele>739.8</ele>
        <time>2018-12-07T16:10:28Z</time>
      </trkpt>
      <trkpt lat="43.063283" lon="-0.103453">
        <ele>739.1</ele>
        <time>2018-12-07T16:10:36Z</time>
      </trkpt>
      <trkpt lat="43.063375" lon="-0.103428">
        <ele>738.8</ele>
        <time>2018-12-07T16:10:42Z</time>
      </trkpt>
      <trkpt lat="43.063451" lon="-0.103384">
        <ele>738.4</ele>
        <time>2018-12-07T16:10:49Z</time>
      </trkpt>
      <trkpt lat="43.063526" lon="-0.103266">
        <ele>737.9</ele>
        <time>2018-12-07T16:10:57Z</time>
      </trkpt>
      <trkpt lat="43.063586" lon="-0.103147">
        <ele>737.3</ele>
        <time>2018-12-07T16:11:04Z</time>
      </trkpt>
      <trkpt lat="43.063623" lon="-0.103047">
        <ele>736.9</ele>
        <time>2018-12-07T16:11:14Z</time>
      </trkpt>
      <trkpt lat="43.063670" lon="-0.102941">
        <ele>736.5</ele>
        <time>2018-12-07T16:11:21Z</time>
      </trkpt>
      <trkpt lat="43.063721" lon="-0.102826">
        <ele>735.9</ele>
        <time>2018-12-07T16:11:29Z</time>
      </trkpt>
      <trkpt lat="43.063774" lon="-0.102720">
        <ele>735.9</ele>
        <time>2018-12-07T16:11:40Z</time>
      </trkpt>
      <trkpt lat="43.063816" lon="-0.102603">
        <ele>735.7</ele>
        <time>2018-12-07T16:11:49Z</time>
      </trkpt>
      <trkpt lat="43.063880" lon="-0.102475">
        <ele>735.2</ele>
        <time>2018-12-07T16:11:57Z</time>
      </trkpt>
      <trkpt lat="43.063921" lon="-0.102351">
        <ele>734.8</ele>
        <time>2018-12-07T16:12:04Z</time>
      </trkpt>
      <trkpt lat="43.063976" lon="-0.102239">
        <ele>734.5</ele>
        <time>2018-12-07T16:12:11Z</time>
      </trkpt>
      <trkpt lat="43.064041" lon="-0.102110">
        <ele>734.0</ele>
        <time>2018-12-07T16:12:18Z</time>
      </trkpt>
      <trkpt lat="43.064101" lon="-0.101998">
        <ele>733.7</ele>
        <time>2018-12-07T16:12:24Z</time>
      </trkpt>
      <trkpt lat="43.064150" lon="-0.101899">
        <ele>733.3</ele>
        <time>2018-12-07T16:12:30Z</time>
      </trkpt>
      <trkpt lat="43.064184" lon="-0.101789">
        <ele>733.1</ele>
        <time>2018-12-07T16:12:36Z</time>
      </trkpt>
      <trkpt lat="43.064237" lon="-0.101676">
        <ele>732.4</ele>
        <time>2018-12-07T16:12:44Z</time>
      </trkpt>
      <trkpt lat="43.064285" lon="-0.101561">
        <ele>731.9</ele>
        <time>2018-12-07T16:12:51Z</time>
      </trkpt>
      <trkpt lat="43.064328" lon="-0.101427">
        <ele>731.4</ele>
        <time>2018-12-07T16:12:59Z</time>
      </trkpt>
      <trkpt lat="43.064391" lon="-0.101314">
        <ele>731.1</ele>
        <time>2018-12-07T16:13:07Z</time>
      </trkpt>
      <trkpt lat="43.064464" lon="-0.101159">
        <ele>730.6</ele>
        <time>2018-12-07T16:13:15Z</time>
      </trkpt>
      <trkpt lat="43.064509" lon="-0.101031">
        <ele>730.4</ele>
        <time>2018-12-07T16:13:22Z</time>
      </trkpt>
      <trkpt lat="43.064544" lon="-0.100916">
        <ele>730.1</ele>
        <time>2018-12-07T16:13:29Z</time>
      </trkpt>
      <trkpt lat="43.064590" lon="-0.100808">
        <ele>729.7</ele>
        <time>2018-12-07T16:13:36Z</time>
      </trkpt>
      <trkpt lat="43.064660" lon="-0.100702">
        <ele>729.6</ele>
        <time>2018-12-07T16:13:43Z</time>
      </trkpt>
      <trkpt lat="43.064748" lon="-0.100598">
        <ele>729.2</ele>
        <time>2018-12-07T16:13:50Z</time>
      </trkpt>
      <trkpt lat="43.064789" lon="-0.100455">
        <ele>728.9</ele>
        <time>2018-12-07T16:13:57Z</time>
      </trkpt>
      <trkpt lat="43.064845" lon="-0.100337">
        <ele>728.6</ele>
        <time>2018-12-07T16:14:05Z</time>
      </trkpt>
      <trkpt lat="43.064885" lon="-0.100218">
        <ele>728.2</ele>
        <time>2018-12-07T16:14:11Z</time>
      </trkpt>
      <trkpt lat="43.064935" lon="-0.100095">
        <ele>728.0</ele>
        <time>2018-12-07T16:14:17Z</time>
      </trkpt>
      <trkpt lat="43.064972" lon="-0.099985">
        <ele>727.6</ele>
        <time>2018-12-07T16:14:23Z</time>
      </trkpt>
      <trkpt lat="43.065023" lon="-0.099872">
        <ele>727.4</ele>
        <time>2018-12-07T16:14:29Z</time>
      </trkpt>
      <trkpt lat="43.065071" lon="-0.099767">
        <ele>727.3</ele>
        <time>2018-12-07T16:14:34Z</time>
      </trkpt>
      <trkpt lat="43.065063" lon="-0.099664">
        <ele>727.2</ele>
        <time>2018-12-07T16:14:45Z</time>
      </trkpt>
      <trkpt lat="43.065013" lon="-0.099533">
        <ele>727.0</ele>
        <time>2018-12-07T16:14:53Z</time>
      </trkpt>
      <trkpt lat="43.064967" lon="-0.099431">
        <ele>726.6</ele>
        <time>2018-12-07T16:14:59Z</time>
      </trkpt>
      <trkpt lat="43.064959" lon="-0.099307">
        <ele>726.2</ele>
        <time>2018-12-07T16:15:05Z</time>
      </trkpt>
      <trkpt lat="43.065006" lon="-0.099216">
        <ele>726.2</ele>
        <time>2018-12-07T16:15:11Z</time>
      </trkpt>
      <trkpt lat="43.065069" lon="-0.099134">
        <ele>726.1</ele>
        <time>2018-12-07T16:15:17Z</time>
      </trkpt>
      <trkpt lat="43.065110" lon="-0.099039">
        <ele>725.7</ele>
        <time>2018-12-07T16:15:23Z</time>
      </trkpt>
      <trkpt lat="43.065160" lon="-0.098930">
        <ele>725.6</ele>
        <time>2018-12-07T16:15:30Z</time>
      </trkpt>
      <trkpt lat="43.065209" lon="-0.098816">
        <ele>725.0</ele>
        <time>2018-12-07T16:15:37Z</time>
      </trkpt>
      <trkpt lat="43.065257" lon="-0.098697">
        <ele>724.8</ele>
        <time>2018-12-07T16:15:44Z</time>
      </trkpt>
      <trkpt lat="43.065317" lon="-0.098604">
        <ele>724.5</ele>
        <time>2018-12-07T16:15:50Z</time>
      </trkpt>
      <trkpt lat="43.065370" lon="-0.098487">
        <ele>724.5</ele>
        <time>2018-12-07T16:15:56Z</time>
      </trkpt>
      <trkpt lat="43.065425" lon="-0.098392">
        <ele>724.5</ele>
        <time>2018-12-07T16:16:02Z</time>
      </trkpt>
      <trkpt lat="43.065473" lon="-0.098297">
        <ele>724.3</ele>
        <time>2018-12-07T16:16:09Z</time>
      </trkpt>
      <trkpt lat="43.065519" lon="-0.098183">
        <ele>723.9</ele>
        <time>2018-12-07T16:16:15Z</time>
      </trkpt>
      <trkpt lat="43.065555" lon="-0.098070">
        <ele>723.8</ele>
        <time>2018-12-07T16:16:20Z</time>
      </trkpt>
      <trkpt lat="43.065571" lon="-0.097975">
        <ele>723.8</ele>
        <time>2018-12-07T16:16:25Z</time>
      </trkpt>
      <trkpt lat="43.065580" lon="-0.097855">
        <ele>723.6</ele>
        <time>2018-12-07T16:16:30Z</time>
      </trkpt>
      <trkpt lat="43.065591" lon="-0.097760">
        <ele>723.4</ele>
        <time>2018-12-07T16:16:34Z</time>
      </trkpt>
      <trkpt lat="43.065610" lon="-0.097655">
        <ele>722.9</ele>
        <time>2018-12-07T16:16:38Z</time>
      </trkpt>
      <trkpt lat="43.065646" lon="-0.097558">
        <ele>722.6</ele>
        <time>2018-12-07T16:16:44Z</time>
      </trkpt>
      <trkpt lat="43.065694" lon="-0.097480">
        <ele>722.7</ele>
        <time>2018-12-07T16:16:49Z</time>
      </trkpt>
      <trkpt lat="43.065758" lon="-0.097407">
        <ele>722.4</ele>
        <time>2018-12-07T16:16:56Z</time>
      </trkpt>
      <trkpt lat="43.065828" lon="-0.097342">
        <ele>721.9</ele>
        <time>2018-12-07T16:17:04Z</time>
      </trkpt>
      <trkpt lat="43.065915" lon="-0.097257">
        <ele>721.4</ele>
        <time>2018-12-07T16:17:13Z</time>
      </trkpt>
      <trkpt lat="43.066016" lon="-0.097170">
        <ele>721.2</ele>
        <time>2018-12-07T16:17:20Z</time>
      </trkpt>
      <trkpt lat="43.066103" lon="-0.097098">
        <ele>720.9</ele>
        <time>2018-12-07T16:17:26Z</time>
      </trkpt>
      <trkpt lat="43.066183" lon="-0.097022">
        <ele>720.5</ele>
        <time>2018-12-07T16:17:32Z</time>
      </trkpt>
      <trkpt lat="43.066253" lon="-0.096941">
        <ele>720.3</ele>
        <time>2018-12-07T16:17:38Z</time>
      </trkpt>
      <trkpt lat="43.066334" lon="-0.096855">
        <ele>720.2</ele>
        <time>2018-12-07T16:17:44Z</time>
      </trkpt>
      <trkpt lat="43.066393" lon="-0.096760">
        <ele>720.1</ele>
        <time>2018-12-07T16:17:49Z</time>
      </trkpt>
      <trkpt lat="43.066423" lon="-0.096643">
        <ele>719.8</ele>
        <time>2018-12-07T16:17:55Z</time>
      </trkpt>
      <trkpt lat="43.066460" lon="-0.096528">
        <ele>719.5</ele>
        <time>2018-12-07T16:18:01Z</time>
      </trkpt>
      <trkpt lat="43.066499" lon="-0.096412">
        <ele>719.1</ele>
        <time>2018-12-07T16:18:07Z</time>
      </trkpt>
      <trkpt lat="43.066540" lon="-0.096294">
        <ele>718.9</ele>
        <time>2018-12-07T16:18:13Z</time>
      </trkpt>
      <trkpt lat="43.066583" lon="-0.096183">
        <ele>718.8</ele>
        <time>2018-12-07T16:18:19Z</time>
      </trkpt>
      <trkpt lat="43.066625" lon="-0.096062">
        <ele>719.0</ele>
        <time>2018-12-07T16:18:25Z</time>
      </trkpt>
      <trkpt lat="43.066653" lon="-0.095952">
        <ele>718.8</ele>
        <time>2018-12-07T16:18:31Z</time>
      </trkpt>
      <trkpt lat="43.066701" lon="-0.095841">
        <ele>718.7</ele>
        <time>2018-12-07T16:18:38Z</time>
      </trkpt>
      <trkpt lat="43.066751" lon="-0.095715">
        <ele>718.5</ele>
        <time>2018-12-07T16:18:46Z</time>
      </trkpt>
      <trkpt lat="43.066794" lon="-0.095563">
        <ele>718.1</ele>
        <time>2018-12-07T16:18:55Z</time>
      </trkpt>
      <trkpt lat="43.066852" lon="-0.095411">
        <ele>718.0</ele>
        <time>2018-12-07T16:19:03Z</time>
      </trkpt>
      <trkpt lat="43.066902" lon="-0.095249">
        <ele>718.0</ele>
        <time>2018-12-07T16:19:13Z</time>
      </trkpt>
      <trkpt lat="43.066943" lon="-0.095105">
        <ele>717.6</ele>
        <time>2018-12-07T16:19:22Z</time>
      </trkpt>
      <trkpt lat="43.067033" lon="-0.094955">
        <ele>717.4</ele>
        <time>2018-12-07T16:19:31Z</time>
      </trkpt>
      <trkpt lat="43.067104" lon="-0.094834">
        <ele>717.4</ele>
        <time>2018-12-07T16:19:39Z</time>
      </trkpt>
      <trkpt lat="43.067205" lon="-0.094737">
        <ele>717.3</ele>
        <time>2018-12-07T16:19:48Z</time>
      </trkpt>
      <trkpt lat="43.067315" lon="-0.094604">
        <ele>717.0</ele>
        <time>2018-12-07T16:19:57Z</time>
      </trkpt>
      <trkpt lat="43.067400" lon="-0.094514">
        <ele>716.7</ele>
        <time>2018-12-07T16:20:06Z</time>
      </trkpt>
      <trkpt lat="43.067501" lon="-0.094425">
        <ele>716.5</ele>
        <time>2018-12-07T16:20:13Z</time>
      </trkpt>
      <trkpt lat="43.067589" lon="-0.094312">
        <ele>716.3</ele>
        <time>2018-12-07T16:20:22Z</time>
      </trkpt>
      <trkpt lat="43.067712" lon="-0.094220">
        <ele>716.2</ele>
        <time>2018-12-07T16:20:31Z</time>
      </trkpt>
      <trkpt lat="43.067811" lon="-0.094135">
        <ele>716.3</ele>
        <time>2018-12-07T16:20:38Z</time>
      </trkpt>
      <trkpt lat="43.067916" lon="-0.094054">
        <ele>716.1</ele>
        <time>2018-12-07T16:20:47Z</time>
      </trkpt>
      <trkpt lat="43.068002" lon="-0.093967">
        <ele>716.2</ele>
        <time>2018-12-07T16:20:54Z</time>
      </trkpt>
      <trkpt lat="43.068123" lon="-0.093927">
        <ele>716.3</ele>
        <time>2018-12-07T16:21:02Z</time>
      </trkpt>
      <trkpt lat="43.068240" lon="-0.093876">
        <ele>716.3</ele>
        <time>2018-12-07T16:21:10Z</time>
      </trkpt>
      <trkpt lat="43.068337" lon="-0.093816">
        <ele>716.5</ele>
        <time>2018-12-07T16:21:17Z</time>
      </trkpt>
      <trkpt lat="43.068424" lon="-0.093766">
        <ele>716.6</ele>
        <time>2018-12-07T16:21:24Z</time>
      </trkpt>
      <trkpt lat="43.068544" lon="-0.093740">
        <ele>717.0</ele>
        <time>2018-12-07T16:21:33Z</time>
      </trkpt>
      <trkpt lat="43.068642" lon="-0.093744">
        <ele>717.3</ele>
        <time>2018-12-07T16:21:40Z</time>
      </trkpt>
      <trkpt lat="43.068741" lon="-0.093763">
        <ele>717.7</ele>
        <time>2018-12-07T16:21:47Z</time>
      </trkpt>
      <trkpt lat="43.068854" lon="-0.093732">
        <ele>718.1</ele>
        <time>2018-12-07T16:21:55Z</time>
      </trkpt>
      <trkpt lat="43.068985" lon="-0.093672">
        <ele>718.9</ele>
        <time>2018-12-07T16:22:03Z</time>
      </trkpt>
      <trkpt lat="43.069081" lon="-0.093571">
        <ele>719.3</ele>
        <time>2018-12-07T16:22:12Z</time>
      </trkpt>
      <trkpt lat="43.069105" lon="-0.093431">
        <ele>720.4</ele>
        <time>2018-12-07T16:22:19Z</time>
      </trkpt>
      <trkpt lat="43.069089" lon="-0.093266">
        <ele>721.7</ele>
        <time>2018-12-07T16:22:28Z</time>
      </trkpt>
      <trkpt lat="43.069037" lon="-0.093127">
        <ele>723.1</ele>
        <time>2018-12-07T16:22:37Z</time>
      </trkpt>
      <trkpt lat="43.068989" lon="-0.092955">
        <ele>723.5</ele>
        <time>2018-12-07T16:22:47Z</time>
      </trkpt>
      <trkpt lat="43.068946" lon="-0.092758">
        <ele>723.9</ele>
        <time>2018-12-07T16:22:56Z</time>
      </trkpt>
      <trkpt lat="43.068906" lon="-0.092585">
        <ele>723.7</ele>
        <time>2018-12-07T16:23:03Z</time>
      </trkpt>
      <trkpt lat="43.068880" lon="-0.092444">
        <ele>723.9</ele>
        <time>2018-12-07T16:23:10Z</time>
      </trkpt>
      <trkpt lat="43.068844" lon="-0.092308">
        <ele>723.5</ele>
        <time>2018-12-07T16:23:17Z</time>
      </trkpt>
      <trkpt lat="43.068828" lon="-0.092169">
        <ele>723.1</ele>
        <time>2018-12-07T16:23:23Z</time>
      </trkpt>
      <trkpt lat="43.068827" lon="-0.092020">
        <ele>723.0</ele>
        <time>2018-12-07T16:23:30Z</time>
      </trkpt>
      <trkpt lat="43.068856" lon="-0.091893">
        <ele>722.8</ele>
        <time>2018-12-07T16:23:38Z</time>
      </trkpt>
      <trkpt lat="43.068917" lon="-0.091773">
        <ele>722.8</ele>
        <time>2018-12-07T16:23:46Z</time>
      </trkpt>
      <trkpt lat="43.069010" lon="-0.091716">
        <ele>722.8</ele>
        <time>2018-12-07T16:23:54Z</time>
      </trkpt>
      <trkpt lat="43.069120" lon="-0.091647">
        <ele>723.2</ele>
        <time>2018-12-07T16:24:04Z</time>
      </trkpt>
      <trkpt lat="43.069222" lon="-0.091581">
        <ele>723.9</ele>
        <time>2018-12-07T16:24:12Z</time>
      </trkpt>
      <trkpt lat="43.069278" lon="-0.091468">
        <ele>724.1</ele>
        <time>2018-12-07T16:24:18Z</time>
      </trkpt>
      <trkpt lat="43.069295" lon="-0.091347">
        <ele>724.1</ele>
        <time>2018-12-07T16:24:24Z</time>
      </trkpt>
      <trkpt lat="43.069241" lon="-0.091264">
        <ele>724.2</ele>
        <time>2018-12-07T16:24:31Z</time>
      </trkpt>
    </trkseg>
  </trk>
</gpx>

